[[{"header":{"parameterUnit":"m.s-1","parameterCategory":1,"la1":30.6,"la2":29.2853,"lo1":-89.7004,"lo2":-87.6739,"dy":0.0162,"dx":0.0183,"nx":112,"ny":82,"refTime":"2023-05-09T00:00:00:Z","depth":0,"parameterNumber":2,"parameterNumberName":"U-component_of_WINDS"},"data":[0.0,0.0,0.0,0.0,0.0,0.0,0.0,0.0,0.0,0.0,0.0,0.0,0.0,0.0,0.0,0.0,0.0,0.0,0.0,0.0,0.0,0.0,0.0,0.0,0.0,0.0,0.0,0.0,0.0,0.0,0.0,0.0,0.0,0.0,0.0,0.0,0.0,0.0,0.0,0.0,0.0,0.0,0.0,0.0,0.0,0.0,0.0,0.0,0.0,0.0,0.0,0.0,0.0,0.0,0.0,0.0,0.0,0.0,0.0,0.0,0.0,0.0,0.0,0.0,0.0,0.0,0.0,0.0,0.0,0.0,0.0,0.0,0.0,0.0,0.0,0.0,0.0,0.0,0.0,0.0,0.0,0.0,0.0,0.0,0.0,0.0,0.0,0.0,0.0,0.0,0.0,-0.5484,-0.6485,-0.7608,-0.8866,-0.8077,-0.7534,-0.7647,0.0,0.0,0.0,0.0,0.0,0.0,0.0,0.0,0.0,0.0,0.0,0.0,0.0,0.0,0.0,0.0,0.0,0.0,0.0,0.0,0.0,0.0,0.0,0.0,0.0,0.0,0.0,0.0,0.0,0.0,0.0,0.0,0.0,0.0,0.0,0.0,0.0,0.0,0.0,0.0,0.0,0.0,0.0,0.0,0.0,0.0,0.0,0.0,0.0,0.0,0.0,0.0,0.0,0.0,0.0,0.0,0.0,0.0,0.0,0.0,0.0,0.0,0.0,0.0,0.0,0.0,0.0,0.0,0.0,0.0,0.0,0.0,0.0,0.0,0.0,0.0,0.0,0.0,0.0,0.0,0.0,0.0,0.0,0.0,0.0,0.0,0.0,0.0,0.0,0.0,0.0,0.0,0.0,0.0,0.0,0.0,0.0,0.0,0.0,0.0,0.0,0.0,0.0,0.0,-0.5807,-0.6945,-0.683,-0.7289,-0.8789,-0.9162,-0.8639,-0.7041,0.0,0.0,0.0,0.0,0.0,0.0,0.0,0.0,0.0,0.0,0.0,0.0,0.0,0.0,0.0,0.0,0.0,0.0,0.0,0.0,0.0,0.0,0.0,0.0,0.0,0.0,0.0,0.0,0.0,0.0,0.0,0.0,0.0,0.0,0.0,0.0,0.0,0.0,0.0,0.0,0.0,0.0,0.0,0.0,0.0,0.0,0.0,0.0,0.0,0.0,0.0,0.0,0.0,0.0,0.0,0.0,0.0,0.0,0.0,0.0,0.0,0.0,0.0,0.0,0.0,0.0,0.0,0.0,0.0,0.0,0.0,0.0,0.0,0.0,0.0,0.0,0.0,0.0,0.0,0.0,0.0,0.0,0.0,0.0,0.0,0.0,0.0,0.0,0.0,0.0,0.0,0.0,0.0,0.0,0.0,0.0,0.0,0.0,0.0,0.0,0.0,0.0,0.0,-0.3952,-0.5333,-0.6477,-0.6652,-0.7171,-0.8325,-0.8803,-0.9248,-0.9694,-0.6304,0.0,0.0,0.0,0.0,0.0,0.0,0.0,0.0,0.0,0.0,0.0,0.0,0.0,0.0,0.0,0.0,0.0,0.0,0.0,0.0,0.0,0.0,0.0,0.0,0.0,0.0,0.0,0.0,0.0,0.0,0.0,0.0,0.0,0.0,0.0,0.0,0.0,0.0,0.0,0.0,0.0,0.0,0.0,0.0,0.0,0.0,0.0,0.0,0.0,0.0,0.0,0.0,0.0,0.0,0.0,0.0,0.0,0.0,0.0,0.0,0.0,0.0,0.0,0.0,0.0,0.0,0.0,0.0,0.0,0.0,0.0,0.0,0.0,0.0,0.0,0.0,0.0,0.0,0.0,0.0,0.0,0.0,0.0,0.0,0.0,0.0,0.0,0.0,0.0,0.0,0.0,0.0,0.0,0.0,0.0,0.0,0.0,0.0,0.0,0.0,0.0,0.0,-0.4332,-0.4934,-0.5898,-0.6494,-0.7261,-0.8326,-0.8722,-0.9938,-1.2386,-0.9749,0.0,0.0,0.0,0.0,0.0,0.0,0.0,0.0,0.0,0.0,0.0,0.0,0.0,0.0,0.0,0.0,0.0,0.0,0.0,0.0,0.0,0.0,0.0,0.0,0.0,0.0,0.0,0.0,0.0,0.0,0.0,0.0,0.0,0.0,0.0,0.0,0.0,0.0,0.0,0.0,0.0,0.0,0.0,0.0,0.0,0.0,0.0,0.0,0.0,0.0,0.0,0.0,0.0,0.0,0.0,0.0,0.0,0.0,0.0,0.0,0.0,0.0,0.0,0.0,0.0,0.0,0.0,0.0,0.0,0.0,0.0,0.0,0.0,0.0,0.0,0.0,0.0,0.0,0.0,0.0,0.0,0.0,0.0,0.0,0.0,0.0,0.0,0.0,0.0,0.0,0.0,0.0,0.0,0.0,0.0,0.0,0.0,0.0,0.0,0.0,0.0,0.0,-0.4571,-0.5372,-0.6182,-0.6654,-0.7649,-0.9516,-0.992,-1.1065,-1.3356,-1.1644,0.0,0.0,0.0,0.0,0.0,0.0,0.0,0.0,0.0,0.0,0.0,0.0,0.0,0.0,0.0,0.0,0.0,0.0,0.0,0.0,0.0,0.0,0.0,0.0,0.0,0.0,0.0,0.0,0.0,0.0,0.0,0.0,0.0,0.0,0.0,0.0,0.0,0.0,0.0,0.0,0.0,0.0,0.0,0.0,0.0,0.0,0.0,0.0,0.0,0.0,0.0,0.0,0.0,0.0,0.0,0.0,0.0,0.0,0.0,0.0,0.0,0.0,0.0,0.0,0.0,0.0,0.0,0.0,0.0,0.0,0.0,0.0,0.0,0.0,0.0,0.0,0.0,0.0,0.0,0.0,0.0,0.0,0.0,0.0,0.0,0.0,0.0,0.0,0.0,0.0,0.0,0.0,0.0,0.0,0.0,0.0,0.0,0.0,0.0,0.0,0.0,0.0,-0.5001,-0.5511,0.0,-0.7009,-0.7834,-0.8445,-0.9761,-1.1249,-1.2803,0.0,0.0,0.0,0.0,0.0,0.0,0.0,0.0,0.0,0.0,0.0,0.0,0.0,0.0,0.0,0.0,0.0,0.0,0.0,0.0,0.0,0.0,0.0,0.0,0.0,0.0,0.0,0.0,0.0,0.0,0.0,0.0,0.0,0.0,0.0,0.0,0.0,0.0,0.0,0.0,0.0,0.0,0.0,0.0,0.0,0.0,0.0,0.0,0.0,0.0,0.0,0.0,0.0,0.0,0.0,0.0,0.0,0.0,0.0,0.0,0.0,0.0,0.0,0.0,0.0,0.0,0.0,0.0,0.0,0.0,0.0,0.0,0.0,0.0,0.0,0.0,0.0,0.0,0.0,0.0,0.0,0.0,0.0,0.0,0.0,0.0,0.0,0.0,0.0,0.0,0.0,0.0,0.0,0.0,0.0,0.0,0.0,0.0,0.0,0.0,0.0,0.0,-0.4702,-0.5291,-0.5728,0.0,-0.7051,-0.7819,-0.8174,-0.9287,-1.0717,-1.2425,0.0,0.0,0.0,0.0,0.0,0.0,0.0,0.0,0.0,0.0,0.0,0.0,0.0,0.0,0.0,0.0,0.0,0.0,0.0,0.0,0.0,0.0,0.0,0.0,0.0,0.0,0.0,0.0,0.0,0.0,0.0,0.0,0.0,0.0,0.0,0.0,0.0,0.0,0.0,0.0,0.0,0.0,0.0,0.0,0.0,0.0,0.0,0.0,0.0,0.0,0.0,0.0,0.0,0.0,0.0,0.0,0.0,0.0,0.0,0.0,0.0,0.0,0.0,0.0,0.0,0.0,0.0,0.0,0.0,0.0,0.0,0.0,0.0,0.0,0.0,0.0,0.0,0.0,0.0,0.0,0.0,0.0,0.0,0.0,0.0,0.0,0.0,0.0,0.0,0.0,0.0,0.0,0.0,0.0,0.0,0.0,0.0,0.0,0.0,0.0,0.0,0.0,-0.4466,-0.5412,-0.605,-0.6171,-0.6674,-0.7602,-0.9144,-0.8615,-0.946,0.0,0.0,0.0,0.0,0.0,0.0,0.0,0.0,0.0,0.0,0.0,0.0,0.0,0.0,0.0,0.0,0.0,0.0,0.0,0.0,0.0,0.0,0.0,0.0,0.0,0.0,0.0,0.0,0.0,0.0,0.0,0.0,0.0,0.0,0.0,0.0,0.0,0.0,0.0,0.0,0.0,0.0,0.0,0.0,0.0,0.0,0.0,0.0,0.0,0.0,0.0,0.0,0.0,0.0,0.0,0.0,0.0,0.0,0.0,0.0,0.0,0.0,0.0,0.0,0.0,0.0,0.0,0.0,0.0,0.0,0.0,0.0,0.0,0.0,0.0,0.0,0.0,0.0,0.0,0.0,0.0,0.0,0.0,0.0,0.0,0.0,0.0,0.0,0.0,0.0,0.0,0.0,0.0,0.0,0.0,0.0,0.0,0.0,0.0,0.0,0.0,0.0,0.0,-0.462,-0.5089,-0.538,-0.5617,-0.6205,-0.6817,-0.7412,-0.8008,-0.925,-1.1402,0.0,0.0,0.0,0.0,0.0,0.0,0.0,0.0,0.0,0.0,0.0,0.0,0.0,0.0,0.0,0.0,0.0,0.0,0.0,0.0,0.0,0.0,0.0,0.0,0.0,0.0,0.0,0.0,0.0,0.0,0.0,0.0,0.0,0.0,0.0,0.0,0.0,0.0,0.0,0.0,0.0,0.0,0.0,0.0,0.0,0.0,0.0,0.0,0.0,0.0,0.0,0.0,0.0,0.0,0.0,0.0,0.0,0.0,0.0,0.0,0.0,0.0,0.0,0.0,0.0,0.0,0.0,0.0,0.0,0.0,0.0,0.0,0.0,0.0,0.0,0.0,0.0,0.0,0.0,0.0,0.0,0.0,0.0,0.0,0.0,0.0,0.0,0.0,0.0,0.0,0.0,0.0,0.0,0.0,0.0,0.0,0.0,0.0,0.0,0.0,0.0,0.0,-0.4046,-0.4586,-0.4857,-0.5015,-0.5863,-0.6504,-0.6762,-0.7768,-0.9026,-1.048,0.0,0.0,0.0,0.0,0.0,0.0,0.0,0.0,0.0,0.0,0.0,0.0,0.0,0.0,0.0,0.0,0.0,0.0,0.0,0.0,0.0,0.0,0.0,0.0,0.0,0.0,0.0,0.0,0.0,0.0,0.0,0.0,0.0,0.0,0.0,0.0,0.0,0.0,0.0,0.0,0.0,0.0,0.0,0.0,0.0,0.0,0.0,0.0,0.0,0.0,0.0,0.0,0.0,0.0,0.0,0.0,0.0,0.0,0.0,0.0,0.0,0.0,0.0,0.0,0.0,0.0,0.0,0.0,0.0,0.0,0.0,0.0,0.0,0.0,0.0,0.0,0.0,0.0,0.0,0.0,0.0,0.0,0.0,0.0,0.0,0.0,0.0,0.0,0.0,0.0,0.0,0.0,0.0,0.0,0.0,0.0,0.0,0.0,0.0,0.0,0.0,0.0,-0.3122,-0.397,-0.4487,-0.4616,-0.5671,-0.6538,-0.6977,-0.7834,-0.8759,-0.9706,0.0,0.0,0.0,0.0,0.0,0.0,0.0,0.0,0.0,0.0,0.0,0.0,0.0,0.0,0.0,0.0,0.0,0.0,0.0,0.0,0.0,0.0,0.0,0.0,0.0,0.0,0.0,0.0,0.0,0.0,0.0,0.0,0.0,0.0,0.0,0.0,0.0,0.0,0.0,0.0,0.0,0.0,0.0,0.0,0.0,0.0,0.0,0.0,0.0,0.0,0.0,0.0,0.0,0.0,0.0,0.0,0.0,0.0,0.0,0.0,-0.7489,0.0,0.0,0.0,0.0,0.0,0.0,0.0,0.0,0.0,0.0,0.0,0.0,0.0,0.0,0.0,0.0,0.0,0.0,0.0,0.0,0.0,0.0,0.0,0.0,0.0,0.0,0.0,0.0,0.0,0.0,0.0,0.0,0.0,0.0,0.0,0.0,0.0,0.0,0.0,0.0,0.0,-0.3232,-0.3743,-0.4355,-0.541,-0.5864,-0.6564,-0.7747,-0.799,-0.8516,-0.949,0.0,0.0,0.0,0.0,0.0,0.0,0.0,0.0,0.0,0.0,0.0,0.0,0.0,0.0,0.0,0.0,0.0,0.0,0.0,0.0,0.0,0.0,0.0,0.0,0.0,0.0,0.0,0.0,0.0,0.0,0.0,0.0,0.0,0.0,0.0,0.0,0.0,0.0,0.0,0.0,0.0,0.0,0.0,0.0,0.0,0.0,0.0,0.0,0.0,0.0,0.0,0.0,0.0,0.0,0.0,0.0,0.0,0.0,0.0,0.0,0.0,-0.6864,0.0,0.0,0.0,0.0,0.0,0.0,0.0,0.0,0.0,0.0,0.0,0.0,0.0,0.0,0.0,0.0,0.0,0.0,0.0,0.0,0.0,0.0,0.0,0.0,0.0,0.0,0.0,0.0,0.0,0.0,0.0,0.0,0.0,0.0,0.0,0.0,0.0,0.0,0.0,0.0,-0.3674,-0.3837,-0.4313,-0.566,-0.6296,-0.7027,-0.8013,-0.8478,-0.8938,-0.9463,-0.9316,0.0,0.0,0.0,0.0,0.0,0.0,0.0,0.0,0.0,0.0,0.0,0.0,0.0,0.0,0.0,0.0,0.0,0.0,0.0,0.0,0.0,0.0,0.0,0.0,0.0,0.0,0.0,0.0,0.0,0.0,0.0,0.0,0.0,0.0,0.0,0.0,0.0,0.0,0.0,0.0,0.0,0.0,0.0,0.0,0.0,0.0,0.0,0.0,0.0,0.0,0.0,0.0,0.0,0.0,-0.8908,-0.8947,-0.8957,-0.9195,-0.9438,-0.7046,-0.6447,-0.709,0.0,0.0,0.0,0.0,0.0,0.0,0.0,0.0,0.0,0.0,0.0,0.0,0.0,0.0,0.0,0.0,0.0,0.0,0.0,0.0,0.0,0.0,0.0,0.0,0.0,-0.6961,-0.5749,0.0,0.0,0.0,0.0,0.0,0.0,0.0,0.0,0.0,0.0,0.0,0.0,-0.4361,-0.4286,-0.4578,-0.5815,-0.6832,-0.7651,-0.818,-0.9009,-0.9499,-0.9499,-0.9304,-0.8629,0.0,0.0,0.0,0.0,0.0,0.0,0.0,0.0,0.0,0.0,0.0,0.0,0.0,0.0,0.0,0.0,0.0,0.0,0.0,0.0,0.0,0.0,0.0,0.0,0.0,0.0,0.0,0.0,0.0,0.0,0.0,0.0,-0.4594,-0.4921,0.0,0.0,0.0,0.0,0.0,0.0,0.0,0.0,0.0,0.0,0.0,0.0,0.0,0.0,-0.8518,-0.8699,-0.8829,-0.8901,-0.9068,-0.9142,-0.9138,-0.8632,-0.908,-1.0143,-0.7837,0.0,-0.7886,-0.8168,0.0,0.0,0.0,0.0,0.0,0.0,0.0,0.0,0.0,0.0,0.0,0.0,0.0,0.0,0.0,0.0,0.0,0.0,0.0,0.0,0.0,0.0,-0.6264,-0.7086,-0.7929,-0.8538,0.0,-0.6316,-0.3804,-0.1574,0.0,0.0,0.0,0.0,0.0,0.0,0.0,0.0,-0.5333,-0.539,-0.5651,-0.6406,-0.7394,-0.8179,-0.8677,-0.9198,-0.9494,-0.9494,-0.9528,-0.9418,-0.9167,-0.6789,0.0,0.0,0.0,0.0,0.0,0.0,0.0,0.0,0.0,0.0,0.0,0.0,0.0,0.0,0.0,0.0,0.0,0.0,0.0,0.0,0.0,0.0,0.0,0.0,0.0,0.0,0.0,0.0,0.0,-0.5113,-0.5878,-0.6187,-0.7069,-0.7611,0.0,0.0,0.0,0.0,0.0,0.0,0.0,0.0,0.0,-0.9173,-0.9205,-0.9537,-1.0225,-1.036,-1.0493,-1.0628,-1.0688,-1.066,-1.0525,-1.0004,-1.0167,-1.0777,-0.9476,-0.8787,-0.8512,-0.7795,-0.7328,-0.7042,0.0,0.0,0.0,0.0,0.0,-0.5872,-0.6051,0.0,0.0,0.0,0.0,0.0,0.0,0.0,0.0,0.0,0.0,0.0,0.0,0.0,0.0,-0.7162,-0.8247,-0.9268,-0.9432,-0.8618,-0.7017,0.0,-0.1927,-0.0471,-0.0647,0.0,0.0,0.0,0.0,0.0,-0.6631,-0.6195,-0.6417,-0.8104,-0.8173,-0.8603,-0.9869,-0.9679,-0.9526,-0.9606,-0.9531,-0.9177,-0.846,-0.6362,-0.3436,0.0,0.0,0.0,0.0,0.0,0.0,0.0,0.0,0.0,0.0,0.0,0.0,0.0,0.0,0.0,0.0,0.0,0.0,0.0,0.0,0.0,0.0,0.0,0.0,0.0,0.0,0.0,0.0,-0.6007,-0.6629,-0.6963,-0.7843,-0.833,0.0,0.0,0.0,0.0,0.0,0.0,-0.9175,-0.8955,-0.9323,-1.0431,-1.0479,-1.0837,-1.1618,-1.1688,-1.1797,-1.1939,-1.1866,-1.1732,-1.1558,-1.1111,-1.1115,-1.1445,-1.0831,-1.0273,-0.9633,-0.7987,-0.7392,-0.7503,-0.736,-0.7124,-0.6822,-0.6375,-0.6526,-0.6988,-0.7104,-0.7004,-0.6876,-0.7201,0.0,-0.7423,-0.787,0.0,0.0,0.0,0.0,-0.5155,-0.5235,-0.6094,-0.7006,-0.7278,-0.8107,-0.8987,-0.9511,-0.9535,-0.8814,0.0,-0.4451,-0.2877,-0.2808,0.0,0.0,0.0,0.0,-0.6617,-0.7963,-0.74,-0.7576,-0.9401,-0.9059,-0.9247,-1.0603,-1.006,-0.9696,-0.9768,-0.9659,-0.9173,-0.8283,-0.6498,-0.3758,0.001,0.0,0.0,0.0,0.0,0.0,0.0,0.0,0.0,0.0,0.0,0.0,0.0,0.0,0.0,0.0,0.0,0.0,0.0,0.0,0.0,0.0,0.0,0.0,0.0,0.0,0.0,0.0,0.0,0.0,-0.6687,-0.7597,0.0,0.0,0.0,0.0,-1.0464,-1.0339,-1.0363,-1.0754,-1.0952,-1.0826,-1.0414,-1.1239,-1.1787,-1.1978,-1.2046,-1.2076,-1.2085,-1.178,-1.1581,-1.1482,-1.1093,-1.1394,-1.2198,-1.1414,-1.1361,-1.1725,-1.0175,-0.8759,-0.7631,-0.8005,-0.7711,-0.7088,-0.7046,-0.6756,-0.6377,-0.6639,-0.6804,-0.7027,-0.7863,-0.8193,-0.8268,-0.8489,-0.7909,0.0,0.0,-0.6716,-0.6149,-0.6655,-0.6385,-0.628,-0.7483,-0.7531,-0.7748,-0.9352,-0.9346,-0.9115,0.0,-0.9448,-0.9346,-0.9087,0.0,-0.8402,-0.9137,-0.847,-0.8225,-0.9189,-0.9421,-0.9524,-0.9596,-1.0006,-1.0266,-1.0244,-1.0132,-1.0046,-0.9986,-1.0033,-1.0048,-0.9967,-0.8243,-0.5569,-0.1931,-0.0647,0.0,0.0,0.0,0.0,0.0,0.0,0.0,0.0,0.0,0.0,0.0,0.0,0.0,0.0,0.0,0.0,0.0,0.0,0.0,0.0,0.0,0.0,0.0,0.0,0.0,0.0,0.0,0.0,-0.8334,-0.8876,0.0,0.0,-1.0271,-1.053,-1.0632,-1.0782,-1.0915,-1.1014,-1.0933,-1.1332,-1.2351,-1.2598,-1.2941,-1.3479,-1.3548,-1.3596,-1.3632,-1.3475,-1.3145,-1.2638,-1.2144,-1.1997,-1.2077,-1.1479,-1.1499,-1.1826,-1.0463,-0.9388,-0.8586,-0.8267,-0.8051,-0.7926,-0.7846,-0.7774,-0.7746,-0.7979,-0.7805,-0.7545,-0.7901,-0.8751,-0.9472,-0.8446,-0.8023,-0.7782,-0.7305,-0.7031,-0.6932,-0.7153,-0.7072,-0.7052,-0.7558,-0.7395,-0.7318,-0.8008,-0.8431,-0.875,-0.8947,-0.9589,-1.0077,-1.0011,-0.9295,-0.8982,-0.9776,-0.8846,-0.8381,-0.9283,-0.9125,-0.9237,-1.0034,-0.9825,-0.9931,-1.0705,-1.0324,-1.0023,-1.0008,-0.9414,-0.896,-0.8686,-0.7148,-0.4804,-0.1619,-0.0624,0.187,0.0,0.0,0.0,0.0,0.0,0.0,0.0,0.0,0.0,0.0,0.0,0.0,0.0,0.0,0.0,0.0,0.0,0.0,0.0,0.0,0.0,0.0,0.0,0.0,0.0,0.0,-0.8209,-0.9223,-0.9762,-1.0281,-1.0915,-1.1196,-1.1243,-1.1044,-1.1156,-1.1336,-1.1546,-1.1457,-1.202,-1.3423,-1.3529,-1.3817,-1.4344,-1.4405,-1.4446,-1.4467,-1.4314,-1.3984,-1.3481,-1.277,-1.2416,-1.2374,-1.1862,-1.1807,-1.1989,-1.1018,-1.0153,-0.9342,-0.8421,-0.8166,-0.8321,-0.8472,-0.8645,-0.8873,-0.9359,-0.9145,-0.863,-0.8707,-0.9532,-1.0256,-0.9179,-0.894,-0.899,-0.8757,-0.8381,-0.8083,-0.8216,-0.7852,-0.7489,-0.7575,-0.7429,-0.7374,-0.7763,-0.8249,-0.8742,-0.9083,-0.9723,-1.0215,-1.0291,-0.9742,-0.9496,-1.005,-0.9333,-0.8953,-0.9557,-0.9518,-0.9752,-1.0547,-1.0197,-1.0209,-1.1001,-1.0426,-1.0036,-1.004,-0.9256,-0.8683,-0.842,-0.6691,-0.4694,-0.2455,-0.086,0.1219,0.3833,0.0,0.0,0.0,0.0,0.0,0.0,0.0,0.0,0.0,0.0,0.0,0.0,0.0,0.0,0.0,0.0,0.0,0.0,0.0,0.0,0.0,0.0,0.0,-0.6261,-0.7587,-0.8639,-0.912,-1.0072,-1.0786,-1.1045,-1.1153,-1.1411,-1.1855,-1.1525,-1.1658,-1.2458,-1.2648,-1.2936,-1.3423,-1.3987,-1.4324,-1.4399,-1.4471,-1.4483,-1.4422,-1.4105,-1.3933,-1.3906,-1.2828,-1.2629,-1.3149,-1.2535,-1.2329,-1.238,-1.1971,-1.1053,-0.9808,-0.853,-0.8058,-0.8191,-0.8896,-0.9264,-0.955,-1.0563,-1.0638,-1.0279,-1.0298,-1.0478,-1.0653,-1.0676,-1.0694,-1.0902,-1.1746,-1.0821,-0.9638,-0.9906,-0.8755,-0.7544,-0.7653,-0.7652,-0.787,-0.8679,-0.8883,-0.9155,-1.0003,-1.0186,-1.0228,-1.0291,-1.0185,-1.0138,-1.0198,-1.0087,0.0,-1.0083,-1.0776,-1.1216,-1.1091,-1.1177,-1.1179,-1.0979,-1.0429,-1.0098,-1.0073,-0.9634,-0.9357,-0.9305,-0.7013,-0.5383,-0.46,-0.1617,-0.059,-0.1654,0.0,0.0,0.0,0.0,0.0,0.0,0.0,0.0,0.0,0.0,0.0,0.0,0.0,0.0,0.0,0.0,0.0,0.0,0.0,0.0,0.0,0.0,-0.5597,-0.5985,-0.7153,-0.823,-0.885,-0.9682,-1.0364,-1.084,-1.1212,-1.1415,-1.1451,-1.1804,-1.2127,-1.2344,-1.2846,-1.338,-1.3891,-1.4119,-1.425,-1.4338,-1.4588,-1.4874,-1.5192,-1.4899,-1.4771,-1.4721,-1.3562,-1.2875,-1.2586,-1.2022,-1.2051,-1.2415,-1.1721,-1.1154,-1.0585,-0.9402,-0.8572,-0.8058,-0.8297,-0.891,-0.9574,-0.9221,-1.0269,-1.1356,-0.9151,-1.0037,-1.1768,-1.0668,-1.0806,-1.1428,-1.1762,-1.1523,-1.1229,-1.151,-1.0784,-0.9893,-0.9448,-0.8886,-0.8372,-0.8027,-0.8463,-0.898,-0.9208,-0.9766,-1.0215,-1.0213,-1.0205,-1.0188,-1.02,-1.0173,0.0,-1.0106,-1.0279,-1.0377,-1.0247,-1.0315,-1.0302,-1.0145,-1.0079,-0.9882,0.0,-0.904,-0.8227,-0.7058,-0.5626,-0.4615,-0.4097,-0.2392,-0.2076,0.0,0.0,0.0,0.0,0.0,0.0,0.0,0.0,0.0,0.0,0.0,0.0,0.0,0.0,0.0,0.0,0.0,0.0,0.0,0.0,0.0,0.0,-0.6066,-0.6771,-0.6967,-0.7885,-0.882,-0.9564,-1.0493,-1.1176,-1.1363,-1.179,-1.1966,-1.1748,-1.2111,-1.252,-1.2801,-1.3302,-1.3847,-1.4418,-1.4551,-1.4648,-1.4711,-1.4899,-1.5124,-1.5327,-1.5172,-1.5096,-1.5059,-1.382,-1.31,0.0,-1.1968,-1.1831,-1.2106,-1.1824,-1.139,0.0,0.0,0.0,0.0,0.0,-0.9122,-0.9931,-0.9819,-1.0839,-1.1879,-1.0112,-1.0879,-1.2344,-1.1397,-1.1568,-1.2156,-1.2608,-1.2478,-1.2291,-1.2573,-1.1808,-1.0793,-1.0125,-0.9594,-0.9052,-0.8299,-0.88,-0.9421,-0.9442,0.0,0.0,-1.0157,-1.018,-1.0195,-1.0208,-1.0202,-1.018,-1.0101,-1.0109,-1.0065,-0.9984,-0.9986,-0.9971,-0.99,-0.9962,0.0,0.0,0.0,-0.8363,-0.7195,-0.6147,0.0,0.0,0.0,-0.4643,0.0,0.0,0.0,0.0,1.0069,1.1716,0.0,0.0,0.0,0.0,0.0,0.0,0.0,0.0,0.0,0.0,0.0,0.0,0.0,0.0,0.0,0.0,-0.7333,-0.8279,-0.8658,-0.9283,-0.9989,-1.0697,-1.1843,-1.2482,-1.2234,-1.2581,-1.269,-1.2384,-1.2565,-1.2954,-1.3545,0.0,0.0,0.0,0.0,-1.5225,-1.5322,-1.5349,-1.5325,-1.5263,-1.5204,-1.522,-1.5211,-1.3876,-1.3318,-1.3347,-1.2213,-1.1696,-1.1689,-1.2123,-1.1708,-1.0668,-0.9653,-0.8709,-0.8002,-0.8881,-0.9684,0.0,0.0,0.0,0.0,-1.199,-1.226,-1.2577,-1.2434,-1.2586,-1.2966,-1.3758,-1.348,-1.2995,-1.3304,-1.226,-1.0998,-1.0319,-1.0081,-0.9854,-0.9178,-0.959,-1.0118,-1.0193,-1.0191,-1.0173,-1.0128,-1.0166,-1.0209,-1.0205,-1.0218,-1.0186,-1.0113,-1.0113,-1.0121,-1.0104,0.0,0.0,-0.9997,-1.0006,-0.9982,-0.9925,-0.9438,-0.8998,-0.8636,-0.7721,-0.8258,-1.049,-0.8416,-0.7943,-0.9153,-0.4597,-0.1054,0.1648,0.8018,1.1082,0.0,0.0,0.0,0.0,0.0,0.0,0.0,0.0,0.0,0.0,0.0,0.0,0.0,0.0,0.0,-0.6589,-0.7395,-0.8371,-0.9819,-1.0248,-1.0503,-1.0784,-1.1733,-1.2343,-1.2287,-1.2701,-1.2898,-1.2787,-1.3445,-1.3901,-1.3971,-1.4625,0.0,-1.5372,-1.5254,-1.5275,-1.5457,-1.5578,-1.5834,-1.6231,0.0,0.0,-1.6249,-1.4435,-1.3585,-1.3517,-1.2366,-1.1912,-1.2024,-1.228,-1.1932,-1.1103,-0.9585,-0.853,-0.8062,-0.935,-1.0069,-1.0491,-1.1275,-1.2062,-1.255,-1.1478,-1.2053,-1.3057,-1.2536,-1.2871,0.0,-1.3821,-1.3821,-1.3718,-1.3828,-1.331,-1.2572,-1.1846,-1.1269,-1.0682,-1.0011,-0.9992,-1.013,-1.0181,-1.0195,-1.0207,-1.0171,-1.0181,-1.02,-1.0194,-1.0243,-1.0254,-1.0194,-1.0234,-1.0224,-1.0117,-1.0143,-1.0117,-1.002,-1.0044,-0.9891,-0.9467,-0.8347,-0.8016,-0.8741,-0.8214,-0.8977,-1.1237,-1.084,-1.1269,-1.2622,-0.4844,-0.1473,-0.212,0.3462,0.7407,0.0,0.0,0.0,0.0,0.0,0.0,0.0,0.0,0.0,0.0,0.0,-0.4555,0.0,0.0,-0.6782,-0.8226,-0.9129,-1.0097,-1.1372,-1.1873,-1.1984,-1.1698,-1.2474,-1.2989,-1.2818,-1.3589,-1.4065,-1.4012,-1.4635,-1.5037,-1.516,-1.5562,-1.5855,-1.5956,-1.598,-1.5987,-1.5947,-1.6046,-1.618,-1.6362,-1.6169,-1.6176,-1.6278,-1.4947,-1.4145,-1.376,-1.2871,-1.2316,-1.2003,-1.2071,-1.1732,-1.1051,-1.0191,-0.9512,-0.908,-0.9315,-1.0084,-1.1003,-1.092,-1.1781,-1.2808,-1.2157,-1.2557,-1.3261,-1.3018,-1.3284,-1.3688,-1.3883,-1.388,-1.3848,-1.4001,-1.3497,-1.2873,-1.2604,-1.2004,-1.1347,-1.0737,-1.0626,-1.0548,-1.0228,-1.0155,-1.0126,-1.0057,-1.0078,-1.0115,-1.0183,-1.0232,-1.0238,-1.0193,-1.0224,-1.0224,-1.0169,-1.0177,-1.0164,-1.0108,-1.0105,-0.9982,-0.9665,-0.8578,-0.8254,-0.8928,-0.8251,-0.8479,-0.9814,-1.0972,-1.1649,-1.1835,-0.8881,-0.6573,-0.4827,-0.1399,0.317,0.0,0.0,0.0,0.0,0.0,0.0,0.0,0.0,-0.5315,-0.539,-0.5467,-0.5767,-0.6641,-0.7246,-0.8134,-0.9715,-1.0881,-1.1855,-1.2612,-1.3099,-1.3203,-1.2741,-1.3284,-1.3674,-1.3679,-1.457,-1.524,-1.5418,-1.5768,-1.6114,-1.6354,-1.6427,-1.6485,-1.6543,-1.6738,-1.6712,-1.6532,-1.6554,-1.6448,-1.6262,-1.6262,-1.6179,-1.6037,-1.5339,-1.4729,-1.4156,-1.3412,-1.268,-1.1976,-1.1891,-1.1574,-1.1132,-1.1052,-1.0857,-1.0506,-0.9555,-1.0206,-1.1466,-1.0884,-1.1628,-1.2846,-1.294,-1.3086,-1.3261,-1.3259,-1.3456,-1.3698,-1.3715,-1.3739,-1.3786,-1.3987,-1.3396,-1.282,-1.2951,-1.2448,-1.1809,-1.1407,-1.1249,-1.0992,-1.0418,-1.0196,-1.0076,-0.9963,-0.9994,-1.0071,-1.0151,-1.0169,-1.019,-1.0228,-1.0228,-1.0211,-1.0199,-1.0202,-1.0202,-1.0195,-1.0141,-1.007,-0.9963,-0.9161,-0.8859,-0.9245,-0.8234,-0.7961,-0.8603,-1.0581,-1.1255,-1.0575,-1.2167,-1.0859,-0.6852,-0.4305,0.0503,-0.5699,-0.6511,-0.7416,-0.8349,-0.8472,-0.8233,0.0,0.0,-0.7691,-0.6434,-0.6585,-0.6947,-0.6818,-0.7847,-0.8953,-0.9698,-1.1015,-1.2131,-1.2708,-1.2695,-1.2806,-1.3327,-1.3363,-1.379,-1.4895,-1.5011,-1.5473,-1.6534,-1.6674,-1.6773,-1.6986,-1.685,-1.6866,-1.7093,-1.6977,-1.6917,-1.7032,-1.6857,-1.6686,-1.6543,-1.6474,-1.6394,-1.6243,-1.5446,-1.5056,-1.4903,-1.3634,-1.279,-1.2262,-1.2117,-1.2071,-1.2041,-1.1911,-1.1948,-1.1936,-1.1004,-1.0951,-1.1398,-1.1905,-1.2317,-1.2652,-1.2773,-1.2961,-1.304,-1.2503,-1.2931,-1.3482,-1.2927,-1.3335,-1.3934,-1.3771,-1.3396,-1.3047,-1.3011,-1.247,-1.2012,-1.2047,-1.1563,-1.1081,-1.0999,-1.051,-1.0109,-1.0085,-1.0137,-1.0145,-1.0048,-1.0078,-1.0155,-1.0262,-1.0299,-1.026,-1.0215,-1.0199,-1.0209,-1.0193,-1.0198,-1.009,-0.9844,-0.9282,-0.9223,-0.9789,-0.8565,-0.8599,-1.0113,-1.1122,-1.1799,-1.2223,-0.9675,-0.8408,-0.8216,-0.1907,0.2502,-0.7093,-0.797,-0.8829,0.0,-0.954,-0.9488,-0.954,-0.9824,-0.9659,-0.818,-0.8501,-0.8972,-0.862,-0.9275,-1.0441,0.0,-1.2839,-1.3559,-1.4738,-1.456,-1.4289,-1.4262,-1.4024,-1.4212,-1.5064,-1.543,-1.6033,-1.7003,-1.6662,-1.6482,-1.6733,-1.6522,-1.6515,-1.6733,-1.7075,-1.7167,-1.705,-1.6917,-1.6773,-1.6596,-1.6554,-1.6543,-1.6459,-1.5718,-1.4909,-1.4007,-1.3049,-1.2484,-1.2246,-1.2185,-1.2179,-1.2179,-1.2112,-1.2179,-1.2265,-1.1335,-1.1412,-1.1913,-1.1768,-1.2077,-1.2574,-1.2735,-1.2885,-1.2965,-1.2874,-1.314,-1.3474,-1.338,-1.3576,-1.3833,-1.3877,-1.3732,-1.3596,-1.3687,-1.3479,-1.3182,-1.2837,-1.2538,-1.2064,-1.1206,-1.0857,-1.0557,-1.0124,-1.0064,-1.0075,-1.0054,-1.0114,-1.0175,-1.0231,-1.0234,-1.0234,-1.0209,-1.069,-1.0781,-1.0256,-1.0664,-1.0656,-0.9961,-0.9482,-0.9237,-0.9261,-0.8528,-0.8328,-0.8717,-0.9998,-1.1039,-1.1801,-1.1073,-1.1069,-1.159,-0.5548,-0.1515,-0.8765,-0.9454,0.0,-1.0731,-1.0839,-1.0816,-1.0894,-1.1213,-1.1084,-0.9644,-0.9955,-1.0396,-1.0072,-1.0518,-1.157,-1.3491,-1.4069,-1.4696,-1.5843,-1.5833,-1.5465,-1.4899,-1.4553,-1.4603,-1.5221,-1.5681,-1.633,-1.7349,-1.6644,-1.627,-1.6524,-1.6264,-1.6236,-1.642,-1.7136,-1.7401,-1.7117,-1.7043,-1.6933,-1.6743,-1.6717,-1.6691,-1.6675,-1.6127,-1.5168,-1.3867,-1.3181,-1.2754,-1.2531,-1.2324,-1.2262,-1.2236,-1.2195,-1.2257,-1.2276,-1.1668,-1.1847,-1.23,-1.1711,-1.1905,-1.2423,-1.2585,-1.2754,-1.2871,-1.2856,-1.2991,-1.3201,-1.3452,-1.352,-1.3613,-1.391,-1.4009,-1.405,-1.4172,-1.4224,-1.4113,-1.3604,-1.3332,-1.2872,-1.1823,-1.1339,-1.0923,-1.0475,-1.0215,-1.01,-1.0155,-1.0172,-1.0195,-1.0195,-1.0192,-1.021,-1.0195,-1.0817,-1.0969,-1.0265,-1.0773,-1.0828,-1.006,-0.971,-0.9409,-0.9147,-0.8685,-0.828,-0.7923,-0.9313,-1.0456,-1.1376,-1.1965,-1.2617,-1.3179,-0.7823,-0.4469,-1.0399,0.0,-1.0974,-1.2306,-1.2719,-1.2582,-1.1674,-1.1845,-1.1812,-1.0508,-1.0489,-1.0663,-1.0589,-1.1287,-1.2004,-1.2483,-1.3974,-1.5056,-1.5034,-1.554,-1.5644,-1.4981,-1.4658,-1.4823,0.0,-1.5566,-1.6109,-1.7586,-1.6881,-1.6447,-1.6597,-1.6337,-1.6287,-1.6497,-1.7221,-1.7542,-1.7384,-1.7338,-1.7207,-1.7083,-1.6956,-1.6879,-1.6879,-1.6659,-1.616,-1.5393,-1.4664,-1.3959,-1.3314,-1.265,-1.2383,-1.2383,-1.2383,-1.2318,-1.2216,-1.2327,-1.2347,-1.2266,-1.2045,-1.2086,-1.2226,-1.2226,-1.2471,-1.2665,-1.1967,-1.2119,-1.2537,-1.2546,-1.282,-1.3251,-1.3845,-1.4141,-1.4273,-1.4206,-1.4295,-1.4375,-1.4282,-1.3654,-1.3128,-1.3198,-1.2027,-1.1087,-1.1327,-1.0763,-1.029,-1.029,-1.0233,-1.0194,-1.0209,-1.0202,-1.0202,-1.0191,-1.0273,-1.0309,-1.0208,-1.0214,-1.0195,-1.0102,-0.9967,-0.9913,-0.9959,-0.9202,-0.884,-0.8945,-0.9703,-1.0591,-1.159,-1.0904,-1.0909,-1.145,-0.6335,-0.4062,-1.0651,0.0,-1.1389,-1.2826,-1.2897,-1.2691,-1.2963,-1.2605,-1.2004,-1.131,-1.1314,-1.1463,-1.153,-1.214,-1.2976,-1.399,-1.4354,-1.4763,-1.554,-1.5836,-1.5871,-1.5662,-1.5786,0.0,0.0,0.0,0.0,-1.6857,-1.6172,-1.5454,-1.485,-1.5232,-1.5555,-1.5746,-1.6954,-1.7542,-1.7384,-1.7338,-1.7224,-1.7023,-1.6946,-1.6648,-1.6168,-1.6044,-1.558,-1.4821,-1.4586,-1.4381,-1.4234,-1.3968,-1.3889,-1.387,-1.3288,-1.303,-1.2941,-1.2448,-1.2241,-1.2226,-1.2221,-1.22,-1.2216,-1.2246,-1.2403,-1.2514,-1.2392,-1.2323,-1.2329,-1.2419,-1.2758,-1.3141,-1.3297,-1.3858,-1.4344,-1.4224,-1.4206,-1.4193,-1.4177,-1.3877,-1.3497,-1.3043,-1.2725,-1.2411,-1.2059,-1.1973,-1.1757,-1.1171,-1.0557,-1.0154,-1.0195,-1.0155,-1.0155,-1.0209,-1.0737,-1.0839,-1.0191,-1.0665,-1.0749,-1.0133,-0.9976,-0.9881,-0.9798,-0.9497,-0.925,-0.9076,-0.9254,-0.9751,-1.0542,-0.9791,-0.9706,-1.0147,-0.6601,-0.4688,-1.125,-1.1842,-1.2345,-1.3265,-1.3373,-1.3291,-1.3375,-1.2776,-1.2169,-1.2066,-1.2148,-1.2249,-1.2364,-1.2767,-1.338,-1.4314,-1.424,-1.4418,-1.5418,-1.6115,-1.6378,-1.6063,-1.6519,0.0,0.0,0.0,0.0,-1.693,-1.6248,-1.5446,-1.4686,-1.513,-1.5463,-1.5674,-1.6864,-1.7479,-1.7448,-1.7362,-1.7248,-1.7074,-1.7023,-1.6699,-1.6143,-1.615,-1.5812,-1.5198,-1.4947,-1.4861,-1.4893,-1.4625,-1.4515,-1.4498,-1.3982,-1.3749,-1.3633,-1.2876,-1.2613,-1.2614,-1.2298,-1.2221,-1.2277,-1.2302,-1.2368,-1.2487,-1.2722,-1.2522,-1.229,-1.2746,-1.2997,-1.3197,-1.3407,-1.3938,-1.4417,-1.4301,-1.4245,-1.4175,-1.4082,-1.398,-1.3768,-1.3346,-1.3176,-1.302,-1.2826,-1.2564,-1.2167,-1.1592,-1.0699,-1.013,-1.0155,-1.0379,-1.0415,-1.0118,-1.0889,-1.1052,-1.0137,-1.0608,-1.0693,-1.0105,-0.9944,-0.98,-0.9659,-0.9662,-0.9503,-0.9144,-0.8944,-0.92,-0.9935,-0.8527,-0.82,-0.8851,-0.5924,-0.4334,-1.2163,-1.3133,-1.3751,-1.3663,-1.4084,-1.4214,-1.2939,-1.2358,-1.2221,-1.2753,-1.2856,-1.2917,0.0,0.0,-1.326,-1.3496,-1.3653,-1.4005,-1.4674,-1.6238,-1.7047,0.0,0.0,0.0,0.0,0.0,0.0,-1.776,0.0,-1.6321,-1.5901,-1.5917,-1.5996,-1.6184,-1.6934,-1.7384,-1.7512,-1.7427,-1.7322,-1.7199,-1.7174,-1.7041,-1.6815,-1.6905,-1.6785,-1.647,-1.5749,-1.5417,-1.5319,-1.4674,-1.441,-1.441,-1.4428,-1.4381,-1.4202,-1.3543,-1.3358,-1.3288,-1.2332,-1.2179,-1.2419,-1.2374,-1.2427,-1.2556,-1.2869,-1.259,-1.2374,-1.3346,-1.3401,-1.3329,-1.4041,-1.4374,-1.4488,-1.4416,-1.4374,-1.432,-1.4068,-1.3938,-1.3927,-1.4049,-1.3382,-1.2964,-1.3582,-1.2556,-1.1621,-1.1518,-1.0701,-1.0091,-1.0098,-1.0757,-1.089,-1.0011,-1.0718,-1.0909,-1.0074,-1.0057,-1.0064,-0.9992,-0.9831,-0.9708,-0.9592,-0.9669,-0.9527,-0.918,-0.8766,-0.8939,-0.9653,-0.7158,-0.647,-0.7443,-0.4351,-0.3126,-1.2794,-1.3418,-1.369,-1.3853,-1.3685,-1.3281,-1.244,-1.1303,-1.0771,-1.2047,-1.1794,-1.1761,0.0,0.0,0.0,-1.3655,-1.3462,0.0,-1.4129,-1.5399,0.0,-1.7134,0.0,-1.8261,-1.9153,-1.8134,0.0,0.0,-1.687,-1.5704,-1.4352,-1.5539,-1.6264,-1.6258,-1.7182,-1.7612,-1.7512,-1.7362,-1.733,-1.7329,-1.6993,-1.6892,-1.7002,-1.6543,-1.6425,-1.6554,-1.6103,-1.6053,-1.6234,-1.5973,-1.5921,-1.5951,-1.5308,-1.4745,-1.4217,-1.3436,-1.2829,-1.2368,-1.2215,-1.2363,-1.2703,-1.3134,-1.2963,-1.2572,-1.2506,-1.2171,-1.1909,-1.2316,-1.2651,-1.2974,-1.3268,-1.3947,-1.4533,-1.4289,-1.4162,-1.4101,-1.4082,-1.3853,-1.3686,-1.3724,-1.3748,-1.3719,-1.3647,-1.2908,-1.2144,-1.1598,-1.074,-1.0149,-1.0047,-1.0192,-1.0268,-1.0078,-1.0311,-1.0332,-0.996,-0.9977,-0.9929,-0.9719,-0.9246,-0.9135,-0.95,-0.8846,-0.8576,-0.8812,-0.8326,-0.8004,-0.7859,-0.6692,-0.577,-0.506,-0.3753,-0.2728,-1.3075,-1.3629,-1.3979,-1.3968,-1.3571,-1.3005,-1.2231,-1.1154,-1.0653,-1.1778,-1.1877,0.0,0.0,0.0,0.0,0.0,0.0,0.0,-1.3853,-1.5296,-1.6428,0.0,-1.7729,0.0,-1.9059,-1.8143,-1.7432,0.0,-1.6874,-1.6295,-1.5375,-1.6193,-1.6736,-1.6965,-1.7289,-1.7394,-1.724,-1.7059,-1.7034,-1.7076,-1.6738,-1.6633,-1.6747,-1.634,-1.6246,-1.6409,0.0,-1.6262,-1.6448,-1.6382,-1.6355,-1.6324,-1.5802,-1.5391,-1.4991,-1.4126,-1.3663,-1.3452,-1.3144,-1.3136,-1.3209,-1.3207,-1.299,-1.2722,-1.2662,-1.2603,-1.2557,-1.2606,-1.2813,-1.3112,-1.3435,-1.369,-1.3924,-1.4229,-1.4092,-1.3945,-1.3995,-1.3809,-1.3576,-1.3509,-1.3789,-1.3988,-1.3879,-1.3091,-1.2365,-1.2023,-1.0937,-1.0113,-1.0018,-1.033,-1.0423,-1.0058,-1.0405,-1.0468,-0.9945,-0.9931,-0.9857,-0.9661,-0.9189,-0.8885,-0.8801,-0.848,-0.8202,-0.7954,-0.7708,-0.7323,-0.6806,-0.5986,-0.4979,-0.3802,-0.3192,-0.2402,-1.3323,-1.3884,-1.4412,-1.3964,-1.3599,-1.3132,-1.2182,-1.1488,-1.1218,-1.1793,0.0,-1.2734,-1.2255,-1.2588,-1.2873,-1.2742,0.0,-1.3092,-1.3998,-1.558,-1.6584,-1.6448,-1.7642,-1.8418,-1.825,-1.7731,-1.7183,-1.6608,-1.7014,-1.7287,-1.7276,-1.7117,-1.7265,-1.7811,-1.7338,-1.7066,-1.6986,-1.6815,-1.6712,-1.6722,-1.6517,-1.6382,-1.6355,-1.6231,-1.6191,-1.6194,0.0,0.0,-1.6274,-1.6301,-1.6219,-1.6123,-1.6024,-1.595,-1.5841,-1.5016,-1.4818,-1.4912,-1.4172,-1.381,-1.3545,-1.3009,-1.2878,-1.2924,-1.2995,-1.3284,-1.3521,-1.3325,-1.3345,-1.3508,-1.4015,-1.3597,-1.3287,-1.4174,-1.4113,-1.3849,-1.3888,-1.3743,-1.3559,-1.3412,-1.3639,-1.389,-1.3974,-1.3107,-1.2383,-1.2403,-1.1162,-1.0189,-1.0039,-1.0665,-1.0826,-1.0006,-1.0661,-1.0813,-0.9969,-0.9916,-0.9844,-0.9666,-0.9296,-0.874,-0.7991,-0.8197,-0.7884,-0.6876,-0.6816,-0.6579,-0.6099,-0.5114,-0.4125,-0.3118,-0.2735,-0.2139,-1.4153,-1.445,-1.4426,-1.3813,-1.3696,-1.3366,-1.2124,-1.161,0.0,0.0,-1.2042,-1.2158,-1.2057,-1.2554,0.0,-1.2801,0.0,0.0,0.0,0.0,-1.6744,0.0,0.0,0.0,0.0,0.0,0.0,0.0,0.0,0.0,-1.6603,-1.699,-1.7432,-1.7861,-1.7681,-1.7526,-1.7392,-1.7313,-1.7126,-1.6876,-1.6554,-1.649,-1.6617,-1.6258,-1.6151,-1.6222,0.0,0.0,-1.6207,-1.6274,-1.6301,-1.6246,-1.6026,-1.5581,-1.5083,-1.48,-1.3975,-1.3001,-1.3017,-1.2682,-1.2406,-1.3315,-1.3287,-1.2871,-1.2668,-1.2991,-1.332,-1.2806,-1.3289,-1.3918,-1.382,-1.388,-1.4008,-1.419,-1.4188,-1.4096,-1.3995,-1.3796,-1.3545,-1.3346,-1.3492,-1.3497,-1.3037,-1.2916,-1.2529,-1.1515,-1.1169,-1.0781,-1.0167,-1.0214,-1.0215,-1.0018,-1.0232,-1.0251,-0.9935,-0.9948,-0.9834,-0.9483,-0.8822,-0.8413,-0.8323,-0.7126,-0.6353,-0.6096,-0.5189,-0.4828,-0.5052,-0.4202,-0.3282,-0.2317,-0.2652,-0.2029,-1.5079,-1.5389,-1.5241,-1.4499,-1.3964,-1.3344,-1.2339,0.0,0.0,0.0,-1.2188,-1.2284,-1.1791,0.0,0.0,0.0,0.0,0.0,0.0,0.0,0.0,0.0,0.0,0.0,0.0,0.0,0.0,0.0,0.0,0.0,-1.7243,-1.7662,-1.7738,-1.728,-1.7631,-1.7522,-1.6926,-1.7002,-1.6876,-1.6591,-1.6328,-1.6219,-1.6274,-1.5968,-1.5898,-1.594,-1.5909,0.0,-1.5896,-1.5868,-1.5839,-1.5754,-1.5463,-1.5301,-1.5178,-1.4921,-1.454,-1.4033,-1.337,-1.3043,-1.2917,-1.2753,-1.2966,-1.3127,-1.2482,-1.3215,-1.4039,-1.2785,-1.2991,-1.3549,-1.3378,-1.286,-1.2554,-1.3182,-1.3298,-1.3243,-1.3139,-1.3285,-1.3379,-1.3226,-1.3345,-1.3421,-1.3223,-1.3014,-1.2717,-1.2169,-1.1523,-1.0945,-1.0512,-1.0254,-1.0096,-1.0059,-1.0134,-1.0156,-1.0061,-1.0053,-0.9916,-0.9633,-0.9015,-0.8437,-0.79,-0.6933,-0.6082,-0.534,-0.4491,-0.4232,-0.4654,-0.3692,-0.305,-0.2729,-0.2794,-0.2269,-1.5774,-1.6076,-1.5941,-1.5392,-1.4433,-1.3477,-1.2993,-1.2345,0.0,0.0,-1.2334,-1.2364,-1.1396,0.0,-1.2573,0.0,0.0,0.0,0.0,0.0,0.0,0.0,0.0,0.0,0.0,0.0,0.0,0.0,0.0,0.0,-1.8059,-1.8164,-1.7832,-1.6935,-1.7459,-1.7406,-1.6633,-1.6722,-1.6644,-1.6355,-1.6163,-1.6039,-1.5957,-1.5841,-1.574,-1.5696,-1.5667,0.0,0.0,-1.5551,-1.5507,-1.5404,-1.5134,-1.5195,-1.5448,-1.5179,-1.5122,-1.5009,-1.3795,-1.3435,-1.3282,-1.2179,-1.2492,-1.3136,-1.2354,-1.3314,-1.4375,-1.278,-1.2743,-1.3112,-1.2946,-1.2022,-1.1334,-1.2212,-1.254,-1.2581,-1.237,-1.2885,-1.3346,-1.321,-1.3312,-1.3477,-1.3601,-1.326,-1.2974,-1.295,-1.1889,-1.102,-1.0809,-1.0288,-0.995,-0.9994,-1.0125,-1.0181,-1.0125,-1.011,-1.0003,-0.9782,-0.9357,-0.8667,-0.7624,-0.7028,-0.6059,-0.4705,-0.4138,-0.4025,-0.4348,-0.3495,-0.3138,-0.3234,-0.3045,-0.2577,-1.5898,-1.5978,-1.5694,-1.5927,-1.5149,-1.4326,-1.4374,0.0,0.0,-1.2151,-1.2158,-1.1907,-1.0782,-1.1644,-1.2378,-1.1974,0.0,-1.4154,0.0,0.0,0.0,0.0,0.0,0.0,0.0,0.0,0.0,0.0,0.0,0.0,0.0,-1.7691,-1.7486,-1.7602,-1.7422,-1.7368,-1.7392,-1.7175,-1.6901,-1.657,-1.6436,-1.6289,-1.6166,-1.6289,-1.6052,-1.5624,0.0,0.0,0.0,-1.5681,-1.5782,-1.5911,-1.5566,-1.5418,-1.5389,-1.5298,-1.464,-1.3732,-1.3413,-1.276,-1.2092,-1.2198,-1.2283,-1.2288,-1.2154,-1.2704,-1.3205,-1.2347,-1.2685,-1.3177,-1.2673,-1.252,-1.2445,-1.2201,-1.2782,-1.3204,-1.2542,-1.307,-1.3606,-1.3477,-1.3526,-1.3605,-1.3682,-1.3596,-1.3374,-1.2895,-1.1984,-1.1197,-1.0767,-0.9922,-0.9437,-0.9619,-0.998,-1.0097,-0.9866,-1.0006,-0.9961,-0.9646,-0.9571,-0.9113,-0.8174,-0.7044,-0.574,-0.4277,-0.3909,-0.3773,-0.3871,-0.3704,-0.3407,-0.302,-0.3303,-0.2754,-1.5718,-1.6422,-1.638,-1.539,-1.4685,-1.4057,-1.3431,0.0,-1.2114,-1.2198,-1.2251,-1.2077,-1.152,-1.1948,-1.238,-1.2379,-1.2924,0.0,0.0,0.0,0.0,0.0,0.0,0.0,0.0,0.0,0.0,0.0,0.0,0.0,0.0,-1.8917,-1.8651,-1.8087,-1.8272,-1.8061,-1.7392,-1.732,-1.7126,-1.6841,-1.6581,-1.6409,-1.6316,-1.6289,-1.6052,-1.5667,0.0,0.0,0.0,-1.5179,-1.5179,-1.5179,-1.4935,-1.4949,-1.5072,-1.4994,-1.467,-1.4237,-1.3682,-1.3154,-1.2716,-1.2493,-1.2428,-1.2398,-1.2176,-1.3064,-1.3815,-1.2253,-1.238,-1.2885,-1.2339,-1.1995,-1.1569,-1.0685,-1.1417,-1.2157,-1.1599,-1.2467,-1.3329,-1.3278,-1.3396,-1.351,-1.3478,-1.3428,-1.334,-1.3143,-1.2405,-1.1675,-1.107,-1.0362,-0.978,-0.946,-0.9707,-0.9849,-0.9752,-0.977,-0.98,-0.9784,-0.9627,-0.9325,-0.8829,-0.7752,-0.6415,-0.4771,-0.4486,-0.4265,-0.4047,-0.4044,-0.4105,-0.4207,-0.3925,-0.2967,-1.5527,-1.6285,-1.6223,-1.5161,-1.4401,-1.3702,0.0,0.0,-1.196,-1.2158,-1.2251,-1.2215,-1.1999,-1.2179,-1.2455,-1.2732,-1.3022,-1.3549,-1.4606,0.0,0.0,0.0,0.0,0.0,0.0,0.0,0.0,0.0,0.0,0.0,0.0,-1.9953,-1.9736,-1.8683,-1.8776,-1.8504,-1.7747,-1.746,-1.7264,-1.7117,-1.6712,-1.6611,-1.6776,-1.6382,-1.6146,-1.6023,0.0,0.0,0.0,-1.4994,-1.4949,-1.4918,-1.4746,-1.4763,-1.4918,-1.4763,-1.4669,-1.4474,-1.3802,-1.3421,-1.3155,-1.2881,-1.2799,-1.2759,-1.2356,-1.3116,-1.3753,-1.2126,-1.2052,-1.2351,-1.199,-1.1621,-1.1101,-0.9958,-1.07,-1.1519,-1.1026,-1.1955,-1.2929,-1.3016,-1.3192,-1.3312,-1.3278,-1.3227,-1.321,-1.3312,-1.2605,-1.1918,-1.1548,-1.0878,-1.0175,-0.946,-0.9554,-0.9619,-0.9467,-0.9495,-0.9498,-0.9486,-0.9413,-0.9199,-0.8781,-0.797,-0.6523,-0.4365,-0.4577,-0.4442,-0.3871,-0.4217,-0.4749,-0.5396,-0.4267,-0.2744,-1.5281,-1.5193,-1.4757,-1.5662,-1.4642,-1.3457,0.0,0.0,-1.2307,-1.205,-1.2107,-1.2137,-1.1943,-1.2234,-1.2617,-1.2953,-1.3108,-1.3633,-1.4918,0.0,0.0,0.0,0.0,0.0,0.0,0.0,0.0,0.0,0.0,0.0,0.0,-2.0334,-2.0317,-1.9509,-1.8716,-1.8451,-1.8773,-1.7658,-1.7199,-1.7384,-1.6841,-1.6986,-1.7662,-1.6654,-1.6462,0.0,0.0,0.0,0.0,-1.5328,-1.5358,-1.5492,-1.5328,-1.5163,-1.4982,-1.4856,-1.4465,-1.3967,-1.3602,-1.3285,-1.3061,-1.3301,-1.3389,-1.3283,-1.2772,-1.253,-1.2342,-1.1999,-1.1762,-1.1615,-1.1615,-1.1703,-1.1546,-1.0596,-1.121,-1.1805,-1.1151,-1.1741,-1.2501,-1.2846,-1.2916,-1.2968,-1.3158,-1.3034,-1.3015,-1.3346,-1.2439,-1.181,-1.215,-1.1374,-1.0495,-0.9683,-0.9602,-0.9421,-0.8943,-0.9153,-0.9073,-0.8553,-0.8883,-0.8693,-0.7758,-0.7326,-0.5659,-0.2586,-0.3831,-0.4052,-0.3119,-0.4107,-0.521,-0.6323,-0.4127,-0.1886,-1.3749,-1.4295,-1.4444,-1.4311,-1.4105,-1.3755,-1.3043,0.0,-1.2719,-1.236,-1.242,-1.2412,-1.199,-1.2277,-1.253,-1.239,-1.2772,-1.3496,0.0,0.0,0.0,0.0,0.0,0.0,0.0,0.0,0.0,0.0,0.0,0.0,0.0,0.0,-1.932,-1.9574,-1.9723,-1.9448,-1.866,-1.8109,-1.7698,-1.7384,-1.6712,-1.6653,-1.7072,-1.6437,0.0,0.0,0.0,0.0,0.0,-1.5283,-1.5224,-1.5134,-1.5072,-1.4932,-1.4763,-1.4574,-1.4305,-1.3967,-1.3682,-1.3465,-1.3395,-1.3643,-1.3611,-1.3401,-1.3038,-1.2866,-1.2653,-1.1863,-1.1608,-1.1593,-1.1601,-1.163,-1.1475,-1.0708,-1.1192,-1.1644,-1.1119,-1.1668,-1.2313,-1.2508,-1.2676,-1.2804,-1.2909,-1.2909,-1.2944,-1.3103,-1.2709,-1.2257,-1.1892,-1.1156,-1.0556,-1.0316,-0.9421,-0.8756,-0.851,-0.8568,-0.865,-0.8708,-0.8647,-0.8541,-0.8391,-0.8433,-0.7597,-0.5744,-0.5455,-0.5585,-0.6106,-0.4907,-0.4356,-0.4371,-0.257,-0.0608,-1.2803,-1.3372,-1.3599,-1.3455,-1.3533,0.0,0.0,-1.2797,-1.2977,-1.2724,-1.2818,-1.2866,-1.2557,-1.272,-1.2869,-1.272,-1.2992,0.0,0.0,0.0,0.0,0.0,0.0,0.0,0.0,0.0,0.0,0.0,0.0,0.0,0.0,0.0,-1.8682,-1.9022,-1.9745,-1.991,-1.951,-1.8739,-1.8227,-1.795,-1.7055,-1.6786,-1.7136,-1.648,0.0,0.0,0.0,0.0,0.0,-1.5358,-1.5254,-1.5088,-1.4966,-1.4825,-1.4683,-1.4461,-1.4287,-1.4111,-1.3868,-1.3769,-1.3749,-1.3894,-1.3591,-1.313,-1.2856,-1.2639,-1.2394,-1.1738,-1.1593,-1.1652,-1.1872,-1.1732,-1.1453,-1.1204,-1.1254,-1.1299,-1.1085,-1.1391,-1.1788,-1.2004,-1.2164,-1.232,-1.2498,-1.2533,-1.2607,-1.2869,-1.2738,-1.2444,-1.1875,-1.1346,-1.0832,-1.0303,-0.9416,-0.8677,-0.8259,-0.8137,-0.8164,-0.8329,-0.8052,-0.7947,-0.8126,-0.8288,-0.7692,-0.6242,-0.4906,-0.4629,-0.5414,-0.406,-0.2962,-0.2064,-0.0824,0.0762,0.0,-1.2431,-1.2365,0.0,0.0,0.0,0.0,-1.2887,0.0,-1.3119,-1.3277,-1.3413,-1.3394,-1.3412,-1.3462,-1.3586,-1.3542,0.0,0.0,0.0,0.0,0.0,0.0,0.0,0.0,0.0,0.0,0.0,0.0,0.0,0.0,0.0,-1.8409,-1.814,-1.9034,-1.9932,-2.0833,-1.9451,-1.8785,-1.8846,-1.7691,-1.7355,-1.7697,-1.6718,0.0,0.0,0.0,0.0,0.0,-1.5536,-1.5433,-1.5283,-1.5088,-1.4904,-1.4683,-1.4493,-1.4429,-1.4351,-1.4163,-1.4084,-1.4052,-1.3946,-1.3388,-1.265,-1.2297,-1.1945,-1.1681,-1.1681,-1.1659,-1.174,-1.2288,-1.1916,-1.1497,-1.1851,-1.136,-1.0873,-1.1038,-1.0991,-1.1038,-1.14,-1.1497,-1.1608,-1.2003,-1.1982,-1.2123,-1.2681,-1.2581,-1.2332,-1.2036,-1.1749,-1.1125,-0.9903,-0.9528,-0.9037,-0.8252,-0.7895,-0.7673,-0.7591,-0.7223,-0.7053,-0.7157,-0.719,-0.6457,-0.4868,-0.3082,-0.2076,-0.1901,-0.2079,-0.1316,0.0291,0.0907,0.2057,-1.1073,0.0,-1.221,-1.2529,-1.2857,-1.3105,0.0,-1.3244,0.0,0.0,0.0,0.0,0.0,-1.3086,-1.3403,-1.2726,-1.3165,0.0,0.0,0.0,0.0,0.0,0.0,0.0,0.0,0.0,0.0,0.0,0.0,0.0,0.0,0.0,-1.7995,-1.8552,-1.9204,-1.952,-1.9373,-1.9825,-1.9547,-1.8493,-1.7797,-1.7338,-1.7091,-1.6483,0.0,0.0,0.0,0.0,-1.5448,-1.5609,-1.5477,-1.5238,-1.5269,-1.5058,-1.4683,-1.4651,-1.4461,-1.4222,-1.413,-1.4013,-1.3795,-1.3361,-1.3063,-1.2745,-1.2144,-1.1804,-1.1615,-1.1623,-1.1601,-1.163,-1.1769,-1.1605,-1.1396,-1.1315,-1.1221,-1.1085,-1.0968,-1.0991,-1.1085,-1.1247,-1.1347,-1.1505,-1.1666,-1.1988,-1.2235,-1.2332,-1.2138,-1.1942,-1.1858,-1.0996,-1.0446,-1.0519,-0.9536,-0.8911,-0.9021,-0.8355,-0.7795,-0.7477,-0.7162,-0.6926,-0.6757,-0.7129,-0.7284,-0.7128,-0.6242,-0.4204,-0.1002,-0.2209,-0.1507,0.0967,0.1186,0.2233,-1.0777,-1.1445,-1.1972,-1.224,-1.2689,-1.3105,-1.3261,-1.3346,-1.3379,0.0,0.0,0.0,0.0,0.0,0.0,0.0,0.0,0.0,0.0,0.0,0.0,0.0,0.0,0.0,0.0,0.0,0.0,0.0,0.0,0.0,0.0,0.0,-1.7756,-1.8133,-1.8943,-1.9465,-1.9641,-2.0188,-1.9958,-1.8884,-1.8108,-1.739,-1.6763,-1.634,0.0,0.0,0.0,0.0,-1.5448,-1.5507,-1.5403,-1.5253,-1.5193,-1.5011,-1.4746,-1.4746,-1.4556,-1.43,-1.4369,-1.4065,-1.3565,-1.2991,-1.2796,-1.2719,-1.2144,-1.2031,-1.2105,-1.2106,-1.1972,-1.1927,-1.225,-1.1699,-1.1132,-1.1329,-1.1128,-1.0873,-1.0897,-1.0968,-1.1015,-1.1085,-1.1141,-1.1136,-1.107,-1.1201,-1.1285,-1.1158,-1.109,-1.1014,-1.0889,-1.0281,-0.9869,-0.9881,-0.91,-0.8661,-0.8743,-0.8238,-0.7713,-0.7293,-0.6897,-0.6658,-0.6612,-0.6554,-0.6455,-0.6295,-0.425,-0.2255,-0.0377,0.0704,0.0928,0.0374,0.0729,0.0683,-1.0849,-1.1347,-1.171,-1.2128,-1.2588,-1.2997,-1.3244,-1.3346,-1.3379,0.0,0.0,0.0,0.0,-1.3312,0.0,0.0,0.0,0.0,0.0,0.0,0.0,0.0,0.0,0.0,0.0,0.0,0.0,0.0,0.0,0.0,0.0,0.0,0.0,-1.7526,-1.8511,-1.9395,-2.0066,-2.0385,-2.0233,-1.9597,-1.8572,-1.762,-1.6685,-1.6292,-1.5955,0.0,0.0,0.0,-1.5551,-1.5388,-1.5283,-1.5222,-1.5056,-1.4932,-1.4808,-1.4839,-1.4683,-1.4465,-1.4477,-1.4059,-1.3418,-1.2661,-1.2525,-1.2581,-1.2132,-1.2318,-1.2706,-1.2719,-1.2398,-1.2198,-1.2765,-1.1794,-1.084,-1.1394,-1.0971,-1.051,-1.0729,-1.0825,-1.0873,-1.092,-1.0897,-1.075,-1.0403,-1.0243,-1.0118,-0.9881,-0.9943,-0.9957,-0.9779,-0.9612,-0.931,-0.8805,-0.8589,-0.8347,-0.8052,-0.785,-0.7539,-0.703,-0.6589,-0.6378,-0.6363,-0.5725,-0.5032,-0.4303,-0.1008,0.0303,-0.0478,0.3594,0.3269,-0.1088,-0.0029,-0.1179,-1.0485,-1.0963,-1.1439,-1.2204,-1.2706,-1.3103,-1.3261,-1.3346,-1.3396,0.0,0.0,0.0,0.0,-1.3363,0.0,0.0,0.0,0.0,0.0,0.0,0.0,0.0,0.0,0.0,0.0,0.0,0.0,0.0,0.0,0.0,0.0,0.0,0.0,-1.7589,-1.8427,-1.8651,-1.8203,-1.9836,-2.0496,-2.0091,-1.935,-1.8371,-1.7166,-1.6493,-1.6093,0.0,0.0,-1.5477,-1.5814,-1.5522,-1.5224,-1.4994,-1.5284,-1.5163,-1.4839,-1.5056,-1.4963,-1.4631,-1.3871,-1.3577,-1.3363,-1.2102,-1.202,-1.233,-1.1629,-1.2063,-1.2777,-1.2706,-1.2327,-1.1889,-1.1646,-1.1154,-1.0708,-1.0679,-1.0464,-1.0273,-1.0299,-1.0498,-1.0632,-1.0656,-1.0705,-1.057,-1.0046,-1.0058,-0.9982,-0.9626,-0.9343,-0.9265,-0.951,-0.9031,-0.864,-0.8568,-0.8421,-0.8138,-0.7705,-0.7598,-0.7275,-0.664,-0.6611,-0.6248,-0.5373,-0.5002,-0.4486,-0.3747,-0.2645,-0.2287,-0.2702,0.1006,0.0641,-0.3417,-0.0644,-0.1043,-1.057,-1.0987,-1.1408,-1.1972,-1.2514,-1.2944,-1.3141,-1.3244,-1.3379,-1.3709,0.0,0.0,0.0,0.0,0.0,0.0,0.0,0.0,0.0,0.0,0.0,0.0,0.0,0.0,0.0,0.0,0.0,0.0,0.0,0.0,0.0,0.0,0.0,0.0,-1.7883,-1.8087,-1.8228,-1.8898,-1.9086,-1.8744,-1.8539,-1.7817,-1.6653,-1.6302,-1.6067,-1.5913,0.0,-1.5507,-1.5926,-1.5536,-1.5329,-1.5254,-1.5389,-1.5239,-1.4904,-1.4732,-1.4522,-1.4216,-1.3346,-1.2777,-1.2305,-1.1616,-1.1788,-1.2171,-1.178,-1.2351,-1.3045,-1.2773,-1.2337,-1.1926,-1.1894,-1.1078,-1.0314,-1.0521,-1.0224,-0.9957,-1.0059,-1.0361,-1.0597,-1.0548,-1.051,-1.0297,-0.9676,-0.9377,-0.9047,-0.8541,-0.8402,-0.843,-0.8678,-0.8518,-0.8298,-0.8088,-0.8013,-0.7811,-0.7403,-0.7294,-0.6966,-0.6386,-0.5841,-0.5145,-0.422,-0.3775,-0.3752,-0.4185,-0.147,-0.1608,-0.4763,-0.0148,-0.0717,-0.6002,-0.409,-0.4931,-1.0705,-1.1048,-1.1355,-1.1833,-1.2421,-1.2928,-1.3121,-1.338,-1.3696,-1.4232,0.0,0.0,0.0,0.0,0.0,0.0,0.0,0.0,0.0,0.0,0.0,0.0,0.0,0.0,0.0,0.0,0.0,0.0,0.0,0.0,0.0,0.0,0.0,0.0,-1.7721,-1.7855,-1.8286,-1.7932,-1.7791,-1.7843,-1.7769,-1.7199,-1.6182,-1.6015,-1.5851,-1.5659,-1.5199,-1.5301,-1.5768,-1.5315,-1.5272,-1.5433,-1.5359,-1.5239,-1.4996,-1.4529,-1.4173,-1.3794,-1.313,-1.2242,-1.1402,-1.1413,-1.1671,-1.1991,-1.2015,-1.2602,-1.315,-1.2583,-1.2224,-1.2006,-1.2093,-1.1069,-1.0084,-1.0378,-1.0044,-0.9684,-0.9854,-1.0211,-1.0436,-1.0336,-1.0273,-1.0021,-0.9283,-0.8728,-0.8231,-0.7647,-0.7618,-0.7705,-0.7849,-0.7984,-0.7927,-0.7627,-0.7569,-0.7393,-0.7077,-0.6867,-0.6648,-0.6364,-0.5284,-0.4323,-0.356,-0.29,-0.2994,-0.3884,-0.0377,-0.1089,-0.6236,-0.1361,-0.2361,-0.8717,-0.736,-0.8415,-1.0656,-1.092,-1.1187,-1.1903,-1.2712,-1.3345,-1.3357,-1.4014,-1.4669,-1.4972,0.0,0.0,0.0,0.0,0.0,0.0,0.0,0.0,0.0,0.0,0.0,0.0,0.0,0.0,0.0,0.0,0.0,0.0,0.0,0.0,0.0,0.0,0.0,0.0,0.0,-1.8096,-1.7403,-1.7182,-1.7636,-1.8799,-1.7934,-1.7145,-1.6453,-1.5757,-1.5326,-1.5031,-1.4582,-1.4665,-1.511,-1.4609,-1.4718,-1.5208,-1.5222,-1.5208,-1.5147,-1.4921,-1.4447,-1.3822,-1.3256,-1.239,-1.1522,-1.1632,-1.1649,-1.1698,-1.2006,-1.2442,-1.2687,-1.1908,-1.1827,-1.1895,-1.1402,-1.0795,-1.0223,-0.9995,-0.9709,-0.9511,-0.955,-0.9854,-1.0046,-0.9814,-0.9944,-0.9816,-0.8899,-0.8417,-0.7993,-0.7569,-0.7303,-0.7205,-0.7403,-0.7344,-0.7285,-0.7225,-0.7127,-0.6927,-0.6582,-0.6268,-0.6275,-0.6729,-0.5574,-0.4587,-0.3885,-0.2984,-0.2196,-0.1557,-0.1033,-0.2713,-0.6636,-0.346,-0.5239,-1.1541,-0.8726,-0.8847,-1.0681,-1.1221,-1.1866,-1.2403,-1.3544,-1.4334,-1.3628,-1.4136,-1.4764,-1.4786,-1.523,0.0,0.0,0.0,0.0,0.0,0.0,0.0,0.0,0.0,0.0,0.0,0.0,0.0,0.0,0.0,0.0,0.0,0.0,0.0,0.0,0.0,0.0,0.0,0.0,-1.8319,-1.8054,-1.7362,-1.7233,-1.7663,-1.7353,-1.6753,-1.5995,-1.5989,-1.59,-1.5764,-1.4837,-1.4952,-1.5695,-1.4588,-1.4421,-1.4874,-1.4746,-1.495,-1.5208,-1.4732,-1.3998,-1.3207,-1.2558,-1.1911,-1.1321,-1.1367,-1.175,-1.2178,-1.2296,-1.2659,-1.283,-1.2175,-1.2056,-1.1957,-1.125,-1.0906,-1.071,-1.0665,-1.018,-0.9756,-0.9756,-0.9892,-0.9944,-0.9633,-0.9686,-0.9673,-0.9251,-0.8578,-0.8052,-0.7888,-0.7432,-0.7116,-0.7136,-0.7077,-0.6936,-0.6786,-0.6876,-0.6885,-0.6712,-0.6634,-0.6617,-0.6601,-0.514,-0.4425,-0.4747,-0.3072,-0.1995,-0.1676,-0.0983,-0.2668,-0.6819,-0.5187,-0.6888,-1.163,-1.0252,-1.0072,-1.0777,-1.151,-1.2361,-1.2754,-1.4062,-1.5102,-1.4546,-1.4892,-1.532,-1.5328,-1.5748,-1.6458,-1.7586,0.0,0.0,0.0,0.0,0.0,0.0,0.0,0.0,0.0,0.0,0.0,0.0,0.0,0.0,0.0,0.0,0.0,0.0,0.0,0.0,0.0,0.0,0.0,-1.8585,-1.7551,-1.7002,-1.6926,-1.6942,-1.6428,-1.548,-1.5902,-1.5918,-1.5529,-1.483,-1.4902,-1.5392,-1.4329,-1.4165,-1.4562,-1.4423,-1.4573,-1.4784,-1.4365,-1.3495,-1.2471,-1.2329,-1.178,-1.1209,-1.1613,-1.2038,-1.2429,-1.2572,-1.2762,-1.2844,-1.2312,-1.2176,-1.2021,-1.1257,-1.1067,-1.1045,-1.0804,-1.0333,-0.9863,-0.9626,-0.9755,-0.979,-0.9475,-0.9437,-0.9463,-0.9422,-0.8561,-0.7918,-0.7982,-0.7423,-0.6945,-0.6837,-0.6777,-0.6634,-0.6329,-0.6452,-0.6573,-0.6681,-0.6665,-0.6738,-0.691,-0.5428,-0.4651,-0.483,-0.3521,-0.2463,-0.1759,-0.0956,-0.2178,-0.5472,-0.5556,-0.7237,-1.0383,-1.0913,-1.1112,-1.0934,-1.1694,-1.2522,-1.2924,-1.4223,-1.5587,-1.6249,-1.6394,-1.6474,-1.6809,-1.6733,-1.6703,-1.7036,0.0,0.0,0.0,0.0,0.0,0.0,0.0,0.0,0.0,0.0,0.0,0.0,0.0,0.0,0.0,0.0,0.0,0.0,0.0,0.0,0.0,0.0,0.0,-1.8709,-1.765,-1.7076,-1.6993,-1.6873,-1.6182,-1.5045,-1.5495,-1.5089,-1.4065,-1.4445,-1.434,-1.3905,-1.375,-1.3933,-1.4284,-1.4283,-1.4084,-1.3833,-1.4011,-1.3031,-1.175,-1.2741,-1.2191,-1.1225,-1.249,-1.2596,-1.2296,-1.2679,-1.2745,-1.2636,-1.2213,-1.2161,-1.2048,-1.1395,-1.1241,-1.1064,-1.0202,-0.9986,-0.9799,-0.9062,-0.9313,-0.9605,-0.9259,-0.9209,-0.9197,-0.9217,-0.8251,-0.7598,-0.7772,-0.7235,-0.6712,-0.6413,-0.6382,-0.626,-0.5952,-0.5797,-0.589,-0.6352,-0.6106,-0.6457,-0.7705,-0.6662,-0.5362,-0.3885,-0.4381,-0.3647,-0.1443,-0.1064,-0.1399,-0.2403,-0.4412,-0.6241,-0.7934,-1.0467,-1.1766,-1.1965,-1.2813,0.0,-1.4599,0.0,0.0,0.0,-1.6628,-1.5989,0.0,-1.6006,-1.6159,-1.7496,0.0,0.0,0.0,0.0,0.0,0.0,0.0,0.0,0.0,0.0,0.0,0.0,0.0,0.0,0.0,0.0,0.0,0.0,0.0,0.0,0.0,0.0,0.0,-1.8501,-1.7699,-1.7232,-1.7066,-1.7016,-1.6632,-1.591,-1.6126,-1.6095,-1.5924,-1.5182,-1.5239,-1.5718,-1.4394,-1.3834,-1.3806,-1.3644,-1.3656,-1.372,-1.3537,-1.2817,-1.1955,-1.1969,-1.1989,-1.2052,-1.2427,-1.2592,-1.2665,-1.2941,-1.2885,-1.2693,-1.2213,-1.2343,-1.2424,-1.1554,-1.1345,-1.1193,-1.0521,-0.9916,-0.9444,-0.93,-0.9338,-0.9354,-0.9112,-0.9328,-0.9608,-0.9784,-0.9006,-0.845,-0.8753,-0.7689,-0.6587,-0.5859,-0.5734,-0.5765,-0.5959,-0.6068,-0.6283,-0.6725,-0.6885,-0.6966,-0.7029,-0.7194,-0.6759,-0.5612,-0.4477,-0.3314,-0.2186,-0.1488,-0.1664,-0.2764,-0.4062,-0.5187,-0.6145,-0.6783,-0.8099,-1.247,-1.3494,0.0,-1.5211,-1.5999,-1.6691,-1.7007,0.0,0.0,0.0,0.0,0.0,0.0,0.0,0.0,0.0,0.0,0.0,0.0,0.0,0.0,0.0,0.0,0.0,0.0,0.0,0.0,0.0,0.0,0.0,0.0,0.0,0.0,0.0,0.0,0.0,-1.8374,-1.7691,-1.7273,-1.7108,-1.7057,-1.6811,-1.6367,-1.6436,-1.6386,-1.6282,-1.5464,-1.5278,-1.5448,-1.4035,-1.3466,-1.3446,-1.3289,-1.3178,-1.3154,-1.3338,-1.2603,-1.1587,-1.1896,-1.2066,-1.2201,-1.239,-1.2535,-1.2662,-1.278,-1.265,-1.2401,-1.2196,-1.2224,-1.2212,-1.1815,-1.1515,-1.1183,-1.082,-1.0143,-0.9664,-0.9788,-0.9814,-0.977,-0.9655,-0.9857,-1.0123,-1.0416,-0.9642,-0.9035,-0.9114,-0.767,-0.6301,-0.5561,-0.5358,-0.5414,-0.5797,-0.5913,-0.6191,-0.6725,-0.6945,-0.6996,-0.6859,-0.7314,-0.7148,-0.6212,-0.5175,-0.4076,-0.295,-0.213,-0.1846,-0.216,-0.2967,-0.3813,-0.4663,-0.5865,-0.7002,-1.2793,-1.396,0.0,-1.5167,-1.5871,0.0,-1.6161,-1.6937,0.0,0.0,0.0,0.0,0.0,0.0,0.0,0.0,0.0,0.0,0.0,0.0,0.0,0.0,0.0,0.0,0.0,0.0,0.0,0.0,0.0,0.0,0.0,0.0,0.0,0.0,0.0,0.0,-1.8215,-1.7592,-1.7232,0.0,-1.6956,-1.6785,-1.6501,-1.6512,-1.6208,-1.5675,-1.5455,-1.4881,-1.4025,-1.3136,-1.3035,-1.3375,-1.32,-1.2803,-1.2388,-1.3297,-1.2391,-1.0937,-1.2174,-1.2301,-1.1933,-1.2354,-1.2437,-1.2365,-1.2365,-1.2138,-1.1945,-1.2126,-1.1909,-1.1678,-1.2029,-1.1593,-1.1079,-1.1124,-1.0587,-1.0135,-1.0297,-1.0446,-1.055,-1.0562,-1.0593,-1.07,-1.0998,-1.0211,-0.9422,-0.8959,-0.7366,-0.6001,-0.5465,-0.5214,-0.5226,-0.5564,-0.5547,-0.5828,-0.6595,-0.6587,-0.6708,-0.7065,-0.7116,-0.6798,-0.6052,-0.6151,-0.5429,-0.3716,-0.2988,-0.2145,-0.1162,-0.1752,-0.255,-0.3554,-0.6404,-0.7259,-1.4132,-1.498,0.0,0.0,-1.6842,-1.7188,-1.6773,-1.7253,0.0,0.0,0.0,0.0,0.0,0.0,0.0,0.0,0.0,0.0,0.0,0.0,0.0,0.0,0.0,0.0,0.0,0.0,0.0,0.0,0.0,0.0,0.0,0.0,0.0,0.0,0.0,-1.8435,-1.7527,-1.7371,-1.7224,0.0,-1.6998,-1.6811,-1.6485,-1.6617,-1.6502,-1.6213,-1.595,-1.5386,-1.4581,-1.3855,-1.3715,-1.3913,-1.3655,-1.3019,-1.2277,-1.2808,-1.2208,-1.1259,-1.1793,-1.2149,-1.2354,-1.2283,-1.2246,-1.2246,-1.2246,-1.209,-1.1909,-1.1945,-1.1909,-1.1763,-1.1501,-1.114,-1.0926,-1.1191,-1.0567,-0.9928,-0.9884,-0.9961,-1.0113,-1.0329,-1.0478,-1.0741,-1.1244,-1.0597,-0.9634,-0.839,-0.7538,-0.661,-0.5386,-0.5032,-0.5081,-0.5612,-0.5674,-0.6021,-0.6906,-0.6927,-0.6918,-0.7017,-0.6747,-0.6435,-0.6091,-0.5814,-0.5219,-0.4261,-0.3904,-0.3257,-0.2266,-0.3425,-0.3817,-0.3497,-0.2759,-0.3755,-1.4145,0.0,0.0,-1.658,0.0,-1.6999,-1.6959,-1.7213,0.0,0.0,0.0,0.0,0.0,0.0,0.0,0.0,0.0,0.0,0.0,0.0,0.0,0.0,0.0,0.0,0.0,0.0,0.0,0.0,0.0,0.0,0.0,0.0,0.0,0.0,-1.856,-1.8062,-1.7257,-1.7158,-1.7074,-1.7014,-1.6946,-1.6853,-1.6743,-1.6675,-1.6581,-1.6474,-1.633,-1.5728,-1.486,-1.4302,-1.4049,-1.3983,-1.3704,-1.3141,-1.2537,-1.2955,-1.2461,-1.1616,-1.2015,-1.22,-1.2294,-1.2186,-1.2113,-1.2041,-1.2016,-1.1859,-1.17,-1.1712,-1.1627,-1.1542,-1.1389,-1.1256,-1.1187,-1.1143,-1.0602,-1.0133,-1.0414,-1.0457,-1.0492,-1.0677,-1.0875,-1.1125,-1.1419,-1.0737,-0.9635,-0.8179,-0.7476,-0.665,-0.5412,-0.5003,-0.5081,-0.5712,-0.5805,-0.6121,-0.6936,-0.6966,-0.6897,-0.6807,-0.6565,-0.6291,-0.6075,-0.5743,-0.5401,-0.4941,-0.4584,-0.4215,-0.3896,-0.3822,-0.3844,-0.3951,-0.3348,-0.3411,-1.3786,0.0,-1.6316,-1.6543,-1.6596,0.0,-1.6956,0.0,0.0,0.0,0.0,0.0,0.0,0.0,0.0,0.0,0.0,0.0,0.0,0.0,0.0,0.0,0.0,0.0,0.0,0.0,0.0,0.0,0.0,0.0,0.0,0.0,-1.8501,-1.8293,-1.828,-1.7915,-1.719,-1.6981,-1.6969,-1.7165,-1.7003,-1.6939,-1.693,-1.6665,-1.6554,-1.6607,-1.6402,-1.5825,-1.5053,-1.4551,-1.4199,-1.3964,-1.3737,-1.3271,-1.287,-1.3308,-1.2709,-1.1828,-1.2283,-1.2294,-1.2077,-1.2077,-1.2004,-1.1918,-1.1881,-1.1686,-1.1527,-1.1511,-1.1287,-1.1063,-1.1211,-1.122,-1.1118,-1.0741,-1.0298,-1.0211,-1.1015,-1.1057,-1.0981,-1.1105,-1.1228,-1.127,-1.1185,-1.052,-0.9523,-0.8207,-0.7461,-0.6666,-0.5593,-0.5198,-0.5222,-0.5828,-0.5944,-0.626,-0.6885,-0.6915,-0.6824,-0.6634,-0.6443,-0.6229,-0.599,-0.5773,-0.5609,-0.5491,-0.5068,-0.5004,-0.5372,-0.4077,-0.3934,-0.4903,-0.5222,-0.4358,-1.4266,0.0,-1.657,0.0,-1.6785,-1.6972,0.0,0.0,0.0,0.0,0.0,0.0,0.0,0.0,0.0,0.0,0.0,0.0,0.0,0.0,0.0,0.0,0.0,0.0,0.0,0.0,0.0,0.0,0.0,0.0,0.0,-1.7953,-1.7976,-1.7379,-1.7857,-1.7805,-1.7124,-1.6924,-1.7125,-1.7764,-1.7527,-1.7168,-1.6738,-1.6448,-1.6474,-1.6638,-1.5822,-1.5457,-1.5374,-1.4515,-1.4237,-1.4391,-1.4196,-1.3568,-1.2838,-1.3128,-1.2528,-1.1615,-1.206,-1.2113,-1.1943,-1.192,-1.1993,-1.2077,-1.2041,-1.1881,-1.1634,-1.1527,-1.0977,-1.038,-1.0236,-0.9878,-0.948,-0.9308,-0.9156,-0.9357,-1.0477,-1.0659,-1.0725,-1.0916,-1.0631,-1.0256,-0.9905,-0.9706,-0.931,-0.852,-0.7937,-0.7243,-0.6302,-0.5714,-0.5538,-0.585,-0.6168,-0.6535,-0.7035,-0.6975,-0.6863,-0.6781,-0.6337,-0.6021,-0.5921,-0.5672,-0.5522,-0.5491,-0.5358,-0.5453,-0.5718,-0.5626,-0.586,-0.638,-0.5307,-0.4833,-1.4717,-1.5327,-1.5697,0.0,-1.5819,-1.5831,0.0,0.0,0.0,0.0,0.0,0.0,0.0,0.0,0.0,0.0,0.0,0.0,0.0,0.0,0.0,0.0,0.0,0.0,0.0,0.0,0.0,0.0,0.0,0.0,-1.715,-1.7452,-1.7443,-1.7041,-1.7255,-1.7245,-1.6981,-1.721,-1.7452,-1.7741,-1.7426,-1.7036,-1.6565,-1.6258,-1.6285,-1.6549,-1.591,-1.5598,-1.5463,-1.4757,-1.4497,-1.447,-1.4157,-1.3684,-1.318,-1.3166,-1.2714,-1.2199,-1.2283,-1.2186,-1.2077,-1.2066,-1.2066,-1.2077,-1.2029,-1.187,-1.1719,-1.1511,-1.0934,-1.0312,-1.0047,-0.9607,-0.9116,-0.8809,-0.8799,-0.8954,-0.9293,-0.9672,-1.0038,-1.0379,-1.0136,-0.9751,-0.945,-0.9217,-0.89,-0.8197,-0.7928,-0.7548,-0.6827,-0.63,-0.6116,-0.6441,-0.6504,-0.6656,-0.7017,-0.6966,-0.6824,-0.6651,-0.6337,-0.606,-0.5787,-0.5592,-0.5498,-0.5442,-0.546,-0.5585,-0.585,-0.5928,-0.6137,-0.6443,-0.5707,-0.5493,0.0,0.0,-1.5152,-1.5395,-1.5205,-1.5081,0.0,0.0,0.0,0.0,0.0,0.0,0.0,0.0,0.0,0.0,0.0,0.0,0.0,0.0,0.0,0.0,0.0,0.0,0.0,0.0,0.0,0.0,0.0,0.0,-1.7133,-1.7084,-1.7034,-1.6946,-1.6785,-1.6759,-1.6811,-1.7567,-1.7773,-1.747,-1.7451,-1.708,-1.6394,-1.6163,-1.6163,-1.634,-1.6011,-1.5697,-1.5403,-1.498,-1.4655,-1.442,-1.404,-1.3708,-1.3446,-1.3163,-1.2885,-1.2603,-1.2401,-1.2258,-1.2102,-1.2138,-1.2102,-1.2066,-1.1945,-1.1859,-1.1745,-1.1533,-1.0981,-1.0383,-1.0072,-0.9582,-0.9038,-0.8567,-0.8518,-0.853,-0.8452,-0.8835,-0.9281,-0.9725,-0.9421,-0.9009,-0.8921,-0.8611,-0.8256,-0.7847,-0.7802,-0.7648,-0.7253,-0.6789,-0.6575,-0.6833,-0.6727,-0.6755,-0.6966,-0.6876,-0.6703,-0.646,-0.6276,-0.6036,-0.5693,-0.5529,-0.5435,-0.5386,-0.5372,-0.5529,-0.5857,-0.5804,-0.5952,-0.6276,-0.6106,-0.6082,0.0,-1.5077,0.0,-1.5665,-1.5637,0.0,0.0,0.0,0.0,0.0,0.0,0.0,0.0,0.0,0.0,0.0,0.0,0.0,0.0,0.0,0.0,0.0,0.0,0.0,0.0,0.0,0.0,0.0,0.0,0.0,-1.7199,-1.6882,-1.6805,-1.6972,-1.6691,-1.6554,-1.6623,-1.7896,-1.808,-1.7134,-1.802,-1.7602,-1.6123,-1.6166,-1.6123,-1.5996,-1.5811,-1.5536,-1.5178,-1.4932,-1.462,-1.4268,-1.3941,-1.3674,-1.3446,-1.3069,-1.2685,-1.2413,-1.2246,-1.2077,-1.1906,-1.192,-1.1993,-1.2066,-1.1945,-1.1859,-1.1793,-1.1719,-1.1173,-1.0499,-1.0108,-0.9502,-0.8902,-0.8429,-0.8069,-0.7986,-0.8412,-0.8505,-0.8618,-0.8921,-0.8227,-0.7696,-0.8015,-0.764,-0.7389,-0.7669,-0.7602,-0.7517,-0.747,-0.7063,-0.6762,-0.6723,-0.6744,-0.6803,-0.6885,-0.6673,-0.646,-0.6315,-0.5998,-0.5773,-0.5602,-0.5428,-0.5316,-0.5316,-0.5119,-0.5252,-0.5708,-0.5522,-0.5703,-0.6206,-0.6399,-0.6369,0.0,0.0,0.0,-1.4873,-1.4393,0.0,0.0,0.0,0.0,0.0,0.0,0.0,0.0,0.0,0.0,0.0,0.0,0.0,0.0,0.0,0.0,0.0,0.0,0.0,0.0,0.0,0.0,0.0,0.0,0.0,-1.7133,-1.6933,-1.6815,-1.6743,-1.6543,-1.6886,-1.7822,-1.8579,-1.8562,-1.7746,-1.7991,-1.7349,-1.597,-1.587,-1.5841,-1.5841,-1.5522,-1.5269,-1.5027,-1.4637,-1.4397,-1.4203,-1.3828,-1.3594,-1.3446,-1.3035,-1.2826,-1.2685,-1.2473,-1.233,-1.2233,-1.2222,-1.2186,-1.2066,-1.1945,-1.1833,-1.1719,-1.1608,-1.1017,-1.0322,-1.0083,-0.9467,-0.8843,-0.8394,-0.8172,-0.8029,-0.7903,-0.8009,-0.8136,-0.8237,-0.7885,-0.7547,-0.7508,-0.7231,-0.7163,-0.7581,-0.7622,-0.7726,-0.8038,-0.771,-0.736,-0.7123,-0.6983,-0.6777,-0.6429,-0.6268,-0.6122,-0.5998,-0.5749,-0.5515,-0.5289,-0.5176,-0.5055,-0.4966,-0.4794,-0.4922,-0.5442,-0.5372,-0.5554,-0.5936,-0.606,-0.6303,-1.322,0.0,0.0,0.0,0.0,0.0,0.0,0.0,0.0,0.0,0.0,0.0,0.0,0.0,0.0,0.0,0.0,0.0,0.0,0.0,0.0,0.0,0.0,0.0,0.0,0.0,0.0,0.0,0.0,0.0,-1.7,-1.6815,-1.6607,-1.6394,-1.6328,-1.6859,-1.8035,-1.8283,-1.8141,-1.7622,-1.7621,-1.6985,-1.5799,-1.5755,-1.5726,-1.5683,-1.5268,-1.5072,-1.4982,-1.4529,-1.4273,-1.4092,-1.3795,-1.3581,-1.3425,-1.3082,-1.2943,-1.2838,-1.265,-1.2473,-1.233,-1.2294,-1.2197,-1.2004,-1.1859,-1.1771,-1.1719,-1.1608,-1.1147,-1.0635,-1.037,-0.9758,-0.9047,-0.8469,-0.8433,-0.829,-0.749,-0.7549,-0.7685,-0.7543,-0.7223,-0.6949,-0.6801,-0.659,-0.6596,-0.7001,-0.7326,-0.7648,-0.8031,-0.7662,-0.7311,-0.7204,-0.6792,-0.638,-0.6098,-0.5959,-0.5835,-0.5679,-0.5491,-0.5295,-0.5036,-0.4922,-0.4768,-0.4678,-0.4409,-0.45,-0.4858,-0.5087,-0.5372,-0.5718,-0.585,-0.6276,0.0,0.0,0.0,0.0,0.0,0.0,0.0,0.0,0.0,0.0,0.0,0.0,0.0,0.0,0.0,0.0,0.0,0.0,0.0,0.0,0.0,0.0,0.0,0.0,0.0,0.0,0.0,0.0,0.0,-1.6696,-1.6789,-1.6474,-1.6191,-1.5996,-1.6055,-1.6447,-1.7089,-1.6985,-1.6848,-1.6695,-1.6955,-1.6562,-1.561,-1.587,-1.5797,-1.5477,-1.5072,-1.4935,-1.4968,-1.4627,-1.4278,-1.4,-1.3841,-1.3641,-1.3391,-1.3163,-1.299,-1.2803,-1.2745,-1.2484,-1.221,-1.2138,-1.2016,-1.1881,-1.1756,-1.1756,-1.1793,-1.1719,-1.1608,-1.141,-1.1002,-1.0351,-0.9554,-0.8651,-0.8761,-0.8739,-0.7323,-0.7231,-0.728,-0.6786,-0.6235,-0.5843,-0.5881,-0.5737,-0.567,-0.5941,-0.666,-0.7187,-0.7332,-0.6823,-0.6596,-0.6936,-0.6096,-0.5625,-0.5973,-0.5811,-0.5609,-0.5383,-0.5264,-0.5106,-0.4884,-0.4628,-0.4468,-0.4382,-0.4053,-0.3923,-0.3993,-0.4634,-0.5151,-0.5491,-0.5835,-0.6329,-1.2827,0.0,0.0,0.0,0.0,0.0,0.0,0.0,0.0,0.0,0.0,0.0,0.0,0.0,0.0,0.0,0.0,0.0,0.0,0.0,0.0,0.0,0.0,0.0,0.0,0.0,0.0,0.0,-1.6274,-1.6328,-1.6421,-1.6219,-1.5911,-1.5595,-1.6114,-1.6502,-1.6728,-1.7096,-1.7094,-1.6757,-1.6742,-1.6323,-1.561,-1.5624,-1.5551,-1.5328,-1.4932,-1.4763,-1.4763,-1.4324,-1.4084,-1.4,-1.3749,-1.3594,-1.3459,-1.3267,-1.306,-1.2873,-1.2838,-1.265,-1.2389,-1.2401,-1.2222,-1.2016,-1.1881,-1.1708,-1.1597,-1.1682,-1.1459,-1.1109,-1.0592,-1.0098,-0.9567,-0.8967,-0.9099,-0.9092,-0.8023,-0.8069,-0.8,-0.6865,-0.6362,-0.6122,-0.5946,-0.5628,-0.5447,-0.5611,-0.5838,-0.6096,-0.6415,-0.6102,-0.5997,-0.637,-0.5776,-0.5466,-0.5692,-0.5397,-0.5144,-0.5042,-0.5011,-0.4858,-0.4614,-0.4409,-0.421,-0.4053,-0.3761,-0.363,-0.363,-0.4178,-0.4628,-0.5004,-0.5634,-0.6137,0.0,0.0,0.0,0.0,0.0,0.0,0.0,-1.3525,0.0,0.0,0.0,0.0,0.0,0.0,0.0,0.0,0.0,0.0,0.0,0.0,0.0,0.0,0.0,0.0,0.0,0.0,0.0,0.0,-1.5797,-1.5782,-1.571,-1.5725,-1.5536,-1.5149,-1.5632,-1.5899,-1.5946,-1.6358,-1.6419,-1.6157,-1.6248,-1.601,-1.5551,-1.5477,-1.5329,-1.5102,-1.478,-1.4574,-1.4475,-1.4313,-1.4139,-1.3947,-1.3762,-1.3594,-1.3459,-1.3323,-1.3163,-1.2978,-1.2943,-1.272,-1.2508,-1.2473,-1.2258,-1.2016,-1.1881,-1.1745,-1.1634,-1.1608,-1.1298,-1.0833,-1.04,-0.998,-0.9594,-0.9105,-0.9226,-0.9191,-0.8306,-0.8375,-0.8211,-0.6773,-0.6319,-0.6035,-0.5412,-0.5106,-0.5029,-0.5277,-0.5372,-0.5605,-0.5982,-0.558,-0.5471,-0.6009,-0.5319,-0.5004,-0.544,-0.509,-0.4794,-0.4724,-0.4698,-0.4608,-0.442,-0.4151,-0.3923,-0.3831,-0.3429,-0.3266,-0.3266,-0.3821,-0.4339,-0.4794,-0.5068,-0.5477,0.0,0.0,0.0,0.0,0.0,0.0,-1.3489,-1.3417,0.0,0.0,0.0,0.0,0.0,0.0,0.0,0.0,0.0,0.0,0.0,0.0,0.0,0.0,0.0,0.0,0.0,0.0,-1.5268,-1.5359,-1.5359,-1.5225,-1.4921,-1.5149,-1.5118,-1.4839,-1.4935,-1.5013,-1.5043,-1.5269,-1.5374,-1.5373,-1.5624,-1.5639,-1.5477,-1.5389,-1.5165,-1.4859,-1.4596,-1.441,-1.4305,-1.4498,-1.4371,-1.3993,-1.3991,-1.3835,-1.3616,-1.3616,-1.3478,-1.3281,-1.3163,-1.2937,-1.2711,-1.2543,-1.2278,-1.1997,-1.183,-1.1782,-1.1756,-1.156,-1.1126,-1.0649,-1.0361,-1.0019,-0.9594,-0.9105,-0.9168,-0.9112,-0.8348,-0.8405,-0.819,-0.6736,-0.6265,-0.5787,-0.4739,-0.4488,-0.4553,-0.4871,-0.5088,-0.5339,-0.567,-0.5099,-0.4933,-0.5642,-0.4743,-0.4379,-0.5162,-0.4816,-0.4502,-0.4468,-0.4409,-0.435,-0.428,-0.3896,-0.3705,-0.3672,-0.3134,-0.2867,-0.2904,-0.3597,-0.4188,-0.4678,-0.4344,-0.4622,0.0,0.0,0.0,0.0,0.0,0.0,-1.3955,-1.3547,0.0,0.0,0.0,0.0,0.0,0.0,0.0,0.0,0.0,0.0,0.0,0.0,0.0,0.0,0.0,0.0,0.0,0.0,-1.5011,-1.5074,-1.5074,-1.5027,-1.4918,-1.4949,-1.4963,-1.4871,-1.4932,-1.5041,-1.5329,-1.5254,-1.5388,-1.5712,-1.5492,-1.5418,-1.5418,-1.5133,-1.4887,-1.4732,-1.4447,-1.4525,-1.4814,-1.4669,-1.4607,-1.466,-1.4917,-1.5012,-1.5012,-1.4914,-1.4714,-1.4513,-1.4411,-1.4207,-1.393,-1.3307,-1.2925,-1.2613,-1.2042,-1.1819,-1.1682,-1.1496,-1.1136,-1.0764,-1.039,-1.0137,-0.9783,-0.9145,-0.9226,-0.9319,-0.8776,-0.8816,-0.864,-0.7628,-0.6701,-0.5853,-0.5125,-0.4502,-0.4163,-0.4327,-0.4298,-0.4316,-0.4355,-0.4119,-0.4119,-0.4649,-0.392,-0.3771,-0.4649,-0.4346,-0.4146,-0.4172,-0.4318,-0.4285,-0.4058,-0.3836,-0.3635,-0.3532,-0.2904,-0.2643,-0.2815,-0.3233,-0.3621,-0.3983,-0.4145,-0.4462,0.0,0.0,0.0,-1.2579,0.0,0.0,0.0,-1.3304,-1.3085,0.0,0.0,0.0,0.0,0.0,0.0,0.0,0.0,0.0,0.0,0.0,0.0,0.0,0.0,0.0,0.0,0.0,-1.4686,-1.4752,-1.5079,-1.5103,-1.4634,-1.4994,-1.5053,-1.462,-1.4746,-1.4887,-1.5102,-1.5208,-1.5358,-1.5536,-1.5709,-1.5794,-1.5794,-1.5449,-1.5226,-1.5082,-1.4487,-1.4473,-1.4805,-1.4878,-1.5127,-1.55,-1.5349,-1.5311,-1.5311,-1.5311,-1.5184,-1.5018,-1.4787,-1.467,-1.4516,-1.3898,-1.3592,-1.3314,-1.2514,-1.2139,-1.1866,-1.1373,-1.1267,-1.11,-1.0517,-1.0127,-0.9823,-0.9457,-0.9315,-0.9154,-0.8926,-0.8805,-0.8513,-0.7879,-0.6996,-0.6117,-0.5352,-0.4638,-0.4272,-0.4516,-0.4333,-0.42,-0.4362,-0.4065,-0.4008,-0.4373,-0.3726,-0.3529,-0.4176,-0.3975,-0.3808,-0.3803,-0.4026,-0.4058,-0.3868,-0.37,-0.3467,-0.32,-0.294,-0.2742,-0.2646,-0.2874,-0.3167,-0.3462,-0.3723,-0.3983,0.0,0.0,0.0,0.0,0.0,-1.2484,0.0,0.0,0.0,-1.3061,0.0,0.0,0.0,0.0,0.0,0.0,0.0,0.0,0.0,0.0,0.0,0.0,0.0,0.0,0.0,0.0,-1.4415,-1.4483,-1.505,-1.5086,-1.441,-1.5045,-1.5119,-1.4461,-1.4637,-1.4808,-1.4902,-1.5147,-1.5283,-1.5327,-1.5922,-1.6163,-1.6063,-1.5755,-1.5521,-1.5345,-1.4492,-1.4305,-1.4618,-1.5041,-1.5569,-1.6084,-1.5737,-1.5569,-1.5595,-1.5672,-1.5621,-1.5479,-1.5166,-1.5099,-1.506,-1.4494,-1.4045,-1.3609,-1.2895,-1.2458,-1.2095,-1.1467,-1.1523,-1.1592,-1.0784,-1.0322,-0.9996,-0.9841,-0.9435,-0.9073,-0.9105,-0.8741,-0.8286,-0.7905,-0.7145,-0.6309,-0.5566,-0.4848,-0.4515,-0.4851,-0.4585,-0.4429,-0.4751,-0.4303,-0.4045,-0.4207,-0.3596,-0.3329,-0.3712,-0.3607,-0.3524,-0.3519,-0.378,-0.3858,-0.3737,-0.3597,-0.3298,-0.29,-0.3006,-0.2878,-0.2543,-0.2646,-0.2812,-0.3043,-0.327,-0.3401,0.0,0.0,0.0,0.0,-1.2198,0.0,0.0,0.0,-1.2448,-1.2424,0.0,0.0,0.0,0.0,0.0,0.0,0.0,0.0,0.0,0.0,0.0,0.0,0.0,0.0,0.0,0.0,0.0,-1.4415,-1.4552,-1.4648,-1.4746,-1.477,-1.4833,-1.4921,-1.4887,-1.4994,-1.5253,-1.5222,-1.5253,-1.5283,-1.5684,-1.5755,-1.5588,-1.5353,-1.5148,-1.4948,-1.4239,-1.4136,-1.4547,-1.5004,-1.5504,-1.5972,-1.6363,-1.6725,-1.6961,-1.6809,-1.6767,-1.6754,-1.6418,-1.6388,-1.6313,-1.5313,-1.404,-1.281,-1.2714,-1.2458,-1.22,-1.2106,-1.2281,-1.2289,-1.1409,-1.1095,-1.0752,-0.9986,-0.9713,-0.9563,-0.9475,-0.8935,-0.8382,-0.8057,-0.7148,-0.6319,-0.5985,-0.5061,-0.4515,-0.4931,-0.4585,-0.4429,-0.4751,-0.4269,-0.3819,-0.3625,-0.3154,-0.2939,-0.3072,-0.3231,-0.3396,-0.3581,-0.3832,-0.3956,-0.3891,-0.363,-0.3298,-0.29,-0.2845,-0.2782,-0.2679,-0.2679,-0.2716,-0.2746,-0.2849,-0.2981,0.0,0.0,0.0,0.0,0.0,0.0,0.0,0.0,-1.2246,0.0,0.0,0.0,0.0,0.0,0.0,0.0,0.0,0.0,0.0,0.0,0.0,0.0,0.0,0.0,0.0,0.0,0.0,0.0,0.0,-1.4587,-1.4475,-1.4809,-1.4934,-1.4704,-1.4794,-1.4918,-1.5118,-1.5041,-1.5086,-1.5253,-1.5924,-1.6025,-1.5622,-1.5744,-1.5508,-1.5052,-1.4279,-1.4156,-1.4547,-1.5017,-1.5491,-1.6,-1.6435,-1.6791,-1.7002,-1.696,-1.7044,-1.7073,-1.6833,-1.6748,-1.6667,-1.5862,-1.4815,-1.3714,-1.3173,-1.307,-1.2962,-1.2082,-1.2393,-1.2816,-1.1867,-1.1396,-1.0951,-1.0419,-0.983,-0.9386,-0.9226,-0.8822,-0.8406,-0.8308,-0.7371,-0.655,-0.6421,-0.5417,-0.4722,-0.4925,-0.4996,-0.5013,-0.4928,-0.4711,-0.4368,-0.3906,-0.3237,-0.294,-0.3097,-0.3047,-0.3082,-0.3246,-0.3538,-0.3728,-0.3798,-0.3635,-0.3434,-0.3142,-0.3175,-0.3105,-0.2944,-0.2944,-0.2907,-0.2805,-0.2841,-0.2808,-1.1719,0.0,0.0,0.0,0.0,0.0,0.0,0.0,0.0,0.0,0.0,0.0,0.0,0.0,0.0,0.0,0.0,0.0,0.0,0.0,0.0,0.0,0.0,0.0,0.0,0.0,0.0,0.0,0.0,0.0,-1.423,-1.474,-1.4867,-1.4497,-1.4624,-1.4749,-1.4828,-1.4811,-1.4856,-1.5025,-1.5977,-1.6139,-1.5583,-1.5913,-1.5681,-1.499,-1.4266,-1.4065,-1.4265,-1.4773,-1.5248,-1.5745,-1.6153,-1.6524,-1.6918,-1.696,-1.7086,-1.7157,-1.696,-1.6833,-1.6705,-1.6262,-1.5464,-1.4549,-1.3746,-1.3569,-1.3453,-1.2477,-1.2648,-1.2943,-1.2251,-1.162,-1.1053,-1.0567,-0.9866,-0.9306,-0.9136,-0.8773,-0.8488,-0.848,-0.7602,-0.6775,-0.6746,-0.5671,-0.4832,-0.4912,-0.5288,-0.5452,-0.5229,-0.5204,-0.5015,-0.4505,-0.3851,-0.3395,-0.3406,-0.3242,-0.3108,-0.3104,-0.3403,-0.3569,-0.3574,-0.3602,-0.3536,-0.3311,-0.3354,-0.3291,-0.3067,-0.3099,-0.3002,-0.2805,-0.2852,-0.2706,0.0,0.0,0.0,-1.1755,0.0,0.0,0.0,0.0,-1.1367,0.0,0.0,0.0,0.0,0.0,-1.0992,-1.118,0.0,0.0,0.0,0.0,0.0,0.0,0.0,0.0,0.0,0.0,0.0,0.0,0.0,0.0,-1.417,-1.4281,-1.4346,-1.4397,-1.4483,-1.4483,-1.4429,-1.4483,-1.4501,-1.4515,-1.555,-1.573,-1.5215,-1.5558,-1.5296,-1.4594,-1.4057,-1.3721,-1.3557,-1.4121,-1.4611,-1.5069,-1.5545,-1.6223,-1.6876,-1.6876,-1.7044,-1.7157,-1.696,-1.6705,-1.6392,-1.6392,-1.5709,-1.4796,-1.4444,-1.3857,-1.3376,-1.3554,-1.3141,-1.2584,-1.2489,-1.1881,-1.1095,-1.0312,-0.9911,-0.9634,-0.9368,-0.8958,-0.8635,-0.8521,-0.7747,-0.7029,-0.6826,-0.5678,-0.4844,-0.4981,-0.5251,-0.5497,-0.5733,-0.5717,-0.559,-0.5389,-0.4971,-0.45,-0.3947,-0.3943,-0.3792,-0.3401,-0.3572,-0.3541,-0.3241,-0.3536,-0.3574,-0.3311,-0.3166,-0.3069,-0.3004,-0.3069,-0.2918,-0.2618,-0.2676,-0.2712,0.0,0.0,-1.1573,-1.1341,0.0,0.0,0.0,0.0,0.0,0.0,0.0,0.0,0.0,0.0,-1.051,-1.0301,-1.093,-1.1431,0.0,0.0,0.0,0.0,0.0,0.0,0.0,0.0,0.0,0.0,0.0,0.0,0.0,-1.3941,-1.4072,-1.4332,-1.4319,-1.4319,-1.4332,-1.4351,-1.442,-1.4515,-1.5223,-1.5237,-1.4692,-1.5119,-1.4892,-1.4117,-1.3933,-1.3741,-1.3599,-1.4178,-1.4758,-1.5325,-1.5732,-1.6376,-1.7073,-1.696,-1.7044,-1.7199,-1.7002,-1.6876,-1.6705,-1.6522,-1.6083,-1.5519,-1.4872,-1.4363,-1.3916,-1.3428,-1.3062,-1.2721,-1.2372,-1.1788,-1.1175,-1.0661,-1.0049,-0.9527,-0.9319,-0.9088,-0.8846,-0.8683,-0.8054,-0.743,-0.7067,-0.6173,-0.543,-0.5177,-0.5666,-0.5952,-0.5648,-0.6067,-0.6175,-0.564,-0.5081,-0.4712,-0.4678,-0.4509,-0.4327,-0.4186,-0.4347,-0.4398,-0.4324,-0.4348,-0.4174,-0.377,-0.3662,-0.3496,-0.3185,-0.3407,-0.334,-0.3004,-0.3071,-0.2907,-1.1675,-1.1808,0.0,-1.1475,-1.1484,0.0,-1.1016,0.0,0.0,0.0,0.0,0.0,0.0,0.0,-1.0224,-0.995,-1.0532,-1.1029,0.0,-1.0781,0.0,0.0,0.0,0.0,0.0,0.0,0.0,-1.2027,-1.2098,0.0,0.0,0.0,-1.3841,-1.4059,-1.4092,-1.4144,-1.4176,-1.4222,-1.4319,-1.4433,-1.4917,-1.487,-1.4346,-1.4728,-1.4552,-1.3854,-1.3854,-1.3775,-1.3641,-1.4029,-1.465,-1.5388,-1.5607,-1.629,-1.7115,-1.696,-1.696,-1.7073,-1.7002,-1.6918,-1.6791,-1.6565,-1.617,-1.566,-1.5012,-1.4446,-1.3882,-1.3339,-1.2803,-1.237,-1.2204,-1.1583,-1.0935,-1.0693,-1.004,-0.9478,-0.9319,-0.9063,-0.8813,-0.8731,-0.8163,-0.7656,-0.7397,-0.6639,-0.5868,-0.5223,-0.5892,-0.6256,-0.5722,-0.6407,-0.6768,-0.619,-0.5817,-0.549,-0.5192,-0.4638,-0.4276,-0.4186,-0.4373,-0.4531,-0.4608,-0.4591,-0.4484,-0.4369,-0.3993,-0.3713,-0.352,-0.3513,-0.3414,-0.3172,-0.3248,-0.3104]},{"header":{"parameterUnit":"m.s-1","parameterCategory":1,"la1":30.6,"la2":29.2853,"lo1":-89.7004,"lo2":-87.6739,"dy":0.0162,"dx":0.0183,"nx":112,"ny":82,"refTime":"2023-05-09T00:00:00:Z","depth":0,"parameterNumber":3,"parameterNumberName":"V-component_of_WINDS"},"data":[0.0,0.0,0.0,0.0,0.0,0.0,0.0,0.0,0.0,0.0,0.0,0.0,0.0,0.0,0.0,0.0,0.0,0.0,0.0,0.0,0.0,0.0,0.0,0.0,0.0,0.0,0.0,0.0,0.0,0.0,0.0,0.0,0.0,0.0,0.0,0.0,0.0,0.0,0.0,0.0,0.0,0.0,0.0,0.0,0.0,0.0,0.0,0.0,0.0,0.0,0.0,0.0,0.0,0.0,0.0,0.0,0.0,0.0,0.0,0.0,0.0,0.0,0.0,0.0,0.0,0.0,0.0,0.0,0.0,0.0,0.0,0.0,0.0,0.0,0.0,0.0,0.0,0.0,0.0,0.0,0.0,0.0,0.0,0.0,0.0,0.0,0.0,0.0,0.0,0.0,0.0,-0.8734,-0.7867,-0.722,-0.702,-0.4949,-0.3798,-0.413,0.0,0.0,0.0,0.0,0.0,0.0,0.0,0.0,0.0,0.0,0.0,0.0,0.0,0.0,0.0,0.0,0.0,0.0,0.0,0.0,0.0,0.0,0.0,0.0,0.0,0.0,0.0,0.0,0.0,0.0,0.0,0.0,0.0,0.0,0.0,0.0,0.0,0.0,0.0,0.0,0.0,0.0,0.0,0.0,0.0,0.0,0.0,0.0,0.0,0.0,0.0,0.0,0.0,0.0,0.0,0.0,0.0,0.0,0.0,0.0,0.0,0.0,0.0,0.0,0.0,0.0,0.0,0.0,0.0,0.0,0.0,0.0,0.0,0.0,0.0,0.0,0.0,0.0,0.0,0.0,0.0,0.0,0.0,0.0,0.0,0.0,0.0,0.0,0.0,0.0,0.0,0.0,0.0,0.0,0.0,0.0,0.0,0.0,0.0,0.0,0.0,0.0,0.0,0.0,-0.943,-0.885,-0.8139,-0.7515,-0.7054,-0.4007,-0.2396,-0.3007,0.0,0.0,0.0,0.0,0.0,0.0,0.0,0.0,0.0,0.0,0.0,0.0,0.0,0.0,0.0,0.0,0.0,0.0,0.0,0.0,0.0,0.0,0.0,0.0,0.0,0.0,0.0,0.0,0.0,0.0,0.0,0.0,0.0,0.0,0.0,0.0,0.0,0.0,0.0,0.0,0.0,0.0,0.0,0.0,0.0,0.0,0.0,0.0,0.0,0.0,0.0,0.0,0.0,0.0,0.0,0.0,0.0,0.0,0.0,0.0,0.0,0.0,0.0,0.0,0.0,0.0,0.0,0.0,0.0,0.0,0.0,0.0,0.0,0.0,0.0,0.0,0.0,0.0,0.0,0.0,0.0,0.0,0.0,0.0,0.0,0.0,0.0,0.0,0.0,0.0,0.0,0.0,0.0,0.0,0.0,0.0,0.0,0.0,0.0,0.0,0.0,0.0,0.0,-0.9483,-0.919,-0.8595,-0.8033,-0.7329,-0.6475,-0.3445,-0.1652,-0.1819,0.134,0.0,0.0,0.0,0.0,0.0,0.0,0.0,0.0,0.0,0.0,0.0,0.0,0.0,0.0,0.0,0.0,0.0,0.0,0.0,0.0,0.0,0.0,0.0,0.0,0.0,0.0,0.0,0.0,0.0,0.0,0.0,0.0,0.0,0.0,0.0,0.0,0.0,0.0,0.0,0.0,0.0,0.0,0.0,0.0,0.0,0.0,0.0,0.0,0.0,0.0,0.0,0.0,0.0,0.0,0.0,0.0,0.0,0.0,0.0,0.0,0.0,0.0,0.0,0.0,0.0,0.0,0.0,0.0,0.0,0.0,0.0,0.0,0.0,0.0,0.0,0.0,0.0,0.0,0.0,0.0,0.0,0.0,0.0,0.0,0.0,0.0,0.0,0.0,0.0,0.0,0.0,0.0,0.0,0.0,0.0,0.0,0.0,0.0,0.0,0.0,0.0,0.0,-0.9186,-0.881,-0.8268,-0.7809,-0.7073,-0.5884,-0.3218,-0.1419,-0.0948,0.2476,0.0,0.0,0.0,0.0,0.0,0.0,0.0,0.0,0.0,0.0,0.0,0.0,0.0,0.0,0.0,0.0,0.0,0.0,0.0,0.0,0.0,0.0,0.0,0.0,0.0,0.0,0.0,0.0,0.0,0.0,0.0,0.0,0.0,0.0,0.0,0.0,0.0,0.0,0.0,0.0,0.0,0.0,0.0,0.0,0.0,0.0,0.0,0.0,0.0,0.0,0.0,0.0,0.0,0.0,0.0,0.0,0.0,0.0,0.0,0.0,0.0,0.0,0.0,0.0,0.0,0.0,0.0,0.0,0.0,0.0,0.0,0.0,0.0,0.0,0.0,0.0,0.0,0.0,0.0,0.0,0.0,0.0,0.0,0.0,0.0,0.0,0.0,0.0,0.0,0.0,0.0,0.0,0.0,0.0,0.0,0.0,0.0,0.0,0.0,0.0,0.0,0.0,-0.9069,-0.8596,-0.7984,-0.7621,-0.6887,-0.5549,-0.3464,-0.1802,-0.0788,0.1766,0.0,0.0,0.0,0.0,0.0,0.0,0.0,0.0,0.0,0.0,0.0,0.0,0.0,0.0,0.0,0.0,0.0,0.0,0.0,0.0,0.0,0.0,0.0,0.0,0.0,0.0,0.0,0.0,0.0,0.0,0.0,0.0,0.0,0.0,0.0,0.0,0.0,0.0,0.0,0.0,0.0,0.0,0.0,0.0,0.0,0.0,0.0,0.0,0.0,0.0,0.0,0.0,0.0,0.0,0.0,0.0,0.0,0.0,0.0,0.0,0.0,0.0,0.0,0.0,0.0,0.0,0.0,0.0,0.0,0.0,0.0,0.0,0.0,0.0,0.0,0.0,0.0,0.0,0.0,0.0,0.0,0.0,0.0,0.0,0.0,0.0,0.0,0.0,0.0,0.0,0.0,0.0,0.0,0.0,0.0,0.0,0.0,0.0,0.0,0.0,0.0,0.0,-0.8705,-0.8133,0.0,-0.6828,-0.6121,-0.4826,-0.3505,-0.2314,-0.1317,0.0,0.0,0.0,0.0,0.0,0.0,0.0,0.0,0.0,0.0,0.0,0.0,0.0,0.0,0.0,0.0,0.0,0.0,0.0,0.0,0.0,0.0,0.0,0.0,0.0,0.0,0.0,0.0,0.0,0.0,0.0,0.0,0.0,0.0,0.0,0.0,0.0,0.0,0.0,0.0,0.0,0.0,0.0,0.0,0.0,0.0,0.0,0.0,0.0,0.0,0.0,0.0,0.0,0.0,0.0,0.0,0.0,0.0,0.0,0.0,0.0,0.0,0.0,0.0,0.0,0.0,0.0,0.0,0.0,0.0,0.0,0.0,0.0,0.0,0.0,0.0,0.0,0.0,0.0,0.0,0.0,0.0,0.0,0.0,0.0,0.0,0.0,0.0,0.0,0.0,0.0,0.0,0.0,0.0,0.0,0.0,0.0,0.0,0.0,0.0,0.0,0.0,-0.8936,-0.8509,-0.7812,0.0,-0.6238,-0.5552,-0.4346,-0.338,-0.2548,-0.1829,0.0,0.0,0.0,0.0,0.0,0.0,0.0,0.0,0.0,0.0,0.0,0.0,0.0,0.0,0.0,0.0,0.0,0.0,0.0,0.0,0.0,0.0,0.0,0.0,0.0,0.0,0.0,0.0,0.0,0.0,0.0,0.0,0.0,0.0,0.0,0.0,0.0,0.0,0.0,0.0,0.0,0.0,0.0,0.0,0.0,0.0,0.0,0.0,0.0,0.0,0.0,0.0,0.0,0.0,0.0,0.0,0.0,0.0,0.0,0.0,0.0,0.0,0.0,0.0,0.0,0.0,0.0,0.0,0.0,0.0,0.0,0.0,0.0,0.0,0.0,0.0,0.0,0.0,0.0,0.0,0.0,0.0,0.0,0.0,0.0,0.0,0.0,0.0,0.0,0.0,0.0,0.0,0.0,0.0,0.0,0.0,0.0,0.0,0.0,0.0,0.0,0.0,-0.9056,-0.8455,-0.7641,-0.6503,-0.5957,-0.5249,-0.4191,-0.3114,-0.2424,0.0,0.0,0.0,0.0,0.0,0.0,0.0,0.0,0.0,0.0,0.0,0.0,0.0,0.0,0.0,0.0,0.0,0.0,0.0,0.0,0.0,0.0,0.0,0.0,0.0,0.0,0.0,0.0,0.0,0.0,0.0,0.0,0.0,0.0,0.0,0.0,0.0,0.0,0.0,0.0,0.0,0.0,0.0,0.0,0.0,0.0,0.0,0.0,0.0,0.0,0.0,0.0,0.0,0.0,0.0,0.0,0.0,0.0,0.0,0.0,0.0,0.0,0.0,0.0,0.0,0.0,0.0,0.0,0.0,0.0,0.0,0.0,0.0,0.0,0.0,0.0,0.0,0.0,0.0,0.0,0.0,0.0,0.0,0.0,0.0,0.0,0.0,0.0,0.0,0.0,0.0,0.0,0.0,0.0,0.0,0.0,0.0,0.0,0.0,0.0,0.0,0.0,0.0,-0.8781,-0.7404,-0.6244,-0.5817,-0.5092,-0.4385,-0.3736,-0.2954,-0.2457,-0.2346,0.0,0.0,0.0,0.0,0.0,0.0,0.0,0.0,0.0,0.0,0.0,0.0,0.0,0.0,0.0,0.0,0.0,0.0,0.0,0.0,0.0,0.0,0.0,0.0,0.0,0.0,0.0,0.0,0.0,0.0,0.0,0.0,0.0,0.0,0.0,0.0,0.0,0.0,0.0,0.0,0.0,0.0,0.0,0.0,0.0,0.0,0.0,0.0,0.0,0.0,0.0,0.0,0.0,0.0,0.0,0.0,0.0,0.0,0.0,0.0,0.0,0.0,0.0,0.0,0.0,0.0,0.0,0.0,0.0,0.0,0.0,0.0,0.0,0.0,0.0,0.0,0.0,0.0,0.0,0.0,0.0,0.0,0.0,0.0,0.0,0.0,0.0,0.0,0.0,0.0,0.0,0.0,0.0,0.0,0.0,0.0,0.0,0.0,0.0,0.0,0.0,0.0,-0.8435,-0.6896,-0.5637,-0.5148,-0.4519,-0.3927,-0.3464,-0.2982,-0.2674,-0.2613,0.0,0.0,0.0,0.0,0.0,0.0,0.0,0.0,0.0,0.0,0.0,0.0,0.0,0.0,0.0,0.0,0.0,0.0,0.0,0.0,0.0,0.0,0.0,0.0,0.0,0.0,0.0,0.0,0.0,0.0,0.0,0.0,0.0,0.0,0.0,0.0,0.0,0.0,0.0,0.0,0.0,0.0,0.0,0.0,0.0,0.0,0.0,0.0,0.0,0.0,0.0,0.0,0.0,0.0,0.0,0.0,0.0,0.0,0.0,0.0,0.0,0.0,0.0,0.0,0.0,0.0,0.0,0.0,0.0,0.0,0.0,0.0,0.0,0.0,0.0,0.0,0.0,0.0,0.0,0.0,0.0,0.0,0.0,0.0,0.0,0.0,0.0,0.0,0.0,0.0,0.0,0.0,0.0,0.0,0.0,0.0,0.0,0.0,0.0,0.0,0.0,0.0,-0.8028,-0.6774,-0.5565,-0.4637,-0.4254,-0.387,-0.3384,-0.3185,-0.3059,-0.2991,0.0,0.0,0.0,0.0,0.0,0.0,0.0,0.0,0.0,0.0,0.0,0.0,0.0,0.0,0.0,0.0,0.0,0.0,0.0,0.0,0.0,0.0,0.0,0.0,0.0,0.0,0.0,0.0,0.0,0.0,0.0,0.0,0.0,0.0,0.0,0.0,0.0,0.0,0.0,0.0,0.0,0.0,0.0,0.0,0.0,0.0,0.0,0.0,0.0,0.0,0.0,0.0,0.0,0.0,0.0,0.0,0.0,0.0,0.0,0.0,0.6744,0.0,0.0,0.0,0.0,0.0,0.0,0.0,0.0,0.0,0.0,0.0,0.0,0.0,0.0,0.0,0.0,0.0,0.0,0.0,0.0,0.0,0.0,0.0,0.0,0.0,0.0,0.0,0.0,0.0,0.0,0.0,0.0,0.0,0.0,0.0,0.0,0.0,0.0,0.0,0.0,0.0,-0.79,-0.6386,-0.5167,-0.485,-0.4707,-0.4344,-0.3674,-0.3662,-0.3681,-0.3619,0.0,0.0,0.0,0.0,0.0,0.0,0.0,0.0,0.0,0.0,0.0,0.0,0.0,0.0,0.0,0.0,0.0,0.0,0.0,0.0,0.0,0.0,0.0,0.0,0.0,0.0,0.0,0.0,0.0,0.0,0.0,0.0,0.0,0.0,0.0,0.0,0.0,0.0,0.0,0.0,0.0,0.0,0.0,0.0,0.0,0.0,0.0,0.0,0.0,0.0,0.0,0.0,0.0,0.0,0.0,0.0,0.0,0.0,0.0,0.0,0.0,0.5583,0.0,0.0,0.0,0.0,0.0,0.0,0.0,0.0,0.0,0.0,0.0,0.0,0.0,0.0,0.0,0.0,0.0,0.0,0.0,0.0,0.0,0.0,0.0,0.0,0.0,0.0,0.0,0.0,0.0,0.0,0.0,0.0,0.0,0.0,0.0,0.0,0.0,0.0,0.0,0.0,-0.766,-0.617,-0.505,-0.492,-0.4788,-0.4455,-0.3843,-0.3863,-0.3886,-0.3847,-0.3299,0.0,0.0,0.0,0.0,0.0,0.0,0.0,0.0,0.0,0.0,0.0,0.0,0.0,0.0,0.0,0.0,0.0,0.0,0.0,0.0,0.0,0.0,0.0,0.0,0.0,0.0,0.0,0.0,0.0,0.0,0.0,0.0,0.0,0.0,0.0,0.0,0.0,0.0,0.0,0.0,0.0,0.0,0.0,0.0,0.0,0.0,0.0,0.0,0.0,0.0,0.0,0.0,0.0,0.0,0.504,0.4807,0.449,0.4312,0.4252,0.4424,0.4749,0.5128,0.0,0.0,0.0,0.0,0.0,0.0,0.0,0.0,0.0,0.0,0.0,0.0,0.0,0.0,0.0,0.0,0.0,0.0,0.0,0.0,0.0,0.0,0.0,0.0,0.0,0.3958,0.4215,0.0,0.0,0.0,0.0,0.0,0.0,0.0,0.0,0.0,0.0,0.0,0.0,-0.7223,-0.6178,-0.5337,-0.51,-0.4918,-0.4597,-0.4079,-0.3917,-0.3862,-0.3862,-0.4264,-0.3955,0.0,0.0,0.0,0.0,0.0,0.0,0.0,0.0,0.0,0.0,0.0,0.0,0.0,0.0,0.0,0.0,0.0,0.0,0.0,0.0,0.0,0.0,0.0,0.0,0.0,0.0,0.0,0.0,0.0,0.0,0.0,0.0,0.7424,0.74,0.0,0.0,0.0,0.0,0.0,0.0,0.0,0.0,0.0,0.0,0.0,0.0,0.0,0.0,0.5531,0.5279,0.5098,0.5011,0.4745,0.4558,0.4432,0.3708,0.3901,0.473,0.3759,0.0,0.4304,0.4835,0.0,0.0,0.0,0.0,0.0,0.0,0.0,0.0,0.0,0.0,0.0,0.0,0.0,0.0,0.0,0.0,0.0,0.0,0.0,0.0,0.0,0.0,0.3106,0.4757,0.4741,0.428,0.0,0.2175,0.0191,-0.1252,0.0,0.0,0.0,0.0,0.0,0.0,0.0,0.0,-0.6412,-0.6568,-0.6501,-0.5845,-0.5699,-0.5337,-0.4565,-0.4023,-0.3716,-0.3716,-0.3681,-0.3243,-0.2307,-0.0954,0.0,0.0,0.0,0.0,0.0,0.0,0.0,0.0,0.0,0.0,0.0,0.0,0.0,0.0,0.0,0.0,0.0,0.0,0.0,0.0,0.0,0.0,0.0,0.0,0.0,0.0,0.0,0.0,0.0,0.8343,0.8473,0.8323,0.8575,0.8833,0.0,0.0,0.0,0.0,0.0,0.0,0.0,0.0,0.0,0.7071,0.6122,0.559,0.5523,0.5393,0.5174,0.4843,0.4758,0.4774,0.488,0.3966,0.429,0.5521,0.4495,0.4215,0.4502,0.4546,0.4601,0.4683,0.0,0.0,0.0,0.0,0.0,0.3868,0.3582,0.0,0.0,0.0,0.0,0.0,0.0,0.0,0.0,0.0,0.0,0.0,0.0,0.0,0.0,0.3264,0.3758,0.3958,0.355,0.2471,0.1143,0.0,-0.095,-0.1242,-0.1357,0.0,0.0,0.0,0.0,0.0,-0.632,-0.6614,-0.6645,-0.6024,-0.583,-0.5324,-0.4291,-0.3886,-0.3633,-0.3473,-0.3564,-0.3615,-0.3613,-0.2222,-0.1732,0.0,0.0,0.0,0.0,0.0,0.0,0.0,0.0,0.0,0.0,0.0,0.0,0.0,0.0,0.0,0.0,0.0,0.0,0.0,0.0,0.0,0.0,0.0,0.0,0.0,0.0,0.0,0.0,0.8906,0.9041,0.9157,0.943,0.971,0.0,0.0,0.0,0.0,0.0,0.0,0.8518,0.7284,0.6773,0.7236,0.5989,0.5315,0.5356,0.5296,0.5099,0.4703,0.4885,0.5101,0.5298,0.4716,0.5095,0.6182,0.5459,0.5263,0.5423,0.4871,0.4755,0.4942,0.5153,0.5247,0.5258,0.5162,0.4873,0.4516,0.4332,0.3962,0.3541,0.332,0.0,0.3305,0.32,0.0,0.0,0.0,0.0,0.194,0.1892,0.2098,0.2327,0.2312,0.2732,0.3116,0.309,0.2599,0.1934,0.0,-0.0146,-0.1005,-0.0765,0.0,0.0,0.0,0.0,-0.6362,-0.5448,-0.5913,-0.6162,-0.5704,-0.5363,-0.4865,-0.415,-0.3538,-0.3151,-0.2987,-0.3138,-0.3407,-0.3819,-0.3293,-0.3474,-0.4492,0.0,0.0,0.0,0.0,0.0,0.0,0.0,0.0,0.0,0.0,0.0,0.0,0.0,0.0,0.0,0.0,0.0,0.0,0.0,0.0,0.0,0.0,0.0,0.0,0.0,0.0,0.0,0.0,0.0,0.9289,0.968,0.0,0.0,0.0,0.0,1.0883,1.0072,0.9877,1.0707,0.9068,0.7794,0.7124,0.5819,0.4973,0.4658,0.4534,0.4455,0.4429,0.494,0.5247,0.5415,0.5929,0.6316,0.6554,0.6197,0.6493,0.722,0.642,0.5553,0.4815,0.5763,0.5864,0.5488,0.548,0.5022,0.4342,0.3814,0.3467,0.3277,0.3563,0.3541,0.3257,0.2494,0.2249,0.0,0.0,0.18,0.2178,0.2555,0.2387,0.2332,0.3215,0.2356,0.1594,0.2528,0.1418,0.0677,0.0,0.1751,0.1418,0.2308,0.0,-0.1709,0.0259,-0.2937,-0.4893,-0.2941,-0.4097,-0.5011,-0.4784,-0.4119,-0.3941,-0.4507,-0.2929,-0.1953,-0.2054,-0.2019,-0.184,-0.149,-0.2818,-0.3087,-0.2098,-0.4268,0.0,0.0,0.0,0.0,0.0,0.0,0.0,0.0,0.0,0.0,0.0,0.0,0.0,0.0,0.0,0.0,0.0,0.0,0.0,0.0,0.0,0.0,0.0,0.0,0.0,0.0,0.0,0.0,1.1059,1.1158,0.0,0.0,1.1357,1.1144,1.1155,1.0596,1.0002,0.9449,0.798,0.7185,0.7239,0.5841,0.5196,0.5377,0.5201,0.5016,0.4861,0.5173,0.5818,0.6684,0.6322,0.7032,0.8496,0.7779,0.7396,0.7354,0.7395,0.6915,0.6125,0.623,0.6094,0.5838,0.5912,0.5648,0.5176,0.4771,0.4371,0.4033,0.4026,0.4245,0.4366,0.3694,0.3344,0.3105,0.2659,0.2438,0.2303,0.2051,0.1978,0.1906,0.1641,0.1741,0.1893,0.1867,0.1449,0.1171,0.1558,0.1071,0.0638,0.0744,-0.1059,-0.2074,-0.0748,-0.322,-0.4741,-0.3333,-0.4231,-0.4885,-0.4546,-0.4145,-0.3887,-0.3765,-0.267,-0.1971,-0.1945,-0.2522,-0.2825,-0.2718,-0.4065,-0.5107,-0.5692,-0.6337,-0.5841,0.0,0.0,0.0,0.0,0.0,0.0,0.0,0.0,0.0,0.0,0.0,0.0,0.0,0.0,0.0,0.0,0.0,0.0,0.0,0.0,0.0,0.0,0.0,0.0,0.0,0.0,1.1562,1.2637,1.2722,1.281,1.3124,1.26,1.2162,1.2,1.1107,1.0207,0.9391,0.7985,0.7223,0.7288,0.6059,0.5478,0.5686,0.5529,0.5365,0.5194,0.5602,0.6521,0.7862,0.7335,0.8063,0.9668,0.8858,0.8268,0.786,0.7895,0.7686,0.7299,0.6638,0.6266,0.6157,0.6413,0.631,0.5985,0.5735,0.5253,0.4735,0.4508,0.4649,0.481,0.4256,0.4027,0.3863,0.356,0.3238,0.2803,0.2087,0.1849,0.1592,0.0796,0.1028,0.1367,0.1177,0.0922,0.0688,0.0575,0.0255,-0.0045,-0.0202,-0.1413,-0.2105,-0.1323,-0.2876,-0.38,-0.2808,-0.3488,-0.3965,-0.3683,-0.3561,-0.3466,-0.3363,-0.2503,-0.1905,-0.177,-0.2654,-0.3096,-0.2961,-0.5204,-0.6894,-0.7847,-0.8354,-0.7381,-0.4862,0.0,0.0,0.0,0.0,0.0,0.0,0.0,0.0,0.0,0.0,0.0,0.0,0.0,0.0,0.0,0.0,0.0,0.0,0.0,0.0,0.0,0.0,0.0,1.0954,1.2141,1.3113,1.3779,1.412,1.4249,1.4074,1.3001,1.2617,1.3399,1.1677,1.0636,1.0735,0.9274,0.8083,0.7288,0.6374,0.5787,0.5491,0.541,0.5379,0.5428,0.6206,0.7369,0.8816,0.9024,0.9431,0.9909,0.936,0.9081,0.8912,0.7923,0.7812,0.8121,0.697,0.6467,0.6457,0.6919,0.6918,0.6656,0.6537,0.5988,0.5294,0.4995,0.4748,0.4495,0.4071,0.4186,0.4405,0.4275,0.4073,0.3724,0.2794,0.2102,0.1518,0.0974,0.0267,-0.012,0.0455,-0.0252,-0.0902,-0.0568,-0.0445,-0.0357,-0.018,-0.1003,-0.1538,-0.1072,-0.1733,0.0,-0.1216,-0.1755,-0.218,-0.2206,-0.2274,-0.2632,-0.3435,-0.2408,-0.1667,-0.1573,-0.2291,-0.2507,-0.2063,-0.6043,-0.8171,-0.7967,-0.9928,-0.871,-0.4198,0.0,0.0,0.0,0.0,0.0,0.0,0.0,0.0,0.0,0.0,0.0,0.0,0.0,0.0,0.0,0.0,0.0,0.0,0.0,0.0,0.0,0.0,0.9893,1.0211,1.1283,1.2259,1.2877,1.2561,1.2516,1.3034,1.2507,1.2295,1.2607,1.2493,1.1508,0.9515,0.9333,0.8442,0.6626,0.6176,0.5866,0.5648,0.6419,0.6545,0.5984,0.7714,0.8788,0.9244,0.9541,1.0105,1.0797,1.0133,0.9415,0.8693,0.8322,0.7702,0.6973,0.6831,0.6667,0.6467,0.6511,0.6444,0.6307,0.6132,0.6231,0.6263,0.5125,0.5337,0.5899,0.5261,0.5154,0.5208,0.4932,0.4743,0.448,0.3823,0.3271,0.2697,0.1858,0.1032,0.0347,0.007,-0.0481,-0.0884,-0.0745,-0.0619,-0.0625,-0.0916,-0.1185,-0.1319,-0.123,-0.143,0.0,-0.1736,-0.1766,-0.1994,-0.2579,-0.2381,-0.2521,-0.3223,-0.2443,-0.2168,0.0,-0.2959,-0.3706,-0.5105,-0.6676,-0.7457,-0.7354,-0.5774,-0.4635,0.0,0.0,0.0,0.0,0.0,0.0,0.0,0.0,0.0,0.0,0.0,0.0,0.0,0.0,0.0,0.0,0.0,0.0,0.0,0.0,0.0,0.0,1.0095,1.0577,1.0378,1.1526,1.2422,1.2577,1.2177,1.2144,1.2843,1.2479,1.2338,1.2599,1.2874,1.2143,1.0137,1.0161,0.9473,0.7788,0.7494,0.7303,0.7175,0.7797,0.7915,0.7559,0.876,0.971,1.0399,1.0087,1.0514,0.0,1.0495,0.9752,0.9248,0.891,0.8314,0.0,0.0,0.0,0.0,0.0,0.675,0.6826,0.6748,0.6905,0.6963,0.6076,0.6155,0.6529,0.6188,0.599,0.5863,0.5679,0.5491,0.5185,0.4514,0.398,0.3377,0.2501,0.1713,0.0951,0.0181,-0.0384,-0.0783,-0.0972,0.0,0.0,-0.1405,-0.1227,-0.1094,-0.1321,-0.1366,-0.1521,-0.1872,-0.1828,-0.1957,-0.242,-0.2328,-0.2394,-0.2745,-0.2346,0.0,0.0,0.0,-0.3833,-0.5826,-0.6738,0.0,0.0,0.0,-0.3794,0.0,0.0,0.0,0.0,-0.7796,-0.809,0.0,0.0,0.0,0.0,0.0,0.0,0.0,0.0,0.0,0.0,0.0,0.0,0.0,0.0,0.0,0.0,1.072,1.1343,1.1032,1.2153,1.2842,1.2414,1.2158,1.2266,1.2892,1.2471,1.2416,1.2993,1.2954,1.2509,1.1568,0.0,0.0,0.0,0.0,0.9284,0.9161,0.9268,0.9345,0.9445,0.9686,1.051,1.1778,1.0695,1.0833,1.1913,1.057,1.0034,1.0072,0.9514,0.9188,0.8951,0.744,0.6713,0.6567,0.7096,0.7464,0.0,0.0,0.0,0.0,0.7311,0.7007,0.6758,0.6857,0.6657,0.6429,0.6452,0.6214,0.582,0.5074,0.4462,0.3814,0.3056,0.2351,0.1583,0.0622,-0.0042,-0.0619,-0.1116,-0.1296,-0.143,-0.1604,-0.1181,-0.0961,-0.1343,-0.1391,-0.1477,-0.1692,-0.1806,-0.1876,-0.1964,0.0,0.0,-0.2193,-0.215,-0.2167,-0.2246,-0.2729,-0.359,-0.4886,-0.6169,-0.5286,-0.192,-0.4219,-0.4157,-0.1511,-0.4176,-0.6655,-0.8892,-0.9513,-0.9934,0.0,0.0,0.0,0.0,0.0,0.0,0.0,0.0,0.0,0.0,0.0,0.0,0.0,0.0,0.0,1.0392,1.1173,1.1469,1.1001,1.1087,1.1116,1.0926,1.02,1.0175,1.1309,1.0992,1.1212,1.2457,1.2815,1.2407,1.1113,1.1324,0.0,0.9191,0.9348,0.9315,0.8969,1.0116,1.0332,0.9657,0.0,0.0,1.186,1.1533,1.1551,1.175,1.0422,0.9776,0.9607,0.9212,0.8829,0.8405,0.759,0.697,0.6617,0.7571,0.7796,0.7657,0.8005,0.8174,0.8072,0.7173,0.7206,0.7463,0.6913,0.6952,0.0,0.6816,0.6592,0.6397,0.6157,0.5378,0.4576,0.405,0.2993,0.1956,0.1318,0.0393,-0.0376,-0.0534,-0.0892,-0.1163,-0.1136,-0.1048,-0.105,-0.1274,-0.1009,-0.0897,-0.1274,-0.1098,-0.1188,-0.1784,-0.1629,-0.167,-0.2084,-0.1862,-0.2125,-0.3099,-0.4722,-0.4936,-0.3334,-0.4185,-0.3536,-0.1082,-0.0925,0.0098,0.2084,-0.0434,-0.3019,-0.5671,-0.8057,-0.9874,0.0,0.0,0.0,0.0,0.0,0.0,0.0,0.0,0.0,0.0,0.0,0.9187,0.0,0.0,0.9961,1.1066,1.158,1.1564,1.0744,1.0367,1.0056,0.9729,0.9442,0.9568,1.0427,1.0809,1.1339,1.2073,1.2666,1.2617,1.1685,1.1834,1.1572,1.0712,1.0677,1.0632,1.0656,1.134,1.1488,1.1193,1.2295,1.2638,1.2378,1.205,1.1765,1.1495,1.0516,0.9929,0.9633,0.9516,0.9125,0.8634,0.8364,0.7806,0.719,0.7645,0.7808,0.7849,0.7898,0.8135,0.8357,0.7745,0.7657,0.7695,0.7253,0.7175,0.7164,0.6734,0.6695,0.6717,0.6344,0.5939,0.5464,0.4933,0.4133,0.3227,0.2184,0.1281,0.0622,0.0357,-0.0155,-0.0464,-0.0197,-0.0044,-0.0221,-0.1025,-0.0918,-0.0851,-0.1116,-0.1007,-0.1007,-0.1316,-0.1408,-0.1496,-0.1601,-0.1623,-0.1873,-0.241,-0.4418,-0.4766,-0.2923,-0.4069,-0.4044,-0.2538,-0.164,-0.084,-0.0103,-0.1989,-0.4187,-0.6705,-0.9092,-1.0876,0.0,0.0,0.0,0.0,0.0,0.0,0.0,0.0,0.9738,1.003,1.0122,1.0246,1.0475,1.0543,1.0745,1.1275,1.1618,1.1398,1.0122,0.9649,0.9202,0.8634,0.8876,0.931,0.9848,1.0781,1.1484,1.183,1.243,1.259,1.2212,1.2211,1.2198,1.2186,1.1884,1.192,1.2233,1.2138,1.2282,1.2591,1.2591,1.2697,1.2814,1.2311,1.1822,1.1412,1.0717,1.0131,0.9698,0.9802,0.9541,0.9095,0.9192,0.8752,0.8061,0.7876,0.7938,0.8141,0.798,0.8218,0.8583,0.8404,0.8138,0.7811,0.7502,0.7268,0.7017,0.6542,0.6627,0.6798,0.6374,0.6211,0.6012,0.5531,0.5061,0.4386,0.3083,0.2314,0.1766,0.1372,0.0624,0.0198,0.0588,0.0721,0.0374,-0.071,-0.0733,-0.0713,-0.0962,-0.0962,-0.0938,-0.0847,-0.1208,-0.1366,-0.1094,-0.138,-0.1595,-0.1645,-0.3494,-0.4155,-0.3206,-0.4564,-0.4951,-0.4103,-0.3134,-0.265,-0.2637,-0.3691,-0.5533,-0.8094,-0.9842,-1.1512,0.8026,0.9342,1.0591,1.1869,1.2212,1.2092,0.0,0.0,1.1843,1.0051,1.0092,1.0251,0.9603,1.0227,1.0717,1.0264,1.0777,1.0546,0.8612,0.8563,0.8396,0.7502,0.7754,0.8409,0.9444,0.9841,1.0486,1.1631,1.1839,1.1799,1.1457,1.1689,1.17,1.1367,1.1505,1.1627,1.1597,1.1748,1.1957,1.2186,1.2246,1.2354,1.252,1.2176,1.1976,1.1854,1.0845,0.9992,0.9366,0.9552,0.9516,0.9365,0.956,0.9419,0.9117,0.8911,0.8633,0.8434,0.8931,0.9031,0.89,0.8656,0.8336,0.7952,0.7328,0.7168,0.7093,0.6551,0.6432,0.6535,0.6829,0.6211,0.5504,0.5489,0.5007,0.4402,0.3943,0.318,0.2533,0.2363,0.1267,0.0397,0.0506,-0.0044,-0.0487,-0.0461,0.0,0.0133,-0.0493,-0.0517,-0.0515,-0.0625,-0.0847,-0.0961,-0.0914,-0.1072,-0.1463,-0.216,-0.3219,-0.3915,-0.413,-0.4772,-0.4669,-0.3681,-0.2619,-0.1501,-0.0293,-0.0486,-0.2491,-0.6135,-0.7375,-1.0226,0.9718,1.077,1.1664,0.0,1.2546,1.2365,1.3131,1.2919,1.2307,1.1415,1.1129,1.0981,1.0837,1.0957,1.1148,0.0,1.1161,1.0499,0.9254,0.8835,0.8375,0.7623,0.7935,0.8581,0.9505,1.002,1.0562,1.1254,1.1133,1.0909,1.0558,1.0884,1.0931,1.0558,1.093,1.1255,1.1501,1.1627,1.1799,1.2113,1.2138,1.2186,1.2234,1.179,1.1337,1.0845,1.0104,0.9622,0.9354,0.9434,0.9473,0.9473,0.9591,0.9473,0.92,0.8936,0.8836,0.8855,0.8788,0.8896,0.901,0.8712,0.8488,0.822,0.7621,0.7434,0.7316,0.6781,0.6695,0.6747,0.6656,0.6367,0.6053,0.5845,0.5583,0.5226,0.4704,0.4074,0.3488,0.3003,0.2184,0.1507,0.1355,0.1036,0.0682,0.0307,0.0265,0.0133,-0.0268,-0.0089,-0.0045,-0.0334,-0.0537,-0.0659,-0.0605,-0.091,-0.1356,-0.1981,-0.2922,-0.3779,-0.4492,-0.5834,-0.6536,-0.6509,-0.6187,-0.5118,-0.3273,-0.3894,-0.4813,-0.6033,-0.8343,-1.095,1.0872,1.152,0.0,1.2846,1.2524,1.2388,1.3944,1.3129,1.2043,1.207,1.1351,1.0813,1.1089,1.0939,1.0932,1.1421,1.0893,1.01,0.9239,0.8822,0.8397,0.7756,0.815,0.8688,0.9327,0.9846,1.0354,1.0788,1.0552,1.0266,0.9929,1.0312,1.0393,1.0062,1.0501,1.0926,1.133,1.1442,1.1638,1.1943,1.1979,1.2016,1.2004,1.1663,1.1122,1.0449,0.9932,0.9655,0.9529,0.9414,0.9366,0.9432,0.9485,0.9405,0.9251,0.8953,0.9008,0.9185,0.8865,0.8931,0.9151,0.8894,0.8684,0.8439,0.7917,0.7538,0.7205,0.6854,0.6631,0.6529,0.6449,0.6421,0.6329,0.6052,0.5928,0.5738,0.5325,0.4886,0.437,0.3615,0.2959,0.2347,0.1776,0.1549,0.124,0.0643,0.0289,0.0067,-0.0022,0.0245,0.0312,-0.0022,-0.0283,-0.0407,-0.0403,-0.0777,-0.1234,-0.1774,-0.2625,-0.3612,-0.4762,-0.6486,-0.7789,-0.8608,-0.8685,-0.7737,-0.5765,-0.7048,-0.7248,-0.6571,-0.9924,-1.2195,1.0675,0.0,1.1314,1.2414,1.2554,1.2637,1.3608,1.2427,1.116,1.1219,1.0085,0.9107,0.9164,0.9429,0.9506,0.9069,0.9249,0.8958,0.7578,0.7961,0.8144,0.751,0.7959,0.8387,0.0,0.8897,0.9442,1.0359,1.0244,0.998,0.9728,1.0159,1.0276,1.0011,1.0399,1.0697,1.0916,1.1099,1.1335,1.1522,1.1708,1.1819,1.1819,1.1993,1.1849,1.1442,1.095,1.0424,0.9852,0.9403,0.9205,0.9205,0.9205,0.9324,0.9458,0.9247,0.922,0.9328,0.9581,0.9528,0.9381,0.9381,0.9019,0.8502,0.8034,0.721,0.6457,0.6566,0.6012,0.5523,0.6309,0.6222,0.5912,0.5921,0.5703,0.5554,0.5734,0.5517,0.504,0.432,0.3477,0.2509,0.1341,0.0635,0.0247,0.0225,0.0156,0.0178,0.0356,0.0512,0.0512,0.0311,-0.0022,-0.027,-0.0379,-0.0647,-0.1094,-0.1759,-0.2324,-0.3365,-0.502,-0.6266,-0.7483,-0.8676,-0.8397,-0.745,-0.5905,-0.7886,-0.837,-0.7543,-1.1428,-1.3606,1.1829,0.0,1.216,1.3109,1.3067,1.2858,1.3248,1.2279,1.1097,1.0409,0.9878,0.9492,0.9379,0.9743,0.9912,0.9436,0.9057,0.8609,0.8047,0.8112,0.813,0.7894,0.8705,0.0,0.0,0.0,0.0,0.9979,0.9717,0.947,0.9369,0.9751,0.9862,0.9555,1.0237,1.0697,1.0916,1.1099,1.1346,1.1645,1.1756,1.1603,1.1268,1.1444,1.1319,1.0967,1.0793,1.0544,1.0247,1.0148,1.0091,0.9985,0.9788,0.9775,0.9796,0.9509,0.9393,0.9381,0.942,0.9446,0.9458,0.9354,0.9178,0.8926,0.8556,0.7663,0.6764,0.6638,0.5915,0.5276,0.5713,0.574,0.5686,0.5928,0.5921,0.5952,0.6091,0.6142,0.5939,0.5204,0.4258,0.3181,0.2018,0.0969,0.0154,-0.0146,0.0438,0.0666,0.0022,0.0643,0.0911,0.0356,0.0328,0.0142,-0.0289,-0.0629,-0.1059,-0.1696,-0.2372,-0.3021,-0.3688,-0.5346,-0.697,-0.8538,-0.9417,-0.9499,-0.8767,-1.0094,-1.0095,-0.8899,-1.1727,-1.3237,1.2604,1.2699,1.2895,1.3499,1.3199,1.2779,1.2916,1.1758,1.0532,1.008,0.9577,0.9189,0.9066,0.9276,0.9325,0.8901,0.8304,0.7951,0.8112,0.8123,0.8121,0.8096,0.8829,0.0,0.0,0.0,0.0,0.9972,0.9667,0.9558,0.9766,1.0015,1.0042,0.9747,1.0385,1.0764,1.085,1.1061,1.1309,1.1571,1.1645,1.153,1.1303,1.1361,1.1331,1.1246,1.106,1.0946,1.087,1.0772,1.0691,1.0582,1.0393,1.0314,1.0273,0.988,0.9678,0.9548,0.9479,0.942,0.9378,0.9313,0.9193,0.9031,0.8662,0.7825,0.6954,0.6813,0.5957,0.5132,0.5451,0.549,0.5498,0.5742,0.5828,0.5944,0.6307,0.6482,0.6384,0.5699,0.5025,0.4043,0.2493,0.1154,0.0106,-0.0481,0.028,0.0731,0.0177,0.1022,0.1533,0.1086,0.1025,0.07,-0.0022,-0.0602,-0.1218,-0.185,-0.2502,-0.295,-0.3138,-0.487,-0.6654,-0.8379,-0.9976,-1.0584,-1.0199,-1.179,-1.1711,-1.0137,-1.256,-1.3747,1.2986,1.319,1.3454,1.3544,1.3019,1.2466,1.244,1.079,0.942,1.0008,0.9086,0.815,0.0,0.0,0.7889,0.7519,0.7145,0.7059,0.7639,0.8008,0.8177,0.0,0.0,0.0,0.0,0.0,0.0,1.0254,0.0,1.0149,1.0725,1.0736,1.0688,1.051,1.0788,1.0916,1.0784,1.0995,1.1195,1.1384,1.1421,1.1549,1.1774,1.1782,1.1918,1.2187,1.1814,1.167,1.1702,1.126,1.1058,1.1058,1.0971,1.0935,1.0848,1.0392,1.0021,0.9788,0.9722,0.9473,0.919,0.9282,0.9112,0.8833,0.8477,0.7677,0.6965,0.7059,0.6107,0.5117,0.5496,0.5446,0.5309,0.539,0.5446,0.5641,0.6337,0.6573,0.6457,0.5891,0.5715,0.4977,0.2702,0.1237,0.0076,-0.0755,-0.021,0.0374,0.0618,0.1488,0.2117,0.2219,0.1866,0.1219,0.0286,-0.0659,-0.1504,-0.2215,-0.2773,-0.3178,-0.3397,-0.49,-0.6517,-0.8193,-0.9952,-1.0653,-1.0306,-1.2847,-1.312,-1.1352,-1.3905,-1.503,1.36,1.3595,1.3572,1.3378,1.2817,1.1958,1.0485,0.9318,0.8453,0.8126,0.7659,0.7421,0.0,0.0,0.0,0.7184,0.75,0.0,0.6853,0.7678,0.0,0.7853,0.0,0.9204,0.8931,0.9744,0.0,0.0,1.0187,1.0101,0.991,1.014,1.0312,1.0358,1.0426,1.0582,1.0784,1.1061,1.1147,1.104,1.1516,1.1664,1.1468,1.2186,1.2377,1.2138,1.2412,1.2318,1.2013,1.2036,1.1943,1.1803,1.1588,1.1263,1.086,1.0497,1.0069,0.9707,0.9586,0.9232,0.8895,0.9368,0.9204,0.8844,0.9003,0.8326,0.7442,0.7183,0.6273,0.5374,0.5428,0.5249,0.5182,0.5665,0.5975,0.6168,0.6307,0.6794,0.7125,0.688,0.6049,0.4791,0.287,0.1757,0.0769,-0.0304,-0.0234,-0.0377,-0.1189,-0.0245,0.0336,-0.0088,0.0157,0.0,-0.0893,-0.1115,-0.1728,-0.2948,-0.3759,-0.402,-0.3647,-0.5107,-0.6404,-0.7395,-0.9166,-1.0574,-1.1543,-1.3206,-1.393,-1.3809,-1.4644,-1.5087,1.3899,1.399,1.3918,1.3371,1.2711,1.171,0.9817,0.8912,0.8286,0.7576,0.753,0.0,0.0,0.0,0.0,0.0,0.0,0.0,0.657,0.7173,0.7704,0.0,0.8695,0.0,0.9399,1.0213,1.0578,0.0,1.0442,1.0481,1.0176,1.0566,1.0662,1.0294,1.0699,1.0975,1.1142,1.1452,1.149,1.1356,1.1884,1.2029,1.1836,1.2425,1.2579,1.2365,0.0,1.2591,1.2282,1.2401,1.2437,1.2413,1.2291,1.2025,1.1712,1.1388,1.0966,1.051,1.0269,0.9632,0.8952,0.9162,0.8928,0.8662,0.8784,0.8662,0.8311,0.75,0.6813,0.6219,0.5738,0.5427,0.531,0.5605,0.6091,0.6466,0.6452,0.6885,0.7333,0.7373,0.643,0.5195,0.3816,0.2663,0.1546,0.0446,0.0119,-0.0287,-0.1097,-0.018,0.0364,-0.011,0.0318,0.016,-0.1045,-0.1329,-0.2005,-0.3256,-0.4043,-0.4503,-0.4581,-0.5299,-0.6379,-0.7817,-0.9187,-1.0656,-1.2216,-1.3604,-1.446,-1.4833,-1.5016,-1.5163,1.404,1.4314,1.4287,1.3544,1.2681,1.1567,0.9909,0.9057,0.8415,0.7732,0.0,0.8074,0.7363,0.7866,0.7888,0.6353,0.0,0.635,0.649,0.6734,0.7168,0.7889,0.8605,0.9283,0.9858,1.0497,1.0685,1.0278,1.0735,1.096,1.0795,1.133,1.1212,1.0283,1.1099,1.1511,1.1457,1.1774,1.192,1.1872,1.2222,1.2401,1.2437,1.2567,1.265,1.2709,0.0,0.0,1.2544,1.2508,1.2615,1.2768,1.2861,1.2859,1.2714,1.2489,1.2053,1.1494,1.1173,1.0265,0.9223,0.8899,0.8605,0.8393,0.8319,0.8876,0.9293,0.8046,0.7627,0.7334,0.6313,0.5807,0.5538,0.5476,0.5991,0.6532,0.6587,0.6927,0.7324,0.7588,0.6875,0.5967,0.5121,0.382,0.2519,0.1386,0.0805,0.0356,-0.0066,0.0629,0.1066,0.0809,0.1144,0.0756,-0.0785,-0.1438,-0.225,-0.3423,-0.409,-0.482,-0.5647,-0.566,-0.6586,-0.8606,-0.9556,-1.0789,-1.2367,-1.3769,-1.4625,-1.4992,-1.5126,-1.5221,1.4214,1.4387,1.43,1.3753,1.2605,1.1265,0.995,0.8868,0.0,0.0,0.7634,0.7597,0.7388,0.7883,0.0,0.6278,0.0,0.0,0.0,0.0,0.7719,0.0,0.0,0.0,0.0,0.0,0.0,0.0,0.0,0.0,1.0174,1.0772,1.084,1.0157,1.0467,1.0687,1.0867,1.1029,1.1282,1.1653,1.2138,1.2258,1.2018,1.2532,1.2733,1.2674,0.0,0.0,1.2662,1.2544,1.2508,1.2579,1.292,1.2787,1.2378,1.2474,1.1936,1.1153,1.0922,1.0316,0.9563,0.928,0.8836,0.8439,0.8706,0.9266,0.9678,0.8884,0.8548,0.8158,0.7079,0.6326,0.5838,0.5805,0.5913,0.6129,0.6452,0.6954,0.7431,0.7705,0.7364,0.6766,0.601,0.5153,0.4041,0.2474,0.1894,0.13,0.0422,0.0111,0.0045,0.0153,0.0223,-0.0224,-0.1441,-0.1487,-0.2203,-0.3952,-0.479,-0.5334,-0.5614,-0.6792,-0.7571,-0.7803,-0.9361,-1.0656,-1.1689,-1.303,-1.4076,-1.484,-1.5041,-1.5158,1.3108,1.3318,1.319,1.294,1.1769,1.0425,0.9554,0.0,0.0,0.0,0.784,0.8016,0.7841,0.0,0.0,0.0,0.0,0.0,0.0,0.0,0.0,0.0,0.0,0.0,0.0,0.0,0.0,0.0,0.0,0.0,1.0056,0.9993,1.0293,1.1008,1.0437,1.058,1.1579,1.1468,1.1653,1.2054,1.2473,1.2615,1.2544,1.2931,1.3047,1.2965,1.2941,0.0,1.2988,1.3022,1.3057,1.316,1.3501,1.336,1.2964,1.3201,1.2864,1.2199,1.1622,1.1042,1.046,0.9785,0.9334,0.9107,0.9236,1.0049,1.0675,0.9417,0.9266,0.9182,0.792,0.7055,0.6466,0.6252,0.6236,0.6352,0.6695,0.7213,0.7686,0.7908,0.7666,0.7249,0.6701,0.5965,0.5073,0.4072,0.325,0.2602,0.221,0.1418,0.0662,0.0022,0.0221,-0.0066,-0.1235,-0.1301,-0.1905,-0.334,-0.4373,-0.5221,-0.5873,-0.6933,-0.7715,-0.8223,-0.9521,-1.0676,-1.1665,-1.2981,-1.4048,-1.4908,-1.5075,-1.5183,1.2104,1.2448,1.2399,1.2244,1.1125,0.9927,0.9397,0.8725,0.0,0.0,0.8398,0.8698,0.8471,0.0,0.8322,0.0,0.0,0.0,0.0,0.0,0.0,0.0,0.0,0.0,0.0,0.0,0.0,0.0,0.0,0.0,1.0479,0.9811,1.0089,1.1531,1.0647,1.0771,1.2029,1.1872,1.1982,1.2437,1.2685,1.2873,1.3037,1.3116,1.3207,1.3229,1.3263,0.0,0.0,1.3399,1.348,1.3568,1.3868,1.3802,1.3547,1.3848,1.3736,1.3337,1.2641,1.1991,1.1394,1.0728,1.0116,0.9632,0.9566,1.0496,1.1231,0.9718,0.9734,0.9926,0.8609,0.7845,0.729,0.6734,0.6703,0.6831,0.6892,0.729,0.7705,0.7898,0.7724,0.7432,0.7118,0.6539,0.5913,0.5431,0.4564,0.3929,0.3881,0.3023,0.1934,0.0721,0.0797,0.0534,-0.0486,-0.0729,-0.1228,-0.2169,-0.3359,-0.4584,-0.585,-0.6611,-0.7584,-0.8802,-0.9574,-1.0485,-1.1553,-1.2712,-1.3728,-1.4587,-1.4967,-1.5193,1.2199,1.2824,1.311,1.2669,1.1571,1.0552,1.0253,0.0,0.0,0.9157,0.9245,0.9219,0.9209,0.9016,0.8507,0.7374,0.0,0.7368,0.0,0.0,0.0,0.0,0.0,0.0,0.0,0.0,0.0,0.0,0.0,0.0,0.0,1.1162,1.0715,1.0524,1.0781,1.0905,1.0867,1.1207,1.1616,1.215,1.233,1.2556,1.2745,1.2556,1.2826,1.3344,0.0,0.0,0.0,1.3216,1.3126,1.3,1.3412,1.3581,1.3615,1.3775,1.3712,1.3613,1.3709,1.2872,1.1883,1.2576,1.1255,0.9429,0.941,0.9881,1.0317,0.9734,0.9777,0.984,0.9039,0.8645,0.8198,0.7187,0.7195,0.7281,0.6739,0.6913,0.7235,0.7432,0.7344,0.7196,0.7047,0.7002,0.6705,0.5945,0.5588,0.5103,0.4268,0.3908,0.3481,0.2872,0.1985,0.1262,0.0842,0.0524,0.0043,-0.0653,-0.1839,-0.3227,-0.4863,-0.6097,-0.7413,-0.8866,-0.9098,-0.9702,-1.0708,-1.157,-1.2392,-1.3214,-1.4451,-1.5043,1.0854,1.1552,1.1846,1.1544,1.0523,0.9616,0.9625,0.0,0.8443,0.9192,0.9316,0.9351,0.9454,0.9293,0.8912,0.8155,0.7766,0.0,0.0,0.0,0.0,0.0,0.0,0.0,0.0,0.0,0.0,0.0,0.0,0.0,0.0,1.1706,1.1318,1.1302,1.0925,1.0745,1.0867,1.0981,1.1282,1.1737,1.2102,1.2365,1.252,1.2556,1.2826,1.3263,0.0,0.0,0.0,1.3848,1.3848,1.3848,1.4111,1.4124,1.3993,1.4105,1.4105,1.3991,1.3801,1.3444,1.3053,1.305,1.232,1.1361,1.082,1.1109,1.1337,1.0191,1.016,1.025,0.9554,0.9039,0.8367,0.7106,0.7379,0.7708,0.69,0.7234,0.7734,0.786,0.7618,0.7412,0.7471,0.7481,0.7357,0.7025,0.6665,0.6208,0.5549,0.486,0.4252,0.375,0.2921,0.2229,0.1829,0.1613,0.1117,0.0171,-0.0885,-0.1876,-0.2784,-0.3886,-0.5359,-0.7242,-0.7007,-0.8063,-1.0476,-1.0603,-1.1434,-1.2947,-1.3687,-1.4424,1.0229,1.0677,1.084,1.0764,0.9944,0.9199,0.0,0.0,0.8492,0.9245,0.9316,0.9331,0.9544,0.9345,0.9008,0.8507,0.8019,0.7704,0.7725,0.0,0.0,0.0,0.0,0.0,0.0,0.0,0.0,0.0,0.0,0.0,0.0,1.2108,1.1976,1.2075,1.1338,1.0954,1.1036,1.1016,1.1105,1.133,1.192,1.2291,1.2527,1.2627,1.2959,1.3386,0.0,0.0,0.0,1.4105,1.4124,1.4157,1.4365,1.4319,1.4157,1.4319,1.4415,1.4474,1.423,1.4082,1.3984,1.3813,1.3487,1.2983,1.2143,1.1966,1.1746,1.0402,1.0248,1.0409,0.9928,0.9453,0.8791,0.778,0.8063,0.8369,0.7543,0.7876,0.8277,0.8213,0.7927,0.7724,0.7821,0.7869,0.7859,0.7724,0.7462,0.709,0.66,0.5876,0.524,0.4794,0.4279,0.3717,0.3099,0.2812,0.2434,0.1865,0.0865,0.01,-0.0364,-0.1244,-0.2973,-0.5612,-0.5312,-0.6616,-0.9642,-0.9816,-1.0542,-1.1772,-1.2845,-1.3952,1.0899,1.0787,1.0624,1.0764,1.0348,0.9822,0.0,0.0,0.9274,0.9542,0.9375,0.9271,0.9458,0.9177,0.8712,0.8094,0.7954,0.7713,0.7195,0.0,0.0,0.0,0.0,0.0,0.0,0.0,0.0,0.0,0.0,0.0,0.0,1.2645,1.2819,1.2489,1.2097,1.1642,1.1114,1.125,1.1169,1.0916,1.1737,1.2341,1.2773,1.2721,1.3095,0.0,0.0,0.0,0.0,1.3741,1.3708,1.3527,1.3741,1.3894,1.4032,1.4222,1.4592,1.5043,1.5374,1.495,1.4443,1.5301,1.4805,1.3755,1.2997,1.2048,1.1016,1.0069,0.9957,1.0097,1.0097,0.9995,0.9818,0.954,0.949,0.9348,0.8791,0.8727,0.8672,0.8263,0.8189,0.8143,0.7945,0.8184,0.8251,0.7783,0.781,0.7706,0.7157,0.697,0.6718,0.6319,0.6265,0.5858,0.4855,0.4171,0.4111,0.4913,0.3816,0.2888,0.228,0.1607,-0.0532,-0.4347,-0.4485,-0.5602,-0.7819,-0.9225,-0.9595,-0.9115,-1.1902,-1.3857,1.0314,1.0529,1.059,1.0208,0.9649,0.9191,0.9091,0.0,0.8701,0.9104,0.9023,0.8732,0.8279,0.8517,0.8492,0.7667,0.7903,0.7989,0.0,0.0,0.0,0.0,0.0,0.0,0.0,0.0,0.0,0.0,0.0,0.0,0.0,0.0,1.2131,1.235,1.2625,1.233,1.1379,1.1704,1.1548,1.0916,1.192,1.2267,1.2121,1.2556,0.0,0.0,0.0,0.0,0.0,1.3821,1.3828,1.3868,1.3993,1.417,1.4319,1.4511,1.4749,1.5043,1.5329,1.5286,1.514,1.5285,1.5183,1.4688,1.2981,1.2262,1.1748,1.0496,1.0135,1.0122,1.0173,1.011,0.9931,0.9473,0.9601,0.9641,0.8924,0.8953,0.907,0.8799,0.859,0.8434,0.8344,0.8344,0.8326,0.8148,0.8293,0.8268,0.7723,0.8105,0.8027,0.7024,0.7132,0.678,0.5579,0.538,0.5172,0.4877,0.4454,0.4142,0.3957,0.4228,0.2469,-0.1579,-0.1373,-0.2892,-0.6295,-0.7665,-0.9132,-1.0683,-1.2492,-1.3932,1.0321,1.0261,1.0155,0.9956,0.9344,0.0,0.0,0.8551,0.8347,0.8623,0.8484,0.8157,0.7657,0.7987,0.808,0.7344,0.7653,0.0,0.0,0.0,0.0,0.0,0.0,0.0,0.0,0.0,0.0,0.0,0.0,0.0,0.0,0.0,1.1787,1.2235,1.27,1.2623,1.1897,1.188,1.1556,1.0892,1.1667,1.2084,1.2166,1.2531,0.0,0.0,0.0,0.0,0.0,1.3708,1.3795,1.3947,1.4078,1.4254,1.4429,1.4651,1.4794,1.4935,1.5134,1.5225,1.5269,1.5163,1.4832,1.4141,1.2469,1.1734,1.1308,1.0431,1.0122,1.0174,1.0457,1.0379,1.0222,1.0177,1.0268,1.0218,0.9636,0.9729,0.9804,0.9506,0.9334,0.9158,0.8915,0.8899,0.8828,0.8477,0.8673,0.8754,0.851,0.8985,0.9089,0.8381,0.8515,0.8306,0.7436,0.6648,0.6236,0.6277,0.5931,0.5907,0.6349,0.6772,0.5461,0.2149,0.2327,0.001,-0.4961,-0.7596,-1.0,-1.217,-1.3001,-1.3964,0.0,1.0067,0.9488,0.0,0.0,0.0,0.0,0.8449,0.0,0.8158,0.7899,0.7627,0.7501,0.7588,0.7539,0.7148,0.7314,0.0,0.0,0.0,0.0,0.0,0.0,0.0,0.0,0.0,0.0,0.0,0.0,0.0,0.0,0.0,1.1671,1.2121,1.2361,1.2515,1.2579,1.1919,1.1399,1.0991,1.1271,1.1817,1.2623,1.2541,0.0,0.0,0.0,0.0,0.0,1.3446,1.3594,1.3821,1.3947,1.4144,1.4429,1.462,1.4683,1.4732,1.4859,1.4907,1.4937,1.4956,1.3924,1.254,1.167,1.0756,1.0021,1.0021,1.0046,1.0251,1.0871,1.073,1.0581,1.1345,1.1261,1.092,1.0753,1.0801,1.0753,1.031,1.0261,1.0135,0.9633,0.9659,0.9514,0.8756,0.8933,0.9209,0.9403,0.9728,0.9973,1.0121,1.0263,1.0259,1.0055,0.8069,0.7378,0.8618,0.7952,0.7972,0.8957,0.908,0.8191,0.6259,0.5705,0.2336,-0.3919,-0.866,-1.1782,-1.3356,-1.3387,-1.397,1.1024,0.0,0.9369,0.9271,0.8672,0.807,0.0,0.7879,0.0,0.0,0.0,0.0,0.0,0.7291,0.7201,0.7054,0.7148,0.0,0.0,0.0,0.0,0.0,0.0,0.0,0.0,0.0,0.0,0.0,0.0,0.0,0.0,0.0,1.1081,1.148,1.2058,1.2616,1.3191,1.2936,1.2393,1.1612,1.2174,1.2253,1.1856,1.2365,0.0,0.0,0.0,0.0,1.3547,1.3331,1.3514,1.3841,1.3749,1.398,1.4429,1.4461,1.4651,1.4856,1.489,1.5027,1.5121,1.4645,1.3586,1.2416,1.183,1.0911,1.0097,1.0148,1.0173,1.0199,1.0367,1.0404,1.0489,1.0832,1.0789,1.0705,1.0825,1.0801,1.0705,1.0534,1.0398,1.0223,1.0008,0.9621,0.9304,0.9209,0.9398,0.9584,0.9688,1.0572,1.1008,1.0611,1.0731,1.1004,1.1392,1.0046,0.9087,0.8794,0.8727,0.8515,0.8124,0.9375,0.8955,0.656,0.2089,-0.1468,-0.4058,-0.8466,-1.1444,-1.3011,-1.3228,-1.3904,1.1015,1.026,0.9609,0.9266,0.864,0.807,0.785,0.7705,0.7647,0.0,0.0,0.0,0.0,0.0,0.0,0.0,0.0,0.0,0.0,0.0,0.0,0.0,0.0,0.0,0.0,0.0,0.0,0.0,0.0,0.0,0.0,0.0,1.0722,1.1004,1.1326,1.2045,1.3248,1.3236,1.2838,1.2088,1.2445,1.2347,1.1847,1.2425,0.0,0.0,0.0,0.0,1.3547,1.348,1.3628,1.3854,1.3861,1.4059,1.4365,1.4365,1.4556,1.4808,1.4686,1.4628,1.4483,1.387,1.3193,1.2499,1.183,1.1467,1.119,1.0664,1.0638,1.0834,1.103,1.0909,1.0797,1.1182,1.108,1.092,1.0897,1.0825,1.0777,1.0705,1.0619,1.0567,1.0551,1.0354,1.0205,1.0315,1.0387,1.0497,1.0654,1.1269,1.1657,1.1569,1.1752,1.2031,1.2428,1.1875,1.117,1.0367,0.9714,0.9334,0.927,0.9856,0.957,0.8316,0.3411,-0.0562,-0.3515,-0.7663,-1.0878,-1.3178,-1.3359,-1.3596,1.0944,1.0398,0.9957,0.9475,0.8855,0.828,0.7879,0.7705,0.7608,0.0,0.0,0.0,0.0,0.7763,0.0,0.0,0.0,0.0,0.0,0.0,0.0,0.0,0.0,0.0,0.0,0.0,0.0,0.0,0.0,0.0,0.0,0.0,0.0,1.0687,1.0633,1.1367,1.3031,1.3112,1.2952,1.2605,1.2527,1.2395,1.229,1.2615,1.2978,0.0,0.0,0.0,1.3459,1.3674,1.3821,1.3888,1.404,1.417,1.43,1.4268,1.4429,1.4592,1.4414,1.4059,1.3595,1.2997,1.2802,1.2692,1.187,1.2265,1.2706,1.1502,1.1361,1.1576,1.1799,1.1489,1.1226,1.1696,1.1561,1.127,1.1062,1.0968,1.092,1.0873,1.0897,1.0987,1.1156,1.1277,1.1337,1.1467,1.1439,1.1505,1.1707,1.187,1.2133,1.2575,1.2794,1.2977,1.3139,1.3261,1.3058,1.2426,1.0966,1.0408,1.1076,1.0382,1.0149,1.0584,0.6643,0.256,-0.159,-0.6225,-0.9842,-1.2433,-1.3164,-1.315,1.1293,1.0774,1.0209,0.928,0.8651,0.8148,0.785,0.7705,0.7618,0.0,0.0,0.0,0.0,0.7754,0.0,0.0,0.0,0.0,0.0,0.0,0.0,0.0,0.0,0.0,0.0,0.0,0.0,0.0,0.0,0.0,0.0,0.0,0.0,1.0621,1.0855,1.1542,1.2687,1.2882,1.312,1.3488,1.3051,1.2923,1.3113,1.277,1.2743,0.0,0.0,1.3573,1.321,1.3493,1.3828,1.4105,1.3762,1.3894,1.4268,1.404,1.4138,1.4315,1.4054,1.3877,1.3539,1.2532,1.2611,1.2936,1.2362,1.3106,1.3882,1.2761,1.2061,1.1531,1.0908,1.0914,1.1137,1.1352,1.1419,1.146,1.1489,1.1307,1.1155,1.1132,1.1085,1.1187,1.1556,1.1468,1.1483,1.1782,1.1959,1.202,1.1902,1.2317,1.2689,1.2762,1.2906,1.3086,1.3346,1.3429,1.354,1.3689,1.2632,1.1875,1.1588,1.0727,1.0763,1.1884,0.7682,0.4989,0.3949,-0.3754,-0.7512,-0.7586,-1.1349,-1.2554,1.1187,1.075,1.0272,0.9609,0.8926,0.8326,0.7974,0.784,0.7881,0.8319,0.0,0.0,0.0,0.0,0.0,0.0,0.0,0.0,0.0,0.0,0.0,0.0,0.0,0.0,0.0,0.0,0.0,0.0,0.0,0.0,0.0,0.0,0.0,0.0,1.0852,1.1302,1.1951,1.239,1.2813,1.3308,1.2921,1.2826,1.3011,1.2794,1.2838,1.306,0.0,1.3539,1.3012,1.3446,1.3682,1.3795,1.3615,1.3782,1.4144,1.4351,1.4147,1.3789,1.4126,1.3642,1.2798,1.2348,1.2642,1.3166,1.2968,1.3899,1.4875,1.3939,1.3172,1.2512,1.1998,1.1674,1.1607,1.2049,1.197,1.1762,1.1674,1.1407,1.1215,1.1262,1.127,1.1386,1.1843,1.2056,1.2282,1.2662,1.2755,1.2736,1.2568,1.2748,1.2962,1.3071,1.314,1.3261,1.3493,1.3575,1.3526,1.3313,1.2598,1.1904,1.1288,1.0515,1.017,1.0358,0.9279,0.6965,0.3413,0.0886,-0.1454,-0.3624,-0.5379,-0.6726,1.1085,1.0715,1.036,0.9841,0.9317,0.8844,0.8521,0.8442,0.86,0.9067,0.0,0.0,0.0,0.0,0.0,0.0,0.0,0.0,0.0,0.0,0.0,0.0,0.0,0.0,0.0,0.0,0.0,0.0,0.0,0.0,0.0,0.0,0.0,0.0,1.0966,1.1157,1.1316,1.1869,1.2457,1.3023,1.2792,1.2843,1.3163,1.3027,1.2951,1.2908,1.3446,1.3301,1.2712,1.3254,1.3511,1.3594,1.3648,1.3782,1.4046,1.4529,1.4111,1.3438,1.4141,1.3419,1.2227,1.251,1.2961,1.3435,1.37,1.4691,1.5533,1.4604,1.4062,1.363,1.3025,1.2294,1.1859,1.2479,1.2349,1.2012,1.1848,1.1541,1.1339,1.1429,1.146,1.163,1.2153,1.2581,1.2982,1.3379,1.3396,1.3346,1.3193,1.3158,1.3192,1.3345,1.3378,1.3476,1.3667,1.3774,1.3555,1.2976,1.2525,1.1957,1.1206,1.0546,0.9868,0.9151,1.0794,0.9036,0.3728,0.5034,0.3891,0.0476,-0.0225,-0.1427,1.1132,1.0873,1.057,0.9725,0.971,0.9875,0.9794,0.995,1.0035,0.9723,0.0,0.0,0.0,0.0,0.0,0.0,0.0,0.0,0.0,0.0,0.0,0.0,0.0,0.0,0.0,0.0,0.0,0.0,0.0,0.0,0.0,0.0,0.0,0.0,0.0,1.1362,1.1033,1.148,1.2235,1.3163,1.303,1.3395,1.4177,1.3758,1.3032,1.2226,1.2788,1.2692,1.2127,1.2756,1.3369,1.3874,1.3888,1.3874,1.3941,1.4098,1.383,1.3465,1.3969,1.3229,1.2249,1.3205,1.3579,1.3819,1.463,1.5433,1.5738,1.4255,1.4347,1.4494,1.2887,1.1936,1.1505,1.1806,1.2043,1.2174,1.2169,1.1848,1.1659,1.1906,1.1747,1.1803,1.2533,1.2838,1.3107,1.3446,1.3592,1.3622,1.3493,1.3526,1.3557,1.3589,1.3619,1.3743,1.3955,1.4078,1.4011,1.3646,1.3293,1.2776,1.2045,1.1434,1.0794,1.0115,1.181,1.1521,0.9133,0.6939,0.5743,0.5382,0.1052,-0.0097,1.1108,1.1124,1.1017,1.0408,1.0677,1.09,1.0084,1.0083,1.0242,1.021,1.0322,0.0,0.0,0.0,0.0,0.0,0.0,0.0,0.0,0.0,0.0,0.0,0.0,0.0,0.0,0.0,0.0,0.0,0.0,0.0,0.0,0.0,0.0,0.0,0.0,1.1558,1.1391,1.1491,1.1788,1.2196,1.2095,1.2624,1.3601,1.3122,1.2704,1.2372,1.2672,1.2657,1.2428,1.2026,1.2317,1.2987,1.3162,1.3461,1.3874,1.4351,1.3816,1.2922,1.3526,1.3113,1.2409,1.2735,1.3517,1.4385,1.4719,1.5357,1.5773,1.4769,1.469,1.4569,1.2942,1.2826,1.3167,1.3229,1.3089,1.2947,1.2947,1.2271,1.1747,1.2003,1.1961,1.1946,1.2276,1.2778,1.3139,1.3193,1.3477,1.3669,1.3636,1.3667,1.3761,1.3836,1.3791,1.3809,1.3915,1.3909,1.3874,1.3838,1.3048,1.2584,1.2613,1.1268,1.0635,1.0887,1.2148,1.1672,0.9386,0.9807,0.9481,0.8449,0.698,0.5757,1.1015,1.1164,1.1228,1.0749,1.1186,1.1536,1.0813,1.077,1.0877,1.0833,1.0672,1.0334,0.9648,0.0,0.0,0.0,0.0,0.0,0.0,0.0,0.0,0.0,0.0,0.0,0.0,0.0,0.0,0.0,0.0,0.0,0.0,0.0,0.0,0.0,0.0,0.0,1.1501,1.1452,1.1468,1.1579,1.159,1.2046,1.2817,1.2763,1.2492,1.2133,1.2499,1.2504,1.2244,1.1603,1.1833,1.2602,1.2761,1.3179,1.3786,1.4554,1.3793,1.2526,1.3814,1.3491,1.2614,1.33,1.4094,1.4812,1.5049,1.5551,1.5862,1.5137,1.5171,1.5045,1.3475,1.3606,1.4074,1.3891,1.3588,1.333,1.3189,1.243,1.1876,1.2128,1.2133,1.2113,1.2169,1.2813,1.3243,1.309,1.346,1.3778,1.3789,1.3818,1.3909,1.405,1.3995,1.3938,1.393,1.3894,1.3815,1.3709,1.2867,1.244,1.2665,1.1607,1.0997,1.0953,1.215,1.1753,0.9672,1.1328,1.1415,1.0026,1.0177,0.8839,1.0887,1.1,1.1078,1.0606,1.1013,1.1639,1.2189,1.2354,1.2246,1.1715,1.0558,0.9546,0.9106,0.0,0.0,0.0,0.0,0.0,0.0,0.0,0.0,0.0,0.0,0.0,0.0,0.0,0.0,0.0,0.0,0.0,0.0,0.0,0.0,0.0,0.0,0.0,1.1297,1.1299,1.1356,1.1516,1.176,1.1919,1.2021,1.283,1.2494,1.1339,1.2228,1.214,1.1412,1.1538,1.2165,1.2975,1.2917,1.3134,1.3594,1.4572,1.3672,1.2382,1.4983,1.44,1.2913,1.5219,1.5485,1.5049,1.5869,1.6166,1.6028,1.5217,1.5706,1.6135,1.4519,1.4069,1.391,1.3417,1.3312,1.3183,1.2705,1.2302,1.2075,1.2343,1.2332,1.2316,1.2399,1.3015,1.3429,1.3261,1.3606,1.3915,1.3991,1.4005,1.406,1.4193,1.4257,1.4219,1.4019,1.4127,1.3927,1.3346,1.2936,1.2555,1.223,1.2724,1.2119,1.027,1.1866,1.2048,1.073,1.113,1.092,1.011,0.9508,0.8087,1.0821,1.1041,0.0,1.1101,0.0,0.0,0.0,1.197,1.1352,0.0,1.0099,0.9471,0.9649,0.0,0.0,0.0,0.0,0.0,0.0,0.0,0.0,0.0,0.0,0.0,0.0,0.0,0.0,0.0,0.0,0.0,0.0,0.0,0.0,0.0,0.0,0.0,1.1561,1.1222,1.1191,1.1511,1.1586,1.1864,1.2375,1.2543,1.2295,1.1676,1.2131,1.2122,1.179,1.1553,1.1711,1.2161,1.2285,1.2791,1.3542,1.4079,1.3685,1.3046,1.4076,1.4288,1.4236,1.4941,1.5412,1.578,1.5909,1.6055,1.5958,1.5217,1.5587,1.6045,1.5333,1.5124,1.4921,1.4349,1.3967,1.3677,1.3468,1.2794,1.2246,1.2427,1.2266,1.2297,1.2925,1.2983,1.3328,1.4496,1.4161,1.3888,1.4232,1.4282,1.427,1.4211,1.4123,1.4028,1.3865,1.3809,1.3746,1.3648,1.3318,1.3194,1.3383,1.2732,1.2477,1.2724,1.3316,1.3078,1.197,1.2501,1.2523,1.206,1.169,1.0796,1.084,1.1173,0.0,1.1619,1.1838,1.2016,1.1908,0.0,0.0,0.0,0.0,0.0,0.0,0.0,0.0,0.0,0.0,0.0,0.0,0.0,0.0,0.0,0.0,0.0,0.0,0.0,0.0,0.0,0.0,0.0,0.0,0.0,0.0,0.0,0.0,0.0,1.1762,1.1271,1.1164,1.1485,1.156,1.1881,1.2389,1.233,1.207,1.1614,1.1866,1.1883,1.1694,1.1314,1.145,1.1949,1.2124,1.267,1.3444,1.4241,1.3936,1.3271,1.4367,1.4834,1.5,1.53,1.5759,1.6207,1.6139,1.6191,1.6235,1.5752,1.6002,1.6354,1.604,1.5776,1.5534,1.5169,1.469,1.426,1.4176,1.3632,1.3204,1.3289,1.314,1.3133,1.3574,1.3706,1.4114,1.5168,1.4812,1.4405,1.4393,1.4428,1.4386,1.4257,1.4188,1.4069,1.3865,1.3778,1.3731,1.3756,1.3542,1.3586,1.3953,1.3222,1.2927,1.317,1.3643,1.3566,1.2906,1.3246,1.319,1.2811,1.2025,1.0939,1.0975,1.1406,0.0,1.2119,1.2234,0.0,1.1107,1.1804,0.0,0.0,0.0,0.0,0.0,0.0,0.0,0.0,0.0,0.0,0.0,0.0,0.0,0.0,0.0,0.0,0.0,0.0,0.0,0.0,0.0,0.0,0.0,0.0,0.0,0.0,0.0,0.0,1.1829,1.1425,1.1298,0.0,1.1708,1.1918,1.221,1.2162,1.1884,1.1388,1.1489,1.1471,1.1357,1.1023,1.1381,1.2203,1.2363,1.2691,1.3284,1.4703,1.4254,1.3208,1.5373,1.5745,1.5412,1.6099,1.6355,1.6409,1.6409,1.6554,1.667,1.6538,1.6696,1.6834,1.6633,1.6178,1.5823,1.5887,1.5404,1.4885,1.4774,1.4645,1.4521,1.4537,1.4514,1.446,1.4333,1.4857,1.53,1.544,1.5529,1.5332,1.4617,1.4522,1.4456,1.4308,1.4356,1.4245,1.3906,1.3888,1.383,1.3717,1.3669,1.3786,1.4087,1.398,1.3437,1.2445,1.3341,1.374,1.3622,1.3539,1.3273,1.2817,1.1434,0.9765,1.1597,1.1599,0.0,0.0,1.2406,1.2661,1.1799,1.2137,0.0,0.0,0.0,0.0,0.0,0.0,0.0,0.0,0.0,0.0,0.0,0.0,0.0,0.0,0.0,0.0,0.0,0.0,0.0,0.0,0.0,0.0,0.0,0.0,0.0,0.0,0.0,1.1408,1.1274,1.1227,1.1346,0.0,1.1682,1.1881,1.2198,1.2018,1.2044,1.2107,1.1272,1.1385,1.2127,1.1625,1.2028,1.2974,1.3245,1.3248,1.3281,1.4224,1.4231,1.3904,1.5027,1.569,1.6099,1.6374,1.6474,1.6474,1.6474,1.6565,1.6696,1.667,1.6696,1.6799,1.705,1.6516,1.6047,1.667,1.5889,1.5,1.5076,1.4978,1.4853,1.4751,1.4622,1.4648,1.5126,1.5064,1.5122,1.5779,1.6074,1.6056,1.5642,1.504,1.4549,1.4247,1.4222,1.41,1.3776,1.3743,1.3726,1.3698,1.3833,1.3959,1.4092,1.4124,1.4146,1.4158,1.4443,1.4542,1.4512,1.4403,1.4244,1.4024,1.3869,1.278,1.1765,0.0,0.0,1.1936,0.0,1.2522,1.1875,1.1886,0.0,0.0,0.0,0.0,0.0,0.0,0.0,0.0,0.0,0.0,0.0,0.0,0.0,0.0,0.0,0.0,0.0,0.0,0.0,0.0,0.0,0.0,0.0,0.0,0.0,0.0,1.1541,1.1562,1.126,1.141,1.1571,1.1693,1.1756,1.1856,1.1943,1.2004,1.2102,1.2246,1.1648,1.1744,1.2249,1.2215,1.2594,1.327,1.3585,1.3728,1.3863,1.4643,1.4785,1.4669,1.5448,1.6044,1.6463,1.6543,1.6596,1.6649,1.6691,1.6779,1.6866,1.6882,1.6917,1.6952,1.7125,1.6767,1.6508,1.7077,1.6403,1.5753,1.6036,1.6102,1.6079,1.598,1.5823,1.5815,1.6157,1.6222,1.6357,1.6677,1.6597,1.6356,1.5942,1.5173,1.4549,1.4228,1.419,1.4078,1.3761,1.3746,1.3759,1.3803,1.392,1.4046,1.4141,1.4216,1.4349,1.4555,1.4651,1.4701,1.4667,1.4646,1.46,1.4491,1.408,1.3683,1.1827,0.0,1.252,1.2186,1.2113,0.0,1.1708,0.0,0.0,0.0,0.0,0.0,0.0,0.0,0.0,0.0,0.0,0.0,0.0,0.0,0.0,0.0,0.0,0.0,0.0,0.0,0.0,0.0,0.0,0.0,0.0,0.0,1.1561,1.1598,1.1871,1.1858,1.1432,1.1671,1.1827,1.1852,1.2016,1.1971,1.1745,1.2052,1.2138,1.2066,1.2081,1.2198,1.2353,1.2704,1.3125,1.3544,1.3857,1.417,1.4483,1.5242,1.5417,1.5345,1.608,1.6463,1.6623,1.6623,1.6675,1.6785,1.6811,1.6924,1.7009,1.7066,1.7052,1.7035,1.6938,1.6792,1.6719,1.6941,1.6642,1.642,1.7043,1.7272,1.732,1.7264,1.7044,1.6946,1.7142,1.7422,1.7631,1.7702,1.7159,1.6602,1.6128,1.5314,1.4644,1.4245,1.4175,1.406,1.3809,1.3793,1.3838,1.3909,1.3977,1.4074,1.4198,1.4288,1.4332,1.4399,1.4512,1.4534,1.4464,1.4577,1.4556,1.4444,1.3603,1.3719,1.2347,0.0,1.215,0.0,1.1918,1.1719,0.0,0.0,0.0,0.0,0.0,0.0,0.0,0.0,0.0,0.0,0.0,0.0,0.0,0.0,0.0,0.0,0.0,0.0,0.0,0.0,0.0,0.0,0.0,0.0,0.0,1.1659,1.173,1.1286,1.1875,1.1953,1.1496,1.1686,1.2047,1.2496,1.2793,1.2588,1.1884,1.2282,1.2246,1.1923,1.1815,1.235,1.3305,1.3127,1.357,1.4391,1.4637,1.4614,1.4511,1.5371,1.554,1.5483,1.6224,1.6596,1.6743,1.6712,1.6659,1.6623,1.6649,1.6811,1.7007,1.7009,1.6742,1.6452,1.6542,1.612,1.57,1.5802,1.5778,1.6045,1.7265,1.7566,1.7502,1.7384,1.6848,1.6736,1.7778,1.7331,1.7236,1.8375,1.7931,1.7273,1.6744,1.6023,1.5215,1.4299,1.4101,1.3934,1.3733,1.3763,1.3841,1.3903,1.4068,1.4185,1.4206,1.4307,1.4387,1.4399,1.4428,1.4392,1.4331,1.4283,1.4147,1.392,1.4009,1.4035,1.3136,1.2635,1.2044,0.0,1.1388,1.1034,0.0,0.0,0.0,0.0,0.0,0.0,0.0,0.0,0.0,0.0,0.0,0.0,0.0,0.0,0.0,0.0,0.0,0.0,0.0,0.0,0.0,0.0,0.0,0.0,1.1351,1.1497,1.1545,1.1549,1.1859,1.1908,1.1671,1.2163,1.2564,1.2831,1.3191,1.2896,1.209,1.2532,1.2496,1.2079,1.2375,1.2858,1.3501,1.3701,1.406,1.4533,1.4918,1.5065,1.5095,1.5621,1.5841,1.5898,1.63,1.6543,1.6623,1.6607,1.6607,1.6623,1.6633,1.6795,1.6972,1.7066,1.6677,1.6264,1.6475,1.5988,1.5553,1.5729,1.5712,1.5826,1.6509,1.6923,1.7299,1.762,1.7037,1.672,1.7315,1.7153,1.7188,1.7986,1.7807,1.7568,1.7442,1.6306,1.5329,1.4813,1.4271,1.3877,1.3698,1.3746,1.3838,1.3944,1.4068,1.419,1.4324,1.4381,1.4417,1.4459,1.4411,1.4362,1.4299,1.4224,1.4114,1.3977,1.4125,1.4126,0.0,0.0,1.2324,1.2082,1.1302,1.0708,0.0,0.0,0.0,0.0,0.0,0.0,0.0,0.0,0.0,0.0,0.0,0.0,0.0,0.0,0.0,0.0,0.0,0.0,0.0,0.0,0.0,0.0,0.0,0.0,1.1448,1.1415,1.149,1.1756,1.1918,1.1954,1.1881,1.2705,1.3151,1.3165,1.3512,1.3225,1.2354,1.2685,1.2685,1.2425,1.2908,1.3288,1.3628,1.4092,1.4401,1.461,1.5056,1.5358,1.5536,1.5827,1.6055,1.6277,1.6382,1.649,1.6581,1.6554,1.6581,1.6607,1.667,1.6779,1.693,1.7099,1.6669,1.6219,1.6437,1.6026,1.5576,1.5861,1.5688,1.5548,1.5813,1.6272,1.6829,1.7544,1.6908,1.6421,1.6956,1.6809,1.6834,1.7522,1.7628,1.7695,1.784,1.6595,1.5584,1.5258,1.4427,1.3851,1.3746,1.3791,1.3897,1.4012,1.4096,1.4221,1.4362,1.4405,1.4441,1.4501,1.4464,1.4405,1.4317,1.4275,1.4193,1.4096,1.4127,1.3989,0.0,1.3815,0.0,1.3144,1.2217,0.0,0.0,0.0,0.0,0.0,0.0,0.0,0.0,0.0,0.0,0.0,0.0,0.0,0.0,0.0,0.0,0.0,0.0,0.0,0.0,0.0,0.0,0.0,0.0,0.0,1.1384,1.1712,1.1822,1.1719,1.2016,1.2138,1.2077,1.3182,1.3686,1.3568,1.3765,1.3507,1.2768,1.2745,1.2768,1.2896,1.3091,1.3446,1.3908,1.417,1.4493,1.4839,1.5147,1.5388,1.5536,1.5854,1.6163,1.6398,1.6474,1.6623,1.6769,1.6712,1.6659,1.6607,1.667,1.6779,1.6921,1.6972,1.6565,1.6167,1.6415,1.6051,1.5654,1.5936,1.5418,1.502,1.5656,1.5828,1.6123,1.6956,1.5974,1.5521,1.7188,1.6199,1.5756,1.743,1.7694,1.7709,1.7814,1.7052,1.6225,1.5371,1.4462,1.3871,1.3809,1.3912,1.4012,1.41,1.4216,1.4288,1.4314,1.4422,1.4506,1.4506,1.4556,1.4529,1.4398,1.4387,1.4295,1.4105,1.404,1.3581,0.0,0.0,0.0,1.2929,1.1864,0.0,0.0,0.0,0.0,0.0,0.0,0.0,0.0,0.0,0.0,0.0,0.0,0.0,0.0,0.0,0.0,0.0,0.0,0.0,0.0,0.0,0.0,0.0,0.0,0.0,1.1448,1.1638,1.1774,1.1943,1.2186,1.2609,1.3248,1.4192,1.4437,1.4053,1.4311,1.3924,1.299,1.3082,1.3116,1.3116,1.3493,1.3749,1.4013,1.4447,1.4714,1.4902,1.5224,1.5433,1.5536,1.5883,1.6052,1.6163,1.6328,1.6436,1.6532,1.6517,1.6543,1.6607,1.667,1.6821,1.6972,1.7048,1.6645,1.6281,1.6453,1.6071,1.5709,1.5954,1.5783,1.5506,1.5263,1.5141,1.5383,1.6342,1.5645,1.5137,1.5829,1.5506,1.5538,1.6635,1.7323,1.7874,1.8377,1.7732,1.6926,1.6092,1.5234,1.4533,1.4026,1.4078,1.4163,1.4216,1.4319,1.4368,1.4433,1.4515,1.4578,1.4629,1.4645,1.4603,1.4459,1.4464,1.4375,1.4242,1.419,1.3912,1.5008,0.0,0.0,0.0,0.0,0.0,0.0,0.0,0.0,0.0,0.0,0.0,0.0,0.0,0.0,0.0,0.0,0.0,0.0,0.0,0.0,0.0,0.0,0.0,0.0,0.0,0.0,0.0,0.0,0.0,1.1575,1.1774,1.2066,1.2354,1.2473,1.2936,1.3777,1.4413,1.456,1.427,1.4333,1.3939,1.3198,1.322,1.3254,1.3335,1.3808,1.3993,1.4032,1.4529,1.478,1.498,1.5254,1.5418,1.558,1.587,1.5983,1.6067,1.6191,1.6328,1.6436,1.6463,1.6559,1.6675,1.6779,1.6889,1.6972,1.7048,1.6841,1.6614,1.6758,1.6648,1.649,1.6443,1.6374,1.6096,1.5187,1.4896,1.5002,1.5726,1.5229,1.4819,1.5187,1.5067,1.5171,1.5911,1.6749,1.7589,1.836,1.805,1.7435,1.6568,1.581,1.503,1.4195,1.4211,1.4263,1.4325,1.4399,1.4451,1.4523,1.4603,1.4674,1.4724,1.4766,1.4718,1.4624,1.4567,1.4464,1.4331,1.4299,1.4096,0.0,0.0,0.0,0.0,0.0,0.0,0.0,0.0,0.0,0.0,0.0,0.0,0.0,0.0,0.0,0.0,0.0,0.0,0.0,0.0,0.0,0.0,0.0,0.0,0.0,0.0,0.0,0.0,0.0,1.1909,1.1811,1.2246,1.265,1.2896,1.2885,1.3083,1.3593,1.3816,1.4013,1.4196,1.3791,1.3531,1.3391,1.3082,1.3138,1.3514,1.3993,1.4111,1.4019,1.4374,1.4721,1.5013,1.5238,1.5418,1.561,1.5827,1.597,1.6095,1.6166,1.6344,1.6501,1.6554,1.6691,1.6811,1.6946,1.6946,1.6921,1.6972,1.7048,1.7158,1.7353,1.7749,1.7969,1.7446,1.7194,1.6699,1.5528,1.5161,1.5094,1.5151,1.4688,1.4554,1.5421,1.4848,1.4581,1.5377,1.6078,1.683,1.7702,1.8009,1.776,1.6745,1.6091,1.535,1.4332,1.4293,1.4332,1.4398,1.4462,1.4519,1.4595,1.4678,1.4728,1.4794,1.4867,1.4902,1.4904,1.4697,1.4545,1.4399,1.4263,1.405,1.57,0.0,0.0,0.0,0.0,0.0,0.0,0.0,0.0,0.0,0.0,0.0,0.0,0.0,0.0,0.0,0.0,0.0,0.0,0.0,0.0,0.0,0.0,0.0,0.0,0.0,0.0,0.0,1.2544,1.2473,1.2318,1.2615,1.3,1.3378,1.3702,1.3909,1.3974,1.4537,1.46,1.4061,1.4048,1.3818,1.3391,1.3344,1.3459,1.3741,1.417,1.4319,1.4319,1.4704,1.4907,1.5013,1.5269,1.5433,1.5551,1.5741,1.5913,1.6039,1.6067,1.6191,1.6367,1.6382,1.6517,1.6691,1.6811,1.6956,1.7032,1.6998,1.7149,1.7354,1.7629,1.7939,1.8184,1.8183,1.8051,1.7748,1.7011,1.673,1.6133,1.4556,1.4207,1.4248,1.4534,1.4472,1.4666,1.5521,1.6373,1.7214,1.7992,1.878,1.8875,1.7863,1.7139,1.6336,1.5429,1.4829,1.4526,1.4541,1.4552,1.4624,1.4744,1.4766,1.4804,1.4867,1.4944,1.4976,1.4976,1.4813,1.4678,1.4534,1.4302,1.4114,0.0,0.0,0.0,0.0,0.0,0.0,0.0,1.2125,0.0,0.0,0.0,0.0,0.0,0.0,0.0,0.0,0.0,0.0,0.0,0.0,0.0,0.0,0.0,0.0,0.0,0.0,0.0,0.0,1.3138,1.3126,1.3182,1.3195,1.3446,1.3881,1.4075,1.4128,1.4046,1.4346,1.4336,1.3922,1.3816,1.3674,1.3459,1.3514,1.3682,1.396,1.4273,1.4511,1.4665,1.5281,1.5363,1.5088,1.5284,1.5433,1.5551,1.5668,1.5827,1.5955,1.5983,1.6136,1.6301,1.6328,1.649,1.6691,1.6811,1.693,1.7007,1.7048,1.7232,1.7505,1.7743,1.8005,1.8236,1.8463,1.8403,1.8136,1.7612,1.7363,1.6835,1.5392,1.4886,1.4751,1.497,1.4726,1.4814,1.5658,1.6532,1.738,1.8141,1.9145,1.9399,1.8358,1.7674,1.6892,1.5912,1.5103,1.4645,1.4648,1.4677,1.4726,1.4803,1.4841,1.4902,1.4947,1.5004,1.504,1.504,1.4909,1.4766,1.4645,1.4512,1.4362,0.0,0.0,0.0,0.0,0.0,0.0,1.3908,1.3013,0.0,0.0,0.0,0.0,0.0,0.0,0.0,0.0,0.0,0.0,0.0,0.0,0.0,0.0,0.0,0.0,0.0,0.0,1.3808,1.3648,1.3648,1.3769,1.4098,1.3881,1.3914,1.4268,1.4111,1.4,1.3967,1.3749,1.3661,1.3721,1.3404,1.3357,1.3514,1.3615,1.3835,1.4163,1.4406,1.4728,1.5074,1.5961,1.5891,1.5338,1.5471,1.5637,1.5802,1.5802,1.5921,1.6111,1.6182,1.6338,1.649,1.6495,1.6669,1.6897,1.6895,1.6905,1.6946,1.7057,1.7297,1.7549,1.7766,1.7983,1.8236,1.8463,1.8388,1.8176,1.77,1.7522,1.7365,1.71,1.6215,1.5581,1.587,1.5272,1.5008,1.5809,1.6642,1.7464,1.8261,1.9198,1.9422,1.8454,1.7857,1.7085,1.6005,1.5274,1.484,1.4728,1.4766,1.4804,1.4804,1.493,1.4998,1.5006,1.5068,1.5101,1.5114,1.4984,1.485,1.4724,1.4785,1.466,0.0,0.0,0.0,0.0,0.0,0.0,1.4706,1.4151,0.0,0.0,0.0,0.0,0.0,0.0,0.0,0.0,0.0,0.0,0.0,0.0,0.0,0.0,0.0,0.0,0.0,0.0,1.4059,1.3934,1.3934,1.4013,1.4157,1.4124,1.4138,1.4235,1.417,1.4026,1.3682,1.3795,1.3674,1.3301,1.3586,1.3641,1.3581,1.3927,1.4189,1.4351,1.4637,1.5107,1.5748,1.6149,1.6152,1.5998,1.6713,1.6968,1.6968,1.7081,1.7228,1.7372,1.7482,1.7623,1.767,1.7264,1.7308,1.744,1.6961,1.6879,1.6998,1.7124,1.7314,1.7479,1.7726,1.7917,1.8113,1.8443,1.8403,1.829,1.8297,1.8278,1.8319,1.853,1.6904,1.5348,1.4884,1.484,1.5141,1.6008,1.6924,1.7805,1.8679,1.8972,1.8972,1.8648,1.8056,1.7189,1.608,1.5942,1.5611,1.4916,1.4813,1.4823,1.4886,1.4965,1.4995,1.5,1.5114,1.5182,1.519,1.5047,1.4938,1.4866,1.4822,1.4709,0.0,0.0,0.0,1.6246,0.0,0.0,0.0,1.4776,1.4156,0.0,0.0,0.0,0.0,0.0,0.0,0.0,0.0,0.0,0.0,0.0,0.0,0.0,0.0,0.0,0.0,0.0,1.4369,1.4246,1.4498,1.4585,1.4507,1.467,1.4664,1.4493,1.4365,1.4189,1.396,1.3874,1.3708,1.3506,1.396,1.4158,1.4158,1.4533,1.4768,1.4886,1.4872,1.5318,1.6157,1.667,1.7023,1.7214,1.7349,1.7382,1.7382,1.7382,1.7467,1.7584,1.7779,1.7876,1.7926,1.7868,1.7955,1.7993,1.7463,1.7417,1.751,1.7346,1.7601,1.7937,1.7765,1.79,1.8091,1.8263,1.838,1.8461,1.8506,1.8565,1.8572,1.834,1.7101,1.6041,1.588,1.5289,1.5273,1.6563,1.7217,1.8013,1.9278,1.9124,1.8856,1.8755,1.7718,1.6781,1.6148,1.5797,1.5416,1.4974,1.4895,1.4886,1.4957,1.4979,1.5015,1.5054,1.5127,1.5164,1.5201,1.514,1.5061,1.4996,1.4933,1.4866,0.0,0.0,0.0,0.0,0.0,1.627,0.0,0.0,0.0,1.4443,0.0,0.0,0.0,0.0,0.0,0.0,0.0,0.0,0.0,0.0,0.0,0.0,0.0,0.0,0.0,0.0,1.4669,1.4547,1.4919,1.5021,1.4728,1.4979,1.4988,1.4651,1.4447,1.43,1.4203,1.3941,1.3821,1.3801,1.4337,1.4682,1.4849,1.5148,1.5387,1.548,1.5139,1.5475,1.6378,1.7151,1.7831,1.8341,1.7944,1.7831,1.7783,1.7715,1.7734,1.7806,1.8074,1.8155,1.8188,1.8468,1.847,1.8308,1.7912,1.7957,1.8016,1.7658,1.8087,1.8551,1.8037,1.8059,1.8219,1.8126,1.8319,1.85,1.8463,1.8638,1.861,1.7967,1.7251,1.6762,1.6879,1.5735,1.5366,1.7058,1.7414,1.8099,1.9789,1.9211,1.8628,1.8592,1.7286,1.6364,1.6241,1.5624,1.5263,1.5244,1.502,1.4919,1.499,1.4984,1.5033,1.5095,1.5114,1.5159,1.5199,1.5201,1.5171,1.5127,1.5059,1.503,0.0,0.0,0.0,0.0,1.6485,0.0,0.0,0.0,1.615,1.6119,0.0,0.0,0.0,0.0,0.0,0.0,0.0,0.0,0.0,0.0,0.0,0.0,0.0,0.0,0.0,0.0,0.0,1.4669,1.4616,1.452,1.4365,1.4451,1.4387,1.4098,1.4189,1.4105,1.3854,1.3888,1.3854,1.3821,1.4626,1.5148,1.5319,1.5555,1.5755,1.589,1.5404,1.563,1.6442,1.7184,1.7914,1.8619,1.9159,1.9156,1.892,1.9082,1.9119,1.9104,1.9394,1.9445,1.9355,1.9165,1.8547,1.7876,1.7825,1.7957,1.8087,1.8032,1.8643,1.9197,1.871,1.8648,1.8623,1.8202,1.8172,1.8274,1.8298,1.8524,1.8717,1.8753,1.7693,1.657,1.5903,1.5236,1.5366,1.7055,1.7414,1.8099,1.9789,1.8678,1.7778,1.7819,1.7015,1.6458,1.6374,1.6244,1.6151,1.6151,1.5369,1.4894,1.4911,1.4976,1.5033,1.5095,1.5165,1.5197,1.5195,1.5195,1.5209,1.5183,1.5184,1.5159,0.0,0.0,0.0,0.0,0.0,0.0,0.0,0.0,1.6474,0.0,0.0,0.0,0.0,0.0,0.0,0.0,0.0,0.0,0.0,0.0,0.0,0.0,0.0,0.0,0.0,0.0,0.0,0.0,0.0,1.5237,1.4665,1.4939,1.4869,1.4324,1.4287,1.4157,1.3914,1.4026,1.4007,1.3854,1.5111,1.5543,1.5285,1.5882,1.6059,1.5792,1.5313,1.5585,1.6442,1.7199,1.7899,1.8569,1.9328,1.9487,1.9302,1.9339,1.9265,1.9213,1.945,1.9523,1.9515,1.9676,1.9307,1.8789,1.8553,1.884,1.9127,1.8516,1.9176,1.9925,1.946,1.906,1.8778,1.87,1.8487,1.8322,1.8403,1.86,1.877,1.8771,1.7686,1.6628,1.63,1.5403,1.5324,1.7037,1.7281,1.7925,1.9766,1.8894,1.8194,1.8378,1.7258,1.6676,1.7125,1.624,1.5856,1.6321,1.548,1.4952,1.4955,1.4995,1.5023,1.5106,1.5099,1.5094,1.5146,1.5146,1.5133,1.5133,1.5146,1.5152,1.6972,0.0,0.0,0.0,0.0,0.0,0.0,0.0,0.0,0.0,0.0,0.0,0.0,0.0,0.0,0.0,0.0,0.0,0.0,0.0,0.0,0.0,0.0,0.0,0.0,0.0,0.0,0.0,0.0,0.0,1.493,1.5198,1.5129,1.456,1.4433,1.4305,1.4195,1.4241,1.4222,1.4072,1.5564,1.5929,1.538,1.6264,1.638,1.5797,1.5298,1.5484,1.6195,1.6919,1.7619,1.8273,1.9081,1.9432,1.9376,1.9339,1.9228,1.9139,1.9339,1.945,1.956,1.9904,1.9793,1.9484,1.9272,1.9468,1.9667,1.9121,1.9569,2.0122,1.9797,1.9244,1.8764,1.8773,1.8556,1.8363,1.8426,1.8601,1.8733,1.8715,1.7588,1.6664,1.6697,1.5582,1.5208,1.6715,1.703,1.7695,1.9345,1.8926,1.8553,1.8764,1.7551,1.7068,1.7941,1.668,1.599,1.6349,1.551,1.5011,1.503,1.5003,1.5019,1.509,1.4821,1.4694,1.4743,1.4736,1.4756,1.4775,1.5025,1.5151,0.0,0.0,0.0,1.7184,0.0,0.0,0.0,0.0,1.7093,0.0,0.0,0.0,0.0,0.0,1.7337,1.7216,0.0,0.0,0.0,0.0,0.0,0.0,0.0,0.0,0.0,0.0,0.0,0.0,0.0,0.0,1.4932,1.4853,1.4791,1.4714,1.4547,1.4547,1.4683,1.4547,1.4501,1.4515,1.5963,1.636,1.5825,1.6684,1.6766,1.6137,1.5543,1.5373,1.5595,1.6244,1.6956,1.7721,1.8444,1.8995,1.9413,1.9413,1.9265,1.9139,1.9339,1.956,1.9797,1.9797,1.9573,1.937,1.961,1.9337,1.9103,2.0,1.9854,1.9471,1.9509,1.9107,1.8557,1.8042,1.8065,1.8215,1.8287,1.8469,1.8623,1.8697,1.7503,1.6558,1.6685,1.56,1.5019,1.5919,1.6653,1.7435,1.8323,1.841,1.8429,1.8488,1.7775,1.7719,1.8769,1.7971,1.7104,1.6349,1.5472,1.5038,1.5085,1.5019,1.503,1.509,1.4282,1.3844,1.3838,1.3844,1.3876,1.3956,1.4799,1.5189,0.0,0.0,1.7402,1.7297,0.0,0.0,0.0,0.0,0.0,0.0,0.0,0.0,0.0,0.0,1.7405,1.6892,1.6912,1.7027,0.0,0.0,0.0,0.0,0.0,0.0,0.0,0.0,0.0,0.0,0.0,0.0,0.0,1.5147,1.5025,1.4777,1.4763,1.4763,1.4777,1.4732,1.461,1.4515,1.5491,1.5641,1.5081,1.5863,1.597,1.5542,1.5339,1.5328,1.5507,1.6167,1.6828,1.7474,1.8258,1.8838,1.9213,1.9339,1.9265,1.9101,1.9302,1.9413,1.956,1.969,1.9773,1.9774,1.9558,1.95,1.951,1.9447,1.9366,1.9311,1.9514,1.9142,1.8691,1.8653,1.8413,1.8205,1.829,1.8428,1.8545,1.8622,1.7879,1.7087,1.6648,1.5873,1.544,1.5815,1.6454,1.7285,1.8329,1.8811,1.9146,1.9351,1.8636,1.8552,1.9485,1.8783,1.7681,1.6186,1.6366,1.6272,1.5725,1.5678,1.5442,1.4982,1.4687,1.4286,1.3797,1.4327,1.4323,1.3838,1.4143,1.4616,1.8151,1.8182,0.0,1.7839,1.76,0.0,1.746,0.0,0.0,0.0,0.0,0.0,0.0,0.0,1.762,1.7147,1.7186,1.7313,0.0,1.7169,0.0,0.0,0.0,0.0,0.0,0.0,0.0,1.4461,1.4807,0.0,0.0,0.0,1.5238,1.5011,1.498,1.4904,1.4873,1.4856,1.4763,1.4624,1.538,1.5398,1.4791,1.5588,1.5673,1.5253,1.5253,1.5298,1.5418,1.5857,1.6559,1.7393,1.7954,1.8576,1.9176,1.9339,1.9339,1.9213,1.9302,1.9376,1.9487,1.9654,1.9703,1.9687,1.9476,1.917,1.8933,1.8962,1.8716,1.8513,1.8973,1.8718,1.838,1.8521,1.8395,1.8208,1.829,1.8178,1.8171,1.8513,1.7808,1.7094,1.691,1.6128,1.5488,1.5388,1.6188,1.7073,1.7876,1.874,1.938,1.9633,1.9176,1.8988,1.9375,1.8429,1.7312,1.6186,1.6319,1.6337,1.6071,1.5751,1.5639,1.5753,1.4904,1.423,1.3736,1.3959,1.3823,1.3339,1.3662,1.4296]}]]